     2              OBSERVATION DATA    GPS                 RINEX VERSION / TYPE
ASHTORIN MIT 25 - NOV - 96 15:34                            PGM / RUN BY / DATE
                                                            COMMENT
--> THIS IS THE START OF A NEW SITE <---                    COMMENT
--> THIS IS THE START OF A NEW SITE <---                    COMMENT
Original Marker Name: GS20                                  COMMENT
Campaign Name: China Lake Nov 1996                          COMMENT
4-Character Station Name: GS20                              COMMENT
6-Character Antenna Code: ASHP12                            COMMENT
Vertical Measurement Point: TGP                             COMMENT
Vertical Offset to Rinex Ref. Point: 0.0640                 COMMENT
Radial Measurement Point: RRP                               COMMENT
Radial Offset to Rinex Ref. Point: 0.0000                   COMMENT
Antenna Height from Field Measurement: 0.2060 m             COMMENT
Additional Antenna Identification Info.:                    COMMENT
Ashtech L1/L2 Revision B (700228DE)                         COMMENT
Original XYZ: -2358942.5400 -4594200.7800 3731779.2200      COMMENT
New XYZ position is based on association with SCEC monument COMMENT
E1F4F6M9+0011. Position of that monument is believed to be  COMMENT
valid to within 1 m horizontally; vertical accuracy         COMMENT
should be no worse than 3-times this value.                 COMMENT
                                                            COMMENT
Revised Rinex header created by UCSD GPS archive for        COMMENT
GSAC on 01-Aug-2000 (2000:214) 05:48:35 GMT                 COMMENT
For assistance contact dagnew@ucsd.edu                      COMMENT
or anderson@python.ucsd.edu                                 COMMENT
                                                            COMMENT
BLM CA 065-94-66 GO20                                       MARKER NAME
gs20                                                        MARKER NUMBER
KEA BMA                                                     OBSERVER / AGENCY
434 ASHTECH Z-XII3 1G001C7                                  REC # / TYPE / VERS
103 ASHTECH GEODETIC P                                      ANT # / TYPE
 -2384589.5226 -4600193.7268  3707714.9288                  APPROX POSITION XYZ
        0.1420        0.0000        0.0000                  ANTENNA: DELTA H/E/N
     1     1     0                                          WAVELENGTH FACT L1/2
     7    L1    L2    C1    P1    P2    D1    D2            # / TYPES OF OBSERV
    30                                                      INTERVAL
  1996    11    12    16    26    0.000000                  TIME OF FIRST OBS
  1996    11    12    22    29   60.000000                  TIME OF LAST OBS
                                                            END OF HEADER
 96 11 12 16 26  0.0000000  0  7 17  3 23 21  9  1 31                0.000612703
     70710.78419     44311.98757  20825327.975           0.0005   20825335.1095
     -2167.996       -1689.348
     10902.62219      6986.72258  19812304.700    19812306.3935   19812311.7465
      -291.513        -227.153
     32813.36119     21692.99558  20176755.730           0.0005   20176762.2665
     -1060.459        -826.332
    -23767.03619    -15071.46258  19052960.136           0.0005   19052966.7115
       732.843         571.046
    -14019.66219     -9541.02757  21958304.110           0.0005   21958310.6025
       374.680         291.958
    -75801.18719    -46322.19057  19103213.397           0.0005          0.0005
      2272.096        1770.464
    -65541.33419    -41339.15457  21322946.728           0.0005   21322952.2885
      2010.387        1566.535
 96 11 12 16 27  0.0000000  3  2
GS20                                                        MARKER NAME
--> THIS IS THE START OF A NEW SITE <---                    COMMENT
 96 11 12 16 27  0.0000000  0  7 17  3 23 21  9  1 31                0.000433466
    201441.053 9    146179.61247  22648958.192    22648960.1905   22648967.0234
     -2190.841       -1707.149
     29580.926 9     21541.20658  21614610.209    21614615.5075   21614620.9785
      -332.319        -258.950
     96678.217 9     71457.76948  21987664.683    21987664.9005   21987670.1494
     -1069.598        -833.453
    -67295.152 9    -48989.49348  20843432.257    20843432.9405   20843438.4484
       716.685         558.456
    -35380.452 9    -26185.74157  23752991.278    23752995.3565   23753000.3565
       336.498         262.206
   -211074.269 9   -150709.86154  20876225.692           0.0004          0.0005
      2236.585        1742.793
   -185046.133 9   -134459.78347  23098955.401    23098960.8755   23098966.3904
      1972.183        1536.766
 96 11 12 16 27 30.0000000  0  7 17  3 23 21  9  1 31                0.000423531
    267346.412 9    197534.38057  22661501.749    22661501.6095   22661508.3975
     -2203.161       -1716.749
     39859.909 9     29550.78748  21616566.977    21616571.5544   21616577.0464
      -352.950        -275.026
    128854.577 9     96530.24158  21993785.295    21993787.8985   21993793.1415
     -1075.697        -838.205
    -88647.978 9    -65628.06158  20839368.435    20839369.6555   20839375.1325
       706.716         550.688
    -45178.050 9    -33820.19647  23751126.489    23751130.9184   23751135.8994
       316.562         246.672
   -277895.139 9    -41271.65058  20863512.256           0.0005   20863517.6245
      2218.071        1728.367
   -243909.832 9   -180327.62257  23087768.406    23087759.7145   23087765.1675
      1951.961        1521.009
 96 11 12 16 28  0.0000000  0  7 17  3 23 21  9  1 31                0.000413574
    333655.440 9    249203.69347  22674119.207    22674119.8294   22674126.6374
     -2217.337       -1727.795
     50781.030 9     38060.74048  21618646.639    21618649.8164   21618655.2904
      -375.114        -292.297
    161247.225 9    121771.24348  21999950.242    21999952.0444   21999957.3034
     -1083.682        -844.428
   -109672.985 9    -82011.18248  20835367.581    20835368.7734   20835374.2524
       695.259         541.760
    -54345.768 9    -40963.85247  23749382.823    23749386.1344   23749391.5194
       294.765         229.687
   -344127.769 9    -92881.47548  20850907.686    20850908.1215   20850913.9894
      2197.516        1712.350
   -302138.300 9   -225700.45747  23076682.226    23076679.0394   23076684.5994
      1929.920        1503.834
 96 11 12 16 28 30.0000000  0  7 17  3 23 21  9  1 31                0.000403682
    400393.051 9    301206.96747  22686818.920    22686819.6404   22686826.4384
     -2232.479       -1739.594
     62369.708 9     47090.86848  21620852.561    21620855.1084   21620860.5714
      -398.420        -310.457
    193883.902 9    147202.40648  22006161.248    22006162.6074   22006167.9094
     -1092.970        -851.665
   -130356.841 9    -98128.47748  20831431.542    20831432.7734   20831438.2524
       682.864         532.102
    -62865.367 9    -47602.48447  23747761.587    23747764.8114   23747770.4324
       272.325         212.201
   -409748.189 9   -144014.25948  20838420.321    20838421.0234   20838426.8374
      2176.305        1695.822
   -359710.493 9   -270561.92347  23065725.162    23065723.5124   23065728.9804
      1907.285        1486.196
 96 11 12 16 29  0.0000000  0  7 17  3 23 21  9  1 31                0.000393864
    467574.052 9    353555.73747  22699602.826    22699603.8134   22699610.6214
     -2246.695       -1750.671
     74656.508 9     56664.98248  21623190.923    21623193.2384   21623198.7154
      -421.027        -328.073
    226802.646 9    172853.35448  22012425.604    22012426.8644   22012432.1754
     -1101.797        -858.543
   -150675.467 9   -113961.18248  20827565.110    20827566.2814   20827571.7684
       671.590         523.317
    -70709.345 9    -53714.67047  23746269.213    23746272.1164   23746277.9604
       250.150         194.922
   -474736.107 9   -194654.17748  20826053.331    20826054.2414   20826060.0634
      2155.906        1679.927
   -416603.290 9   -314893.96247  23054897.658    23054897.0954   23054902.7314
      1885.177        1468.969
 96 11 12 16 29 30.0000000  0  7 17  3 23 21  9  1 31                0.000384140
    535208.627 9    406257.95047  22712473.172    22712474.2854   22712481.0754
     -2262.083       -1762.662
     87642.936 9     66784.26648  21625662.304    21625664.5304   21625669.9914
      -444.802        -346.599
    260001.775 9    198722.79248  22018743.359    22018744.4464   22018749.7944
     -1111.332        -865.973
   -170646.252 9   -129522.83248  20823764.778    20823765.9904   20823771.4814
       659.846         514.166
    -77861.384 9    -59287.67947  23744908.467    23744911.1164   23744916.8944
       226.619         176.586
   -539086.814 9   -244797.57348  20813807.638    20813808.7364   20813814.5304
      2134.112        1662.944
   -472813.487 9   -358694.14347  23044200.905    23044200.7404   23044206.2214
      1861.968        1450.884
 96 11 12 16 30  0.0000000  0  7 17  3 23 21  9  1 31                0.000374538
    603308.823 9    459322.98747  22725432.152    22725433.3764   22725440.1814
     -2278.054       -1775.107
    101368.155 9     77479.22748  21628274.286    21628276.4044   21628281.8554
      -470.437        -366.574
    293498.164 9    224823.85648  22025117.584    22025118.6204   22025123.9424
     -1121.896        -874.205
   -190249.938 9   -144798.43248  20820034.282    20820035.5094   20820041.0274
       646.852         504.041
    -84283.255 9    -64291.74047  23743686.391    23743689.1184   23743694.8914
       201.291         156.850
   -602762.954 9   -294415.33248  20801690.472    20801691.5974   20801697.3944
      2110.728        1644.723
   -528297.820 9   -401928.67047  23033642.358    23033642.4814   23033647.9544
      1836.686        1431.184
 96 11 12 16 30 30.0000000  0  7 17  3 23 21  9  1 31                0.000365070
    671877.444 9    512753.04447  22738480.237    22738481.6334   22738488.4214
     -2293.361       -1787.034
    115856.242 9     88768.63548  21631031.465    21631033.4424   21631038.8554
      -495.622        -386.199
    327296.327 9    251160.07348  22031549.113    22031550.2134   22031555.5634
     -1131.420        -881.626
   -209468.432 9   -159773.88348  20816377.147    20816378.3794   20816383.8934
       634.205         494.186
    -89953.023 9    -68709.73447  23742608.323    23742610.3654   23742615.9424
       176.477         137.514
   -665750.311 9   -343496.37448  20789704.318    20789705.5154   20789711.3084
      2088.199        1627.168
   -583038.968 9   -444584.10647  23023225.130    23023225.6084   23023231.1094
      1812.380        1412.244
 96 11 12 16 31  0.0000000  0  7 17  3 23 21  9  1 31                0.000355743
    740923.368 9    566555.01547  22751619.428    22751620.7114   22751627.5104
     -2309.952       -1799.963
    131118.526 9    100661.30248  21633935.932    21633937.7984   21633943.2224
      -521.926        -406.696
    361390.399 9    277726.87448  22038036.994    22038038.1294   22038043.4804
     -1141.546        -889.516
   -228295.198 9   -174444.09248  20812794.571    20812795.7994   20812801.3284
       620.696         483.659
    -94866.190 9    -72538.19047  23741673.931    23741675.5314   23741681.0814
       151.013         117.672
   -728044.863 9   -392037.57148  20777850.051    20777851.2674   20777857.0344
      2064.788        1608.926
   -637023.855 9   -486650.26647  23012951.904    23012952.6214   23012958.1214
      1786.471        1392.055
 96 11 12 16 31 30.0000000  0  7 17  3 23 21  9  1 31                0.000346568
    810466.640 9    620744.52747  22764853.060    22764854.4064   22764861.2354
     -2325.833       -1812.337
    147168.048 9    113167.40448  21636990.067    21636991.9514   21636997.3684
      -547.756        -426.823
    395783.487 9    304526.66448  22044581.816    22044582.9714   22044588.3044
     -1151.085        -896.949
   -246706.728 9   -188790.74248  20809291.059    20809292.2464   20809297.7784
       606.987         472.977
    -99017.161 9    -75772.73247  23740884.334    23740885.6624   23740891.2774
       126.081          98.245
   -789644.630 9   -440037.37648  20766127.911    20766129.2244   20766135.0164
      2042.171        1591.302
   -690230.183 9   -528109.74547  23002826.831    23002827.8124   23002833.4184
      1760.881        1372.115
 96 11 12 16 32  0.0000000  0  7 17  3 23 21  9  1 31                0.000337527
    880482.863 9    675302.56247  22778176.629    22778178.0964   22778184.9694
     -2341.812       -1824.789
    163993.267 9    126277.94648  21640191.888    21640193.7364   21640199.1764
      -573.580        -446.945
    430463.711 9    331550.20048  22051181.246    22051182.4664   22051187.7754
     -1160.654        -904.406
   -264706.824 9   -202816.79148  20805865.816    20805866.9934   20805872.5364
       593.379         462.373
   -102425.026 9    -78428.22147  23740235.750    23740237.2784   23740242.8434
       101.591          79.162
   -850567.208 9   -487509.50248  20754534.765    20754536.0604   20754541.8634
      2019.642        1573.747
   -742671.569 9   -568973.15547  22992847.296    22992848.4824   22992854.0994
      1735.806        1352.576
 96 11 12 16 32 30.0000000  0  7 17  3 23 21  9  1 31                0.000328611
    950982.129 9    730236.97547  22791592.423    22791593.7384   22791600.5814
     -2358.148       -1837.518
    181588.247 9    139988.29248  21643540.198    21643541.9784   21643547.4304
      -599.404        -467.068
    465425.568 9    358793.18948  22057834.266    22057835.5194   22057840.8314
     -1170.232        -911.869
   -282308.453 9   -216532.35148  20802516.493    20802517.5654   20802523.1184
       580.081         452.011
   -105113.365 9    -80523.07147  23739724.001    23739725.7024   23739731.4504
        77.598          60.466
   -910821.402 9   -534460.80948  20743068.787    20743070.1084   20743075.9034
      1997.173        1556.239
   -794381.000 9   -609266.23147  22983007.526    22983008.5784   22983014.1244
      1711.442        1333.591
 96 11 12 16 33  0.0000000  0  7 17  3 23 21  9  1 31                0.000319823
   1021977.709 9    785558.12347  22805102.405    22805103.8244   22805110.6894
     -2374.726       -1850.436
    199960.321 9    154304.16948  21647036.316    21647038.1124   21647043.5724
      -625.213        -487.179
    500690.850 9    386272.61448  22064545.057    22064546.3174   22064551.6134
     -1180.666        -919.999
   -299503.869 9   -229931.38448  20799244.336    20799245.4394   20799250.9704
       566.300         441.273
   -107075.416 9    -82051.94947  23739351.058    23739352.3644   23739358.0534
        53.267          41.507
   -970387.841 9   -580876.20748  20731733.732    20731735.0134   20731740.8014
      1974.011        1538.190
   -845351.054 9   -648983.18047  22973308.300    22973309.4044   22973314.8664
      1686.792        1314.383
 96 11 12 16 33 30.0000000  0  7 17  3 23 21  9  1 31                0.000311148
   1093462.606 9    841260.55147  22818705.668    22818706.9974   22818713.9254
     -2390.730       -1862.906
    219098.598 9    169217.08548  21650678.325    21650680.0454   21650685.5094
      -650.641        -506.993
    536263.360 9    413991.43648  22071314.318    22071315.5824   22071320.8914
     -1190.686        -927.807
   -316286.629 9   -243008.85748  20796050.568    20796051.8034   20796057.3314
       552.686         430.664
   -108299.095 9    -83005.47947  23739117.899    23739119.6464   23739125.0954
        28.397          22.128
  -1029257.586 9   -626748.72148  20720531.263    20720532.4764   20720538.2694
      1950.577        1519.930
   -895596.500 9   -688135.48247  22963746.905    22963748.0274   22963753.5414
      1662.931        1295.790
 96 11 12 16 34  0.0000000  0  7 17  3 23 21  9  1 31                0.000302570
   1165413.285 9    897325.93447  22832397.434    22832398.8404   22832405.7764
     -2406.210       -1874.969
    238986.869 9    184714.41548  21654462.931    21654464.7194   21654470.1474
      -675.365        -526.258
    572120.809 9    441932.29148  22078137.873    22078139.0784   22078144.3674
     -1199.990        -935.057
   -332680.246 9   -255783.10448  20792931.104    20792932.2084   20792937.7384
       539.974         420.759
   -108797.801 9    -83394.08347  23739023.453    23739024.7604   23739030.1514
         4.630           3.608
  -1087432.550 9   -672079.85049  20709460.965    20709462.1884   20709467.9724
      1927.650        1502.065
   -945145.191 9   -726744.84147  22954318.133    22954319.2364   22954324.7794
      1640.061        1277.970
 96 11 12 16 34 30.0000000  0  7 17  3 23 21  9  1 31                0.000294080
   1237823.217 9    953749.16747  22846176.824    22846178.0774   22846185.0254
     -2420.989       -1886.485
    259600.634 9    200777.05948  21658385.612    21658387.4074   21658392.8594
      -698.832        -544.544
    608253.699 9    470087.76748  22085013.717    22085015.0004   22085020.2594
     -1208.859        -941.968
   -348697.156 9   -268263.82348  20789883.215    20789884.3154   20789889.8394
       527.836         411.301
   -108587.486 9    -83230.20047  23739063.153    23739064.7614   23739070.3974
       -18.665         -14.544
  -1144931.629 9   -716884.31848  20698519.367    20698520.5114   20698526.2824
      1905.698        1484.959
   -994008.625 9   -764820.25247  22945019.691    22945020.8004   22945026.2854
      1617.339        1260.264
 96 11 12 16 35  0.0000000  0  7 17  3 23 21  9  1 31                0.000285674
   1310672.843 9   1010515.02547  22860039.701    22860041.0024   22860047.9504
     -2435.334       -1897.663
    280915.549 9    217386.05248  21662441.869    21662443.5624   21662449.0354
      -721.926        -562.540
    644644.431 9    498444.16448  22091938.612    22091939.9784   22091945.2534
     -1216.805        -948.160
   -364349.105 9   -280460.14948  20786904.746    20786905.8854   20786911.4204
       515.944         402.034
   -107682.162 9    -82524.78447  23739235.180    23739236.8924   23739242.8624
       -41.301         -32.183
  -1201779.454 9   -761181.31048  20687701.602    20687702.7454   20687708.4984
      1884.657        1468.564
  -1042186.980 9   -802361.84447  22935851.762    22935852.9064   22935858.3354
      1594.842        1242.734
 96 11 12 16 35 30.0000000  0  7 17  3 23 21  9  1 31                0.000277339
   1383925.738 9   1067595.12947  22873979.468    22873980.6694   22873987.6314
     -2448.381       -1907.829
    302903.627 9    234519.59048  21666626.162    21666627.8184   21666633.2944
      -744.054        -579.782
    681243.487 9    526962.89048  22098903.444    22098904.5814   22098909.8684
     -1223.484        -953.364
   -379671.214 9   -292399.45648  20783989.133    20783990.2394   20783995.7484
       505.448         393.856
   -106128.270 9    -81313.95747  23739530.940    23739532.6124   23739538.4824
       -62.394         -48.619
  -1258032.610 9   -805014.92649  20676996.946    20676998.1634   20677003.8894
      1865.321        1453.497
  -1089708.160 9   -839391.33647  22926808.772    22926809.9504   22926815.4314
      1572.868        1225.611
 96 11 12 16 36  0.0000000  0  7 17  3 23 21  9  1 31                0.000269074
   1457565.251 9   1124976.49547  22887992.709    22887993.9324   22888000.8824
     -2460.953       -1917.626
    325534.095 9    252153.69048  21670932.596    21670934.3144   21670939.7864
      -764.617        -595.805
    718044.288 9    555638.82148  22105906.417    22105907.6134   22105912.8964
     -1230.011        -958.450
   -394695.824 9   -304106.95348  20781130.086    20781131.1804   20781136.6874
       496.183         386.636
   -103961.337 9    -79625.40547  23739943.784    23739945.1594   23739950.7404
       -82.292         -64.124
  -1313721.722 9   -848409.03249  20666399.663    20666400.9174   20666406.6334
      1847.240        1439.408
  -1136571.633 9   -875908.33947  22917891.018    22917892.1814   22917897.5184
      1551.213        1208.737
 96 11 12 16 36 30.0000000  0  7 17  3 23 21  9  1 31                0.000260876
   1531573.456 9   1182645.15147  22902076.207    22902077.2754   22902084.2604
     -2473.152       -1927.131
    348772.704 9    270261.67248  21675354.925    21675356.5354   21675361.9804
      -784.923        -611.628
    755037.444 9    584464.64048  22112945.915    22112947.2114   22112952.5124
     -1236.259        -963.319
   -409450.785 9   -315604.32548  20778322.282    20778323.4464   20778328.9104
       487.297         379.712
   -101194.178 9    -77469.14547  23740470.301    23740471.6964   23740477.2384
      -102.352         -79.755
  -1368866.485 9   -891378.95849  20655906.006    20655907.2344   20655912.9214
      1828.762        1425.009
  -1182778.337 9   -911913.56447  22909098.075    22909099.3054   22909104.8004
      1529.214        1191.595
 96 11 12 16 37  0.0000000  0  7 17  3 23 21  9  1 31                0.000252743
   1605942.917 9   1240595.30847  22916228.334    22916229.4234   22916236.4344
     -2484.447       -1935.933
    372625.787 9    288848.45648  21679893.987    21679895.6904   21679901.1584
      -804.778        -627.100
    792208.133 9    613428.80048  22120019.371    22120020.6174   22120025.9084
     -1241.409        -967.332
   -423938.834 9   -326893.72048  20775565.199    20775566.4774   20775571.9494
       478.973         373.226
    -97821.603 9    -74841.17847  23741111.501    23741113.3744   23741119.2624
      -122.234         -95.247
  -1423444.428 9   -933907.21849  20645520.229    20645521.4344   20645527.1004
      1810.117        1410.481
  -1228325.664 9   -947404.99047  22900430.568    22900431.8804   22900437.5324
      1507.671        1174.809
 96 11 12 16 37 30.0000000  0  7 17  3 23 21  9  1 31                0.000244663
   1680650.171 9   1298808.67447  22930444.611    22930445.8634   22930452.8274
     -2495.790       -1944.771
    397056.863 9    307885.63248  21684543.133    21684544.8154   21684550.2644
      -823.676        -641.825
    829537.571 9    642516.65248  22127122.889    22127124.2304   22127129.4844
     -1247.086        -971.755
   -438183.059 9   -337993.12248  20772854.632    20772855.9604   20772861.4084
       470.930         366.958
    -93839.985 9    -71738.60947  23741869.322    23741871.1794   23741877.1124
      -143.026        -111.449
  -1477454.945 9   -975993.31849  20635242.412    20635243.6014   20635249.2364
      1790.611        1395.281
  -1273223.683 9   -982390.46647  22891886.937    22891888.1854   22891893.6514
      1485.768        1157.741
 96 11 12 16 38  0.0000000  0  7 17  3 23 21  9  1 31                0.000236617
   1755676.820 9   1357270.91547  22944721.834    22944723.0414   22944730.0004
     -2505.765       -1952.544
    422034.869 9    327348.98148  21689296.301    21689298.0064   21689303.4444
      -841.456        -655.680
    867016.284 9    671720.82648  22134254.926    22134256.2074   22134261.5014
     -1251.125        -974.903
   -452205.628 9   -348919.80148  20770186.255    20770187.5994   20770193.0224
       464.028         361.580
    -89249.337 9    -68161.45147  23742743.654    23742745.0804   23742750.8004
      -162.922        -126.952
  -1530887.903 9  -1017629.37749  20625074.449    20625075.6574   20625081.2734
      1771.867        1380.676
  -1317493.831 9  -1016886.68847  22883462.429    22883463.8304   22883469.3274
      1465.792        1142.176
 96 11 12 16 38 30.0000000  0  7 17  3 23 21  9  1 31                0.000228590
   1831006.758 9   1415969.48847  22959056.772    22959057.9644   22959064.8934
     -2515.640       -1960.239
    447567.934 9    347244.84948  21694155.204    21694156.8374   21694162.2934
      -860.049        -670.168
    904614.365 9    701018.01948  22141409.709    22141410.9144   22141416.2094
     -1254.743        -977.722
   -466004.862 9   -359672.45448  20767560.531    20767561.7554   20767567.1654
       456.558         355.759
    -84047.620 9    -64108.15847  23743733.537    23743734.8254   23743740.4544
      -183.097        -142.673
  -1583744.115 9  -1058816.02149  20615016.335    20615017.4604   20615023.0544
      1752.555        1365.627
  -1361156.205 9  -1050909.33247  22875153.912    22875155.1904   22875160.6534
      1445.872        1126.654
 96 11 12 16 39  0.0000000  0  7 17  3 23 21  9  1 31                0.000220559
   1906615.156 9   1474885.05247  22973444.866    22973445.8514   22973452.7624
     -2525.109       -1967.617
    473631.454 9    367554.05548  21699114.978    21699116.6094   21699122.0634
      -877.645        -683.879
    942300.476 9    730383.80448  22148581.124    22148582.3364   22148587.6424
     -1257.939        -980.212
   -479600.313 9   -370266.31948  20764973.400    20764974.6634   20764980.0514
       449.652         350.378
    -78257.550 9    -59596.40047  23744835.055    23744836.3684   23744842.0344
      -202.963        -158.153
  -1636052.029 9  -1099575.42048  20605062.363    20605063.6104   20605069.1944
      1734.730        1351.738
  -1404256.955 9  -1084494.33347  22866952.279    22866953.4424   22866958.8964
      1427.196        1112.101
 96 11 12 16 39 30.0000000  0  7 17  3 23 21  9  1 31                0.000212535
   1982515.058 9   1534027.74847  22987888.293    22987889.2184   22987896.1214
     -2534.772       -1975.147
    500239.593 9    388287.64248  21704178.462    21704179.9854   21704185.4684
      -896.132        -698.285
    980102.176 9    759839.65748  22155774.591    22155775.8144   22155781.0934
     -1261.846        -983.257
   -492980.351 9   -380692.32748  20762427.208    20762428.5204   20762433.9044
       442.658         344.928
    -71873.505 9    -54621.79147  23746049.783    23746051.3244   23746056.8944
      -222.099        -173.064
  -1687827.786 9  -1139920.15049  20595209.846    20595211.0284   20595216.6204
      1717.342        1338.188
  -1446792.489 9  -1117638.91447  22858857.971    22858859.2434   22858864.7474
      1408.803        1097.769
 96 11 12 16 40  0.0000000  0  7 17  3 23 21  9  1 31                0.000204508
   2058690.496 9   1593385.15147  23002383.863    23002384.9724   23002391.9474
     -2543.468       -1981.923
    527398.932 9    409450.74148  21709346.695    21709348.2434   21709353.7284
      -914.232        -712.389
   1017994.792 9    789366.35848  22162985.251    22162986.5684   22162991.8014
     -1264.027        -984.956
   -506164.757 9   -390965.89148  20759918.401    20759919.6304   20759924.9884
       436.360         340.021
    -64941.499 9    -49220.21547  23747369.249    23747370.7064   23747376.4044
      -239.904        -186.938
  -1739111.077 9  -1179881.13849  20585450.932    20585452.1514   20585457.7384
      1701.818        1326.092
  -1488803.351 9  -1150374.65147  22850863.526    22850864.8394   22850870.3374
      1391.936        1084.625
 96 11 12 16 40 30.0000000  0  7 17  3 23 21  9  1 31                0.000196473
   2135134.993 9   1652952.20847  23016930.845    23016931.9684   23016938.9244
     -2552.811       -1989.203
    555094.431 9    431031.63148  21714617.031    21714618.5724   21714624.0454
      -931.899        -726.155
   1055955.844 9    818946.38748  22170209.111    22170210.3754   22170215.6104
     -1266.721        -987.055
   -519158.039 9   -401090.53048  20757445.785    20757447.1124   20757452.4174
       430.115         335.155
    -57479.547 9    -43405.67647  23748789.563    23748790.7464   23748796.3234
      -257.449        -200.610
  -1789930.232 9  -1219480.46548  20575780.403    20575781.5844   20575787.2024
      1686.161        1313.892
  -1530303.875 9  -1182712.74347  22842966.247    22842967.5964   22842973.0674
      1374.812        1071.282
 96 11 12 16 41  0.0000000  0  7 17  3 23 21  9  1 31                0.000188432
   2211854.917 9   1712733.88747  23031530.103    23031531.3914   23031538.3694
     -2561.845       -1996.243
    583312.899 9    453020.02148  21719986.949    21719988.3894   21719993.8924
      -949.420        -739.808
   1093996.079 9    848588.10848  22177447.998    22177449.2454   22177454.4394
     -1269.380        -989.127
   -531974.836 9   -411077.65648  20755006.881    20755008.1914   20755013.4564
       424.184         330.533
    -49506.974 9    -37193.27447  23750306.574    23750307.6424   23750313.4734
      -274.025        -213.526
  -1840293.734 9  -1258724.73848  20566196.551    20566197.7434   20566203.3364
      1671.364        1302.361
  -1571293.823 9  -1214652.96147  22835166.291    22835167.5344   22835173.0084
      1357.559        1057.838
 96 11 12 16 41 30.0000000  0  7 17  3 23 21  9  1 31                0.000180387
   2288845.728 9   1772726.64147  23046181.126    23046182.3324   23046189.3324
     -2570.591       -2003.058
    612060.036 9    475420.36748  21725457.425    21725458.8294   21725464.3064
      -966.624        -753.214
   1132115.934 9    878291.87748  22184702.106    22184703.2774   22184708.4554
     -1271.548        -990.817
   -544607.759 9   -420921.49748  20752603.082    20752604.2634   20752609.5244
       418.336         325.976
    -41038.300 9    -30594.26647  23751917.755    23751918.9884   23751924.6144
      -290.212        -226.139
  -1890202.107 9  -1297614.36348  20556699.342    20556700.5054   20556706.0854
      1656.016        1290.402
  -1611755.141 9  -1246181.27547  22827466.955    22827468.0844   22827473.4114
      1339.964        1044.128
 96 11 12 16 42  0.0000000  0  7 17  3 23 21  9  1 31                0.000172320
   2366083.180 9   1832911.58747  23060879.042    23060880.2334   23060887.1934
     -2578.088       -2008.900
    641296.491 9    498201.99748  21731020.999    21731022.3694   21731027.8304
      -981.942        -765.150
   1170289.114 9    908037.19648  22191966.127    22191967.4544   22191972.5904
     -1272.879        -991.854
   -557072.957 9   -430634.64248  20750231.097    20750232.2674   20750237.4864
       413.041         321.850
    -32088.336 9    -23620.23247  23753620.939    23753622.1054   23753627.5694
      -305.991        -238.435
  -1939648.948 9  -1336144.35248  20547289.861    20547291.0864   20547296.6744
      1640.682        1278.454
  -1651683.623 9  -1277294.37947  22819868.773    22819869.9304   22819875.2874
      1322.196        1030.283
 96 11 12 16 42 30.0000000  0  7 17  3 23 21  9  1 31                0.000164213
   2443542.854 9   1893269.70147  23075619.381    23075620.4114   23075627.4114
     -2585.826       -2014.929
    670989.380 9    521339.29448  21736671.482    21736672.7774   21736678.2594
      -997.675        -777.409
   1208508.931 9    937818.86048  22199239.227    22199240.4674   22199245.5834
     -1275.170        -993.639
   -569383.552 9   -440227.31848  20747888.497    20747889.6554   20747894.8854
       407.598         317.609
    -22675.628 9    -16285.60347  23755412.281    23755413.4324   23755418.7534
      -321.699        -250.675
  -1988624.913 9  -1374307.42648  20537970.031    20537971.2954   20537976.8714
      1624.312        1265.698
  -1691071.898 9  -1307986.55347  22812373.302    22812374.5884   22812380.0304
      1303.581        1015.777
 96 11 12 16 43  0.0000000  0  7 17  3 23 21  9  1 31                0.000156067
   2521210.700 9   1953790.02047  23090399.087    23090400.1914   23090407.2044
     -2591.843       -2019.618
    701151.352 9    544842.11048  21742411.056    21742412.4514   21742417.9234
     -1012.903        -789.275
   1246789.113 9    967647.55248  22206523.843    22206525.0084   22206530.0984
     -1276.588        -994.744
   -581531.973 9   -449693.62248  20745576.900    20745577.9084   20745583.1404
       402.452         313.599
    -12794.769 9     -8586.21947  23757292.501    23757293.7144   23757299.3564
      -336.997        -262.595
  -2037121.864 9  -1412097.24848  20528741.412    20528742.6434   20528748.2094
      1608.933        1253.714
  -1729903.087 9  -1338244.62047  22804983.989    22804985.2424   22804990.7774
      1285.194        1001.450
 96 11 12 16 43 30.0000000  0  7 17  3 23 21  9  1 31                0.000147874
   2599063.546 9   2014454.49947  23105214.097    23105215.1864   23105222.1544
     -2598.673       -2024.940
    731764.281 9    568696.31948  21748236.580    21748237.9234   21748243.4004
     -1028.205        -801.199
   1285113.386 9    997510.61048  22213816.685    22213817.9024   22213822.9854
     -1278.627        -996.333
   -593526.415 9   -459039.94148  20743294.384    20743295.4734   20743300.6954
       397.013         309.361
     -2441.225 9      -518.49447  23759262.975    23759263.9634   23759269.6804
      -353.443        -275.410
  -2085143.269 9  -1449516.50848  20519603.263    20519604.4954   20519610.0504
      1592.316        1240.766
  -1768184.526 9  -1368074.32047  22797699.410    22797700.5884   22797706.0234
      1266.630         986.984
 96 11 12 16 44  0.0000000  0  8 25 17  3 23 21  9  1 31             0.000139643
  -1678167.91518  -1289307.45055  25351054.146    25351055.6005   25351063.3445
      3567.727        2780.047
   2677126.101 9   2075282.37947  23120068.967    23120070.0964   23120077.0774
     -2605.551       -2030.299
    762841.660 9    592912.44348  21754150.478    21754151.7684   21754157.2624
     -1043.703        -813.275
   1323511.249 9   1027431.01248  22221123.581    22221124.8004   22221129.8614
     -1281.214        -998.349
   -605358.735 9   -468259.94248  20741042.922    20741043.8844   20741049.0984
       391.714         305.232
      8405.359 9      7933.42247  23761326.950    23761328.0504   23761333.6364
      -369.681        -288.063
  -2132665.237 9  -1486546.60048  20510560.123    20510561.3734   20510566.9234
      1575.989        1228.043
  -1805911.570 9  -1397472.01947  22790520.074    22790521.3694   22790526.9134
      1248.735         973.040
 96 11 12 16 44 30.0000000  0  8 25 17  3 23 21  9  1 31             0.000131376
  -1785314.462 8  -1372798.25145  25330664.177    25330666.3124   25330674.1694
      3576.017        2786.507
   2755397.110 9   2136272.70547  23134963.410    23134964.6814   23134971.6604
     -2611.852       -2035.209
    794392.760 9    617497.68848  21760154.427    21760155.7704   21760161.2624
     -1059.036        -825.223
   1361984.438 9   1057410.09348  22228444.875    22228446.0314   22228451.1094
     -1283.040        -999.771
   -617034.233 9   -477357.74348  20738821.118    20738822.1384   20738827.3504
       387.254         301.756
     19744.529 9     16769.20147  23763484.574    23763485.7684   23763490.9674
      -385.667        -300.520
  -2179710.225 9  -1523205.02348  20501607.770    20501608.9884   20501614.5384
      1561.156        1216.485
  -1843114.630 9  -1426461.42347  22783440.615    22783441.8814   22783447.3504
      1232.174         960.136
 96 11 12 16 45  0.0000000  0  8 25 17  3 23 21  9  1 31             0.000123067
  -1892711.928 8  -1456484.61045  25310227.510    25310229.1734   25310237.0994
      3583.546        2792.374
   2833854.771 9   2197408.46247  23149893.500    23149894.7904   23149901.7414
     -2619.077       -2040.839
    826394.051 9    642433.74048  21766243.983    21766245.4444   21766250.9544
     -1074.549        -837.311
   1400511.917 9   1087431.48848  22235776.620    22235777.6214   22235782.6774
     -1285.640       -1001.797
   -628574.995 9   -486350.55148  20736624.986    20736626.0074   20736631.2124
       381.929         297.607
     31561.643 9     25977.36047  23765733.382    23765734.4134   23765739.6314
      -402.248        -313.440
  -2226322.246 9  -1559526.06748  20492737.804    20492739.0164   20492744.5604
      1546.110        1204.761
  -1879829.050 9  -1455070.08847  22776454.308    22776455.4474   22776460.7784
      1215.248         946.946
 96 11 12 16 45 30.0000000  0  8 25 17  3 23 21  9  1 31             0.000114730
  -2000326.334 8  -1540339.96146  25289749.088    25289750.8154   25289758.7844
      3591.084        2798.247
   2912552.763 9   2258731.49047  23164869.180    23164870.6384   23164877.5304
     -2626.996       -2047.010
    858864.190 9    667735.12848  21772422.917    21772424.3444   21772429.8594
     -1089.851        -849.235
   1439124.502 9   1117519.19448  22243124.467    22243125.3754   22243130.4764
     -1288.057       -1003.681
   -639951.998 9   -495215.75348  20734459.988    20734461.0544   20734466.2584
       376.891         293.681
     43878.422 9     35574.86547  23768076.838    23768078.0384   23768083.5864
      -418.454        -326.068
  -2272472.864 9  -1595487.57848  20483955.682    20483956.8464   20483962.3734
      1531.110        1193.073
  -1916042.226 9  -1483288.16447  22769563.242    22769564.3214   22769569.6734
      1199.233         934.467
 96 11 12 16 46  0.0000000  0  8 25 17  3 23 21  9  1 31             0.000106374
  -2108153.236 8  -1624360.88845  25269230.095    25269232.0394   25269239.9444
      3597.491        2803.240
   2991497.607 9   2320246.87147  23179892.167    23179893.4034   23179900.3704
     -2635.610       -2053.722
    891816.500 9    693412.23048  21778693.565    21778695.0314   21778700.5404
     -1106.688        -862.354
   1477822.870 9   1147673.74248  22250488.560    22250489.4414   22250494.5594
     -1291.432       -1006.311
   -651154.196 9   -503944.75248  20732328.265    20732329.3814   20732334.5624
       370.237         288.496
     56702.037 9     45567.30047  23770517.326    23770518.4074   23770524.0624
      -436.284        -339.962
  -2318166.057 9  -1631092.65848  20475260.478    20475261.7544   20475267.2554
      1515.439        1180.861
  -1951756.409 9  -1511117.41047  22762767.069    22762768.1984   22762773.5234
      1181.927         920.982
 96 11 12 16 46 30.0000000  0  8 25 17  3 23 21  9  1 31             0.000098011
  -2216165.263 9  -1708526.03945  25248676.215    25248678.0374   25248685.8704
      3603.535        2807.949
   3070692.824 9   2381957.35747  23194962.274    23194963.7984   23194970.7954
     -2643.551       -2059.910
    925271.012 9    719480.65948  21785059.899    21785061.2784   21785066.7564
     -1123.122        -875.160
   1516608.762 9   1177896.49248  22257869.413    22257870.1864   22257875.3134
     -1293.934       -1008.260
   -662162.367 9   -512522.56148  20730233.502    20730234.5944   20730239.7904
       364.145         283.749
     70067.957 9     55982.33247  23773060.828    23773061.9924   23773067.4544
      -454.301        -354.001
  -2363391.455 9  -1666333.21548  20466654.398    20466655.6564   20466661.1684
      1499.977        1168.813
  -1986951.981 9  -1538542.55547  22756069.713    22756070.8254   22756076.0244
      1164.691         907.551
 96 11 12 16 47  0.0000000  0  8 25 17  3 23 21  9  1 31             0.000089627
  -2324359.908 9  -1792833.48945  25228087.862    25228089.2124   25228097.0924
      3609.504        2812.601
   3150108.203 9   2443839.38747  23210074.777    23210076.1004   23210083.0934
     -2650.714       -2065.491
    959193.551 9    745913.78848  21791515.273    21791516.5294   21791521.9844
     -1138.275        -886.968
   1555450.625 9   1208162.86048  22265260.769    22265261.5884   22265266.7524
     -1295.298       -1009.323
   -673007.599 9   -520973.40148  20728169.734    20728170.8334   20728176.0344
       359.197         279.894
     83954.433 9     66802.96647  23775703.517    23775704.5114   23775709.8684
      -471.368        -367.300
  -2408167.797 9  -1701223.86048  20458133.715    20458135.0054   20458140.4994
      1485.203        1157.301
  -2021647.447 9  -1565577.98547  22749467.106    22749468.3994   22749473.7714
      1148.369         894.833
 96 11 12 16 47 30.0000000  0  8 25 17  3 23 21  9  1 31             0.000081220
  -2432726.930 8  -1877275.24546  25207466.012    25207467.7834   25207475.5664
      3614.647        2816.608
   3229732.046 9   2505883.86546  23225226.883    23225228.0764   23225235.1294
     -2657.639       -2070.888
    993578.819 9    772707.48348  21798058.549    21798059.8424   21798065.2994
     -1154.231        -899.401
   1594322.647 9   1238452.72748  22272657.811    22272658.6874   22272663.8944
     -1296.457       -1010.226
   -683708.854 9   -529312.05448  20726133.269    20726134.4614   20726139.6524
       354.121         275.938
     98364.840 9     78031.86447  23778445.534    23778446.5274   23778451.9604
      -489.490        -381.421
  -2452500.263 9  -1735768.63348  20449697.610    20449698.8234   20449704.2984
      1469.998        1145.453
  -2055851.100 9  -1592230.20747  22742958.621    22742959.7384   22742965.0584
      1131.416         881.623
 96 11 12 16 48  0.0000000  0  8 25 17  3 23 21  9  1 31             0.000072805
  -2541233.771 9  -1961825.93445  25186818.016    25186819.5524   25186827.3474
      3618.751        2819.806
   3309562.530 9   2568089.35647  23240417.824    23240419.3734   23240426.4814
     -2664.862       -2076.516
   1028442.569 9    799874.02048  21804692.810    21804694.2084   21804699.6284
     -1170.240        -911.875
   1633232.196 9   1268771.82348  22280062.055    22280062.9894   22280068.1774
     -1298.020       -1011.444
   -694252.951 9   -537528.24848  20724126.868    20724128.0054   20724133.2054
       348.562         271.607
    113326.812 9     89690.53347  23781292.381    23781293.6334   23781299.0304
      -508.114        -395.933
  -2496367.887 9  -1769951.19048  20441349.852    20441351.0864   20441356.5724
      1454.024        1133.006
  -2089525.427 9  -1618469.94947  22736550.769    22736551.7574   22736557.1154
      1113.080         867.335
 96 11 12 16 48 30.0000000  0  8 25 17  3 23 21  9  1 31             0.000064384
  -2649863.286 8  -2046472.22145  25166146.475    25166147.9444   25166155.7854
      3622.468        2822.702
   3389614.283 9   2630467.25746  23255651.752    23255652.7664   23255659.9324
     -2672.774       -2082.681
   1063768.352 9    827400.58548  21811415.189    21811416.5264   21811421.9214
     -1185.607        -923.850
   1672181.831 9   1299122.16448  22287473.941    22287474.8774   22287480.1164
     -1299.426       -1012.540
   -704647.255 9   -545627.71848  20722148.949    20722150.0604   20722155.2394
       343.480         267.647
    128820.765 9    101763.72947  23784240.811    23784242.1464   23784247.6254
      -525.530        -409.504
  -2539758.835 9  -1803762.31248  20433092.826    20433094.0844   20433099.5584
      1437.878        1120.424
  -2122651.834 9  -1644282.74147  22730246.960    22730247.9704   22730253.4694
      1094.403         852.782
 96 11 12 16 49  0.0000000  0  8 25 17  3 23 21  9  1 31             0.000055957
  -2758604.092 8  -2131205.19745  25145453.270    25145455.2664   25145462.9344
      3626.995        2826.230
   3469913.089 9   2693037.68546  23270932.289    23270933.2444   23270940.4394
     -2680.650       -2088.818
   1099555.118 9    855286.35348  21818225.202    21818226.5784   21818231.9664
     -1200.387        -935.366
   1711177.247 9   1329508.17048  22294894.539    22294895.4514   22294900.7474
     -1300.461       -1013.346
   -714876.636 9   -553598.68148  20720202.418    20720203.4954   20720208.6844
       338.277         263.592
    144828.492 9    114237.25747  23787287.343    23787288.3934   23787293.8474
      -541.758        -422.149
  -2582663.189 9  -1837194.26748  20424928.463    20424929.6824   20424935.1354
      1422.188        1108.198
  -2155208.367 9  -1669651.47747  22724051.417    22724052.6044   22724058.1284
      1075.716         838.220
 96 11 12 16 49 30.0000000  0  8 25 17  3 23 21  9  1 31             0.000047518
  -2867485.459 9  -2216047.72546  25124733.631    25124735.8144   25124743.4254
      3631.669        2829.872
   3550449.775 9   2755793.45946  23286257.782    23286258.9284   23286266.1574
     -2688.558       -2094.980
   1135783.970 9    883516.60848  21825119.316    21825120.7214   21825126.1144
     -1214.966        -946.727
   1750212.116 9   1359924.92348  22302322.568    22302323.5954   22302328.9054
     -1302.110       -1014.631
   -724950.797 9   -561448.68948  20718285.355    20718286.4614   20718291.6524
       333.027         259.502
    161314.289 9    127083.31147  23790424.579    23790425.3994   23790430.9804
      -557.362        -434.308
  -2625096.206 9  -1870258.95148  20416853.764    20416854.9654   20416860.3934
      1406.411        1095.905
  -2187196.164 9  -1694577.05947  22717964.772    22717965.6774   22717971.0224
      1056.633         823.350
 96 11 12 16 50  0.0000000  0  8 25 17  3 23 21  9  1 31             0.000039054
  -2976517.964 8  -2301008.05045  25103985.928    25103987.5574   25103995.2644
      3636.906        2833.953
   3631224.297 9   2818734.56646  23301628.837    23301629.8464   23301637.0974
     -2696.786       -2101.392
   1172445.754 9    912084.20848  21832095.921    21832097.2734   21832102.6714
     -1229.757        -958.252
   1789305.967 9   1390387.63348  22309762.102    22309762.9484   22309768.2134
     -1304.578       -1016.554
   -734859.125 9   -569169.47648  20716399.852    20716400.9944   20716406.1864
       327.010         254.813
    178256.438 9    140284.94446  23793648.053    23793649.0904   23793654.9114
      -572.605        -446.186
  -2667047.437 9  -1902948.21248  20408870.750    20408871.9324   20408877.3404
      1389.972        1083.095
  -2218610.589 9  -1719055.82747  22711986.682    22711987.7034   22711993.0954
      1037.247         808.244
 96 11 12 16 50 30.0000000  0  8 25 17  3 23 21  9  1 31             0.000030570
  -3085713.010 9  -2386094.99246  25083206.799    25083208.2454   25083216.0624
      3642.944        2838.658
   3712243.670 9   2881866.44946  23317046.350    23317047.3844   23317054.5974
     -2704.243       -2107.202
   1209560.089 9    941004.44648  21839158.541    21839159.9414   21839165.3304
     -1244.587        -969.808
   1828483.708 9   1420915.70848  22317217.253    22317218.2684   22317223.5664
     -1307.203       -1018.600
   -744582.937 9   -576746.48548  20714549.391    20714550.6504   20714555.8304
       321.200         250.286
    195663.248 9    153848.66047  23796960.344    23796961.5984   23796967.3474
      -587.948        -458.141
  -2708507.657 9  -1935254.87148  20400981.180    20400982.3164   20400987.7494
      1374.009        1070.656
  -2249455.424 9  -1743090.78947  22706117.028    22706118.1474   22706123.5504
      1019.056         794.070
 96 11 12 16 51  0.0000000  0  8 25 17  3 23 21  9  1 31             0.000022066
  -3195082.260 9  -2471317.72146  25062394.020    25062395.9584   25062403.7154
      3648.644        2843.099
   3793489.490 9   2945174.81646  23332506.904    23332508.0864   23332515.2854
     -2711.787       -2113.081
   1247135.988 9    970284.34848  21846308.948    21846310.4264   21846315.7814
     -1260.130        -981.919
   1867764.992 9   1451524.46548  22324692.301    22324693.3144   22324698.5574
     -1311.274       -1021.772
   -754116.291 9   -584175.08348  20712735.353    20712736.5504   20712741.7164
       314.681         245.206
    213561.299 9    167795.16047  23800366.786    23800367.7854   23800373.4164
      -604.994        -471.424
  -2749472.129 9  -1967175.23248  20393185.980    20393187.0614   20393192.4894
      1357.176        1057.540
  -2279739.871 9  -1766689.07647  22700354.025    22700355.1554   22700360.7264
      1000.269         779.430
 96 11 12 16 51 30.0000000  0  8 25 17  3 23 21  9  1 31             0.000013535
  -3304635.602 9  -2556683.88846  25041547.028    25041548.7234   25041556.3584
      3654.608        2847.746
   3874942.548 9   3008644.64746  23348007.115    23348008.1244   23348015.3424
     -2718.616       -2118.402
   1285160.685 9    999913.95648  21853544.810    21853546.2634   21853551.6904
     -1275.183        -993.649
   1907155.458 9   1482218.30548  22332188.143    22332189.0894   22332194.3524
     -1314.797       -1024.517
   -763469.360 9   -591463.19848  20710955.679    20710956.7494   20710961.8854
       308.593         240.462
    231964.248 9    182135.06647  23803868.841    23803869.8044   23803875.4574
      -622.189        -484.823
  -2789942.305 9  -1998710.42948  20385484.784    20385485.8724   20385491.2714
      1340.548        1044.583
  -2309485.919 9  -1789867.82547  22694693.764    22694694.7684   22694700.1874
       982.570         765.639
 96 11 12 16 52  0.0000000  0  8 25 17  3 23 21  9  1 31             0.000004978
  -3414355.274 9  -2642179.68646  25020668.097    25020669.7844   25020677.3304
      3660.309        2852.189
   3956612.187 9   3072283.24446  23363548.152    23363549.3364   23363556.6734
     -2725.682       -2123.908
   1323652.289 9   1029907.38248  21860869.645    21860870.9684   21860876.4374
     -1290.533       -1005.610
   1946653.337 9   1512995.83448  22339704.441    22339705.3244   22339710.5964
     -1317.884       -1026.923
   -772625.524 9   -598597.88248  20709213.392    20709214.4534   20709219.5434
       302.439         235.667
    250901.764 9    196891.51947  23807472.227    23807473.4754   23807479.1314
      -639.925        -498.643
  -2829895.283 9  -2029842.61448  20377881.995    20377883.0744   20377888.4584
      1323.598        1031.375
  -2338689.682 9  -1812624.01847  22689136.475    22689137.4764   22689142.9474
       964.780         751.777
 96 11 12 16 52 30.0000000  0  8 25 17  3 23 21  9  1 31            -0.000003591
  -3524224.605 9  -2727792.08146  24999760.643    24999762.2574   24999769.9004
      3664.729        2855.633
   4038504.151 9   3136095.07346  23379131.729    23379132.9734   23379140.3644
     -2733.399       -2129.921
   1362609.644 9   1060263.72848  21868282.869    21868284.3104   21868289.8024
     -1306.125       -1017.760
   1986248.015 9   1543848.79648  22347239.116    22347240.0084   22347245.2204
     -1321.145       -1029.464
   -781599.694 9   -605590.75248  20707505.616    20707506.7464   20707511.8244
       296.360         230.930
    270385.298 9    212073.44046  23811179.842    23811181.0514   23811186.5824
      -658.282        -512.947
  -2869337.049 9  -2060576.45348  20370376.499    20370377.5634   20370382.9434
      1306.379        1017.958
  -2367354.416 9  -1834960.19047  22683682.016    22683682.8264   22683688.3214
       946.598         737.609
 96 11 12 16 52 59.9990000  0  8 25 17  3 23 21  9  1 31            -0.000012173
  -3634216.046 8  -2813499.68046  24978830.032    24978831.4374   24978839.1584
      3667.994        2858.177
   4120621.056 9   3200082.19546  23394757.987    23394759.3724   23394766.7534
     -2741.568       -2136.287
   1402025.175 9   1090977.09648  21875783.501    21875784.8394   21875790.3864
     -1321.869       -1030.028
   2025923.100 9   1574764.42148  22354789.125    22354789.9604   22354795.2064
     -1323.940       -1031.641
   -790398.500 9   -612446.97048  20705831.444    20705832.4234   20705837.4944
       289.995         225.970
    290402.481 9    227671.22047  23814989.058    23814990.3624   23814995.5994
      -676.320        -527.003
  -2908271.066 9  -2090914.63848  20362967.617    20362968.7004   20362974.0574
      1289.120        1004.509
  -2395476.030 9  -1856873.15347  22678330.798    22678331.5554   22678336.9894
       927.980         723.101
 96 11 12 16 53 29.9990000  0  8 25 17  3 23 21  9  1 31            -0.000020763
  -3744308.251 8  -2899285.76746  24957879.796    24957881.6784   24957889.2434
      3672.147        2861.413
   4202986.379 9   3264262.87246  23410431.940    23410433.0424   23410440.4304
     -2748.578       -2141.749
   1441916.346 9   1122061.09448  21883374.592    21883375.9204   21883381.4504
     -1336.915       -1041.752
   2065665.922 9   1605732.81348  22362351.887    22362352.7944   22362358.0604
     -1324.803       -1032.314
   -799002.063 9   -619151.04948  20704194.203    20704195.2444   20704200.2974
       284.450         221.649
    310948.179 9    243680.82647  23818898.919    23818900.2104   23818905.4944
      -692.602        -539.690
  -2946696.632 9  -2120856.63848  20355655.551    20355656.5714   20355661.9334
      1273.460         992.306
  -2423042.944 9  -1878353.87047  22673084.974    22673085.7354   22673091.2434
       910.358         709.370
 96 11 12 16 53 59.9990000  0  8 25 17  3 23 21  9  1 31            -0.000029366
  -3854513.014 9  -2985159.58746  24936908.596    24936910.3054   24936917.8654
      3675.264        2863.842
   4285558.099 9   3328604.38046  23426144.756    23426145.9864   23426153.4154
     -2755.915       -2147.466
   1482266.713 9   1153502.90648  21891052.968    21891054.3694   21891059.9244
     -1352.674       -1054.032
   2105446.754 9   1636730.83148  22369921.875    22369922.8454   22369928.0874
     -1327.049       -1034.064
   -807443.970 9   -625729.16948  20702587.772    20702588.8164   20702593.8554
       278.677         217.151
    331988.327 9    260075.69447  23822902.484    23822904.0124   23822909.5884
      -709.650        -552.974
  -2984652.791 9  -2150432.85948  20348432.665    20348433.7614   20348439.1074
      1257.363         979.763
  -2450062.393 9  -1899408.00347  22667943.226    22667944.1044   22667949.6154
       891.250         694.481
 96 11 12 16 54 29.9990000  0  8 25 17  3 23 21  9  1 31            -0.000037972
  -3964823.038 9  -3071115.41446  24915917.169    24915919.0054   24915926.5624
      3679.130        2866.854
   4368339.653 9   3393109.39146  23441897.713    23441898.8524   23441906.3194
     -2762.600       -2152.675
   1523079.295 9   1185304.88148  21898819.384    21898820.7784   21898826.3244
     -1367.901       -1065.897
   2145294.080 9   1667780.65648  22377504.584    22377505.5504   22377510.8284
     -1329.244       -1035.774
   -815715.927 9   -632174.85648  20701013.702    20701014.7434   20701019.7764
       272.802         212.573
    353525.632 9    276857.95846  23827000.686    23827002.3404   23827007.9254
      -725.841        -565.590
  -3022136.721 9  -2179641.11348  20341299.669    20341300.8204   20341306.1494
      1241.589         967.472
  -2476521.481 9  -1920025.49447  22662908.179    22662909.0754   22662914.5944
       872.721         680.042
 96 11 12 16 54 59.9990000  0  8 25 17  3 23 21  9  1 31            -0.000046591
  -4075254.342 9  -3157165.75346  24894903.022    24894904.5784   24894912.0784
      3683.228        2870.048
   4451318.934 9   3457768.47946  23457688.156    23457689.3634   23457696.8034
     -2769.267       -2157.870
   1564345.526 9   1217460.35548  21906672.046    21906673.5224   21906679.0454
     -1383.022       -1077.679
   2185212.579 9   1698885.94848  22385100.856    22385101.8324   22385107.0474
     -1331.903       -1037.846
   -823802.073 9   -638475.75548  20699474.956    20699476.0024   20699481.0364
       266.410         207.592
    375546.666 9    294017.24747  23831191.518    23831193.0654   23831198.1904
      -742.295        -578.412
  -3059144.072 9  -2208478.00848  20334257.444    20334258.5594   20334263.9084
      1225.643         955.046
  -2502416.239 9  -1940203.25347  22657980.723    22657981.5364   22657986.9544
       853.715         665.232
 96 11 12 16 55 29.9990000  0  8 25 17  3 23 21  9  1 31            -0.000055216
  -4185823.140 9  -3243323.23946  24873862.693    24873864.0294   24873871.5684
      3687.481        2873.362
   4534501.237 9   3522585.77646  23473517.393    23473518.4854   23473525.9974
     -2776.680       -2163.647
   1606063.314 9   1249967.69548  21914610.765    21914612.1994   21914617.7124
     -1398.735       -1089.923
   2225223.518 9   1730063.27148  22392714.710    22392715.6984   22392720.9204
     -1336.082       -1041.103
   -831700.953 9   -644630.73548  20697971.820    20697972.8554   20697977.9044
       259.722         202.381
    398063.723 9    311562.99847  23835476.541    23835477.9974   23835483.1434
      -759.465        -591.791
  -3095671.882 9  -2236941.23248  20327306.463    20327307.5574   20327312.9074
      1208.999         942.077
  -2527737.608 9  -1959934.18847  22653161.908    22653162.9674   22653168.4474
       833.811         649.723
 96 11 12 16 55 59.9990000  0  8 25 17  3 23 21  9  1 31            -0.000063846
  -4296548.661 8  -3329602.86046  24852792.101    24852793.6534   24852801.2534
      3693.584        2878.117
   4617885.545 9   3587560.46146  23489384.954    23489386.0714   23489393.6194
     -2783.039       -2168.602
   1648222.699 9   1282819.12348  21922633.458    21922634.9024   21922640.4754
     -1412.357       -1100.538
   2265341.443 9   1761323.96048  22400348.787    22400349.8554   22400355.1554
     -1339.010       -1043.384
   -839429.047 9   -650652.63548  20696501.316    20696502.2284   20696507.3144
       254.780         198.530
    421078.303 9    329496.42346  23839855.935    23839857.4534   23839862.7534
      -775.311        -604.138
  -3131713.030 9  -2265025.24348  20320448.062    20320449.1524   20320454.4924
      1192.943         929.566
  -2552487.632 9  -1979219.94747  22648452.072    22648453.1554   22648458.7004
       815.657         635.577
 96 11 12 16 56 29.9990000  0  8 25 17  3 23 21  9  1 31            -0.000072503
  -4407449.531 8  -3416019.09546  24831688.254    24831689.9394   24831697.6094
      3699.806        2882.966
   4701476.308 9   3652696.02546  23505291.758    23505292.9404   23505300.5144
     -2789.360       -2173.527
   1690792.289 9   1315990.20048  21930734.426    21930735.6824   21930741.2664
     -1425.531       -1110.803
   2305545.008 9   1792651.37948  22407999.265    22408000.3264   22408005.6394
     -1340.927       -1044.878
   -846997.121 9   -656549.84848  20695061.063    20695062.0644   20695067.1744
       249.830         194.673
    444571.081 9    347802.48246  23844326.663    23844327.9694   23844333.3934
      -790.736        -616.158
  -3167254.197 9  -2292719.66148  20313684.774    20313685.8884   20313691.2144
      1176.733         916.935
  -2576694.850 9  -1998082.73347  22643846.074    22643846.7654   22643852.2704
       798.088         621.887
 96 11 12 16 56 59.9990000  0  8 25 17  3 23 21  9  1 31            -0.000081206
  -4518534.381 9  -3502578.69146  24810549.077    24810551.0554   24810558.7744
      3705.874        2887.694
   4785249.207 9   3717973.53046  23521233.181    23521234.4284   23521242.0504
     -2795.305       -2178.160
   1733749.785 9   1349463.54648  21938908.984    21938910.2424   21938915.8504
     -1438.270       -1120.730
   2345792.450 9   1824012.98848  22415658.030    22415659.1874   22415664.5274
     -1342.022       -1045.731
   -854423.260 9   -662336.46148  20693647.980    20693648.9224   20693654.0414
       245.433         191.246
    468523.912 9    366467.02746  23848884.634    23848886.0324   23848891.5214
      -806.067        -628.104
  -3202325.877 9  -2320048.24148  20307010.742    20307011.9924   20307017.2964
      1161.612         905.152
  -2600377.863 9  -2016537.04647  22639338.985    22639340.0784   22639345.5664
       780.868         608.469
 96 11 12 16 57 29.9990000  0  8 25 17  3 23 21  9  1 31            -0.000089925
  -4629761.077 8  -3589248.84246  24789383.762    24789385.4304   24789392.9334
      3709.687        2890.665
   4869229.147 9   3783412.35146  23537214.452    23537215.3214   23537223.0404
     -2802.726       -2183.942
   1777126.424 9   1383263.49248  21947163.263    21947164.5734   21947170.2284
     -1452.828       -1132.074
   2386096.785 9   1855418.92748  22423327.791    22423328.9034   22423334.2354
     -1344.241       -1047.461
   -861686.431 9   -667996.08848  20692265.871    20692266.8034   20692271.9414
       239.362         186.516
    492970.336 9    385516.20346  23853536.683    23853538.0774   23853543.3274
      -823.089        -641.368
  -3236912.809 9  -2346999.09848  20300429.195    20300430.3574   20300435.6404
      1144.727         891.995
  -2623510.025 9  -2034562.12347  22634937.107    22634938.0884   22634943.6604
       761.877         593.670
 96 11 12 16 57 59.9990000  0  8 25 17  3 23 21  9  1 31            -0.000098667
  -4741095.965 9  -3676003.26346  24768198.288    24768199.1814   24768206.6254
      3712.782        2893.077
   4953422.594 9   3849017.54446  23553235.914    23553236.8424   23553244.6244
     -2809.990       -2189.602
   1820921.237 9   1417389.29248  21955497.083    21955498.4884   21955504.1454
     -1466.714       -1142.894
   2426453.348 9   1886865.56948  22431007.490    22431008.5434   22431013.8774
     -1346.022       -1048.848
   -868775.811 9   -673520.29148  20690916.680    20690917.7714   20690922.8994
       233.280         181.777
    517923.976 9    404960.61247  23858285.367    23858286.7664   23858291.9574
      -840.352        -654.820
  -3270998.857 9  -2373559.65048  20293942.885    20293944.0134   20293949.3034
      1127.896         878.880
  -2646087.158 9  -2052154.72347  22630640.649    22630641.8704   22630647.3354
       743.349         579.233
 96 11 12 16 58 29.9990000  0  8 25 17  3 23 21  9  1 31            -0.000107446
  -4852493.856 8  -3762806.83346  24746999.962    24747000.8514   24747008.3674
      3714.432        2894.363
   5037842.226 9   3914798.98546  23569300.440    23569301.4714   23569309.2034
     -2817.468       -2195.430
   1865160.590 9   1451861.48548  21963915.628    21963916.9884   21963922.6154
     -1482.182       -1154.947
   2466879.814 9   1918366.67648  22438700.632    22438701.4974   22438706.8304
     -1348.568       -1050.832
   -875649.873 9   -678876.71548  20689608.613    20689609.6904   20689614.8194
       225.529         175.737
    543416.267 9    424824.74146  23863136.172    23863137.7604   23863143.0944
      -858.572        -669.017
  -3304574.286 9  -2399722.32448  20287553.782    20287554.8084   20287560.1124
      1111.194         865.865
  -2668087.143 9  -2069297.59747  22626454.422    22626455.4174   22626460.8294
       723.786         563.989
 96 11 12 16 58 59.9990000  0  8 25 17  3 23 21  9  1 31            -0.000116188
  -4963953.192 8  -3849658.25145  24725789.767    24725790.8254   24725798.3644
      3716.716        2896.142
   5122481.027 9   3980751.20846  23585406.959    23585407.8094   23585415.5104
     -2824.774       -2201.122
   1909850.367 9   1486684.66748  21972419.986    21972421.2134   21972426.8284
     -1496.655       -1166.225
   2507372.447 9   1949919.35348  22446406.146    22446407.0374   22446412.3434
     -1350.722       -1052.511
   -882309.730 9   -684066.22348  20688341.299    20688342.3954   20688347.4984
       218.908         170.578
    569439.065 9    445102.21946  23868088.158    23868089.6634   23868095.1004
      -875.880        -682.504
  -3337668.254 9  -2425509.82948  20281256.265    20281257.2824   20281262.5544
      1095.388         853.549
  -2689520.123 9  -2085998.63647  22622375.506    22622376.8704   22622382.3284
       705.500         549.740
 96 11 12 16 59 29.9990000  0  8 25 17  3 23 21  9  1 31            -0.000124922
  -5075469.143 8  -3936553.76546  24704568.626    24704569.9314   24704577.6944
      3718.944        2897.878
   5207360.781 9   4046891.18546  23601559.147    23601559.9574   23601567.6674
     -2832.644       -2207.255
   1954986.948 9   1521856.00848  21981009.329    21981010.4774   21981016.0614
     -1511.219       -1177.573
   2547950.788 9   1981538.81047  22454127.850    22454128.8904   22454134.1974
     -1353.429       -1054.620
   -888755.350 9   -689088.80548  20687114.766    20687115.8704   20687120.9614
       211.982         165.181
    595998.554 9    465797.91346  23873142.078    23873143.7414   23873149.1394
      -893.562        -696.282
  -3370264.467 9  -2450909.47348  20275053.406    20275054.4524   20275059.6804
      1078.764         840.595
  -2710391.030 9  -2102261.69947  22618403.845    22618405.2204   22618410.7594
       687.163         535.452
 96 11 12 16 59 59.9990000  0  8 25 17  3 23 21  9  1 31            -0.000133679
  -5187084.006 8  -4023526.40546  24683329.198    24683330.2624   24683338.0554
      3722.048        2900.297
   5292438.175 9   4113185.16146  23617748.730    23617749.7564   23617757.4834
     -2839.345       -2212.477
   2000525.011 9   1557340.18448  21989674.912    21989676.1354   21989681.7294
     -1524.973       -1188.291
   2588578.496 9   2013196.72947  22461859.067    22461860.1214   22461865.4654
     -1355.289       -1056.069
   -895027.348 9   -693976.09348  20685921.193    20685922.3954   20685927.4744
       205.881         160.427
    623056.650 9    486882.15846  23878291.362    23878292.8434   23878297.8194
      -910.404        -709.406
  -3402394.098 9  -2475945.55148  20268939.293    20268940.4044   20268945.6174
      1063.052         828.352
  -2730749.556 9  -2118125.50747  22614530.039    22614531.2724   22614536.7534
       669.868         521.975
 96 11 12 17  0 29.9990000  0  8 25 17  3 23 21  9  1 31            -0.000142453
  -5298793.064 8  -4110572.39146  24662070.923    24662072.8084   24662080.6364
      3725.125        2902.695
   5377728.520 9   4179645.06946  23633979.174    23633980.0684   23633987.7754
     -2846.853       -2218.327
   2046488.704 9   1593156.02148  21998421.662    21998422.7804   21998428.3614
     -1539.321       -1199.471
   2629265.306 9   2044900.71747  22469601.694    22469602.6064   22469607.9634
     -1357.381       -1057.699
   -901108.194 9   -698714.43448  20684764.029    20684765.2814   20684770.3254
       199.536         155.483
    650613.130 9    508354.73146  23883535.238    23883536.6754   23883541.7384
      -926.794        -722.177
  -3434045.315 9  -2500608.83848  20262916.378    20262917.3804   20262922.6104
      1046.916         815.779
  -2750584.167 9  -2133581.07247  22610756.231    22610756.9964   22610762.4204
       652.258         508.253
 96 11 12 17  0 59.9990000  0  8 25 17  3 23 21  9  1 31            -0.000151230
  -5410570.854 8  -4197671.95246  24640800.888    24640802.1804   24640809.9974
      3726.705        2903.926
   5463273.579 9   4246303.45346  23650257.734    23650258.8704   23650266.6634
     -2855.942       -2225.409
   2092894.161 9   1629316.08748  22007252.232    22007253.4464   22007259.0384
     -1554.278       -1211.126
   2670045.290 9   2076677.30047  22477361.865    22477362.8114   22477368.2214
     -1361.308       -1060.759
   -906981.329 9   -703290.91948  20683646.588    20683647.6914   20683652.7234
       191.902         149.534
    678688.985 9    530231.94846  23888877.689    23888879.1594   23888884.7554
      -945.083        -736.428
  -3465182.576 9  -2524871.64048  20256991.097    20256992.1564   20256997.3734
      1028.840         801.694
  -2769863.595 9  -2148604.01647  22607087.349    22607088.2184   22607093.6634
       632.780         493.075
 96 11 12 17  1 29.9990000  0  8 25 17  3 23 21  9  1 31            -0.000159998
  -5522404.873 8  -4284815.32545  24619519.766    24619520.6654   24619528.5184
      3729.757        2906.304
   5549068.298 9   4313156.37946  23666584.033    23666585.2264   23666592.9584
     -2862.695       -2230.671
   2139740.540 9   1665819.73148  22016166.873    22016168.0314   22016173.6334
     -1568.027       -1221.839
   2710934.850 9   2108539.26347  22485142.863    22485143.8684   22485149.2584
     -1363.773       -1062.680
   -912628.600 9   -707691.40448  20682572.045    20682573.0834   20682578.1134
       185.436         144.495
    707312.465 9    552535.95146  23894324.677    23894326.2754   23894331.3774
      -962.328        -749.866
  -3495786.292 9  -2548718.69248  20251167.389    20251168.4714   20251173.6794
      1012.190         788.719
  -2788556.764 9  -2163170.13047  22603530.023    22603530.9644   22603536.4924
       614.173         478.576
 96 11 12 17  1 59.9990000  0  8 25 17  3 23 21  9  1 31            -0.000168768
  -5634315.647 8  -4372018.48846  24598223.362    24598224.8634   24598232.4944
      3731.499        2907.662
   5635078.244 9   4380177.02746  23682951.443    23682952.4574   23682960.2094
     -2870.781       -2236.972
   2187011.635 9   1702654.31948  22025162.299    22025163.4444   22025169.0544
     -1582.825       -1233.370
   2751911.150 9   2140468.81847  22492940.378    22492941.4274   22492946.8394
     -1367.511       -1065.593
   -918069.539 9   -711931.11248  20681536.566    20681537.7274   20681542.7534
       177.838         138.575
    736463.338 9    575250.92946  23899872.611    23899873.6864   23899878.4754
      -980.490        -764.018
  -3525877.405 9  -2572166.31548  20245441.165    20245442.3224   20245447.5264
       994.504         774.938
  -2806675.626 9  -2177288.75447  22600082.244    22600083.0604   22600088.5744
       594.146         462.971
 96 11 12 17  2 29.9990000  0  8 25 17  3 23 21  9  1 31            -0.000177535
  -5746294.217 8  -4459274.49046  24576914.289    24576915.9514   24576923.7654
      3733.355        2909.108
   5721316.058 9   4447375.22146  23699362.214    23699363.0324   23699370.7194
     -2878.584       -2243.052
   2234700.269 9   1739814.26348  22034237.145    22034238.3284   22034243.9554
     -1596.803       -1244.262
   2792984.356 9   2172473.89347  22500756.531    22500757.4514   22500762.7994
     -1371.228       -1068.489
   -923298.321 9   -716005.50148  20680541.716    20680542.7414   20680547.7744
       170.353         132.743
    766135.314 9    598371.89046  23905518.562    23905519.7714   23905524.8554
      -998.061        -777.710
  -3555458.183 9  -2595216.26648  20239812.182    20239813.2984   20239818.5094
       977.249         761.493
  -2824208.621 9  -2190950.84647  22596745.796    22596746.7064   22596752.1484
       574.321         447.523
 96 11 12 17  2 59.9990000  0  8 25 17  3 23 21  9  1 31            -0.000186305
  -5858359.933 8  -4546598.37645  24555589.281    24555590.4544   24555598.2264
      3737.010        2911.956
   5807756.229 9   4514731.09846  23715811.313    23715812.1964   23715819.7824
     -2884.633       -2247.766
   2282777.663 9   1777277.14048  22043386.016    22043387.1764   22043392.8094
     -1609.057       -1253.811
   2834149.947 9   2204550.95947  22508590.150    22508591.0464   22508596.4144
     -1373.768       -1070.468
   -928329.511 9   -719925.92548  20679584.408    20679585.3564   20679590.3974
       164.343         128.059
    796310.625 9    621885.08146  23911260.934    23911262.1114   23911267.2964
     -1014.290        -790.356
  -3584549.549 9  -2617884.86348  20234276.286    20234277.4044   20234282.6164
       961.502         749.222
  -2841163.081 9  -2204162.13847  22593519.316    22593520.4204   22593525.8124
       555.323         432.719
 96 11 12 17  3 29.9990000  0  8 25 17  3 23 21  9  1 31            -0.000195071
  -5970508.332 8  -4633986.67346  24534248.349    24534249.3344   24534257.0494
      3739.760        2914.099
   5894402.944 9   4582247.90846  23732299.434    23732300.6054   23732308.1994
     -2891.860       -2253.397
   2331260.745 9   1815056.14048  22052611.988    22052613.2124   22052618.8124
     -1623.151       -1264.793
   2875424.367 9   2236712.81647  22516444.533    22516445.3134   22516450.7114
     -1377.782       -1073.596
   -933154.638 9   -723685.77948  20678666.307    20678667.1964   20678672.2314
       157.458         122.695
    826998.726 9    645797.86646  23917100.849    23917101.8024   23917107.0464
     -1031.340        -803.642
  -3613136.850 9  -2640160.68048  20228836.351    20228837.4434   20228842.6364
       944.391         735.889
  -2857526.045 9  -2216912.50447  22590405.437    22590406.6264   22590412.0754
       535.653         417.392
 96 11 12 17  3 59.9990000  0  8 25 17  3 23 21  9  1 31            -0.000203841
  -6082746.426 9  -4721444.87446  24512890.188    24512891.2014   24512898.8974
      3742.637        2916.341
   5981261.068 9   4649929.46246  23748828.219    23748829.1574   23748836.8534
     -2898.788       -2258.796
   2380155.806 9   1853156.14848  22061916.632    22061917.6604   22061923.2864
     -1636.710       -1275.358
   2916811.368 9   2268962.40447  22524320.434    22524321.0144   22524326.3584
     -1381.463       -1076.465
   -937787.972 9   -727296.17848  20677784.601    20677785.5184   20677790.5704
       151.297         117.894
    858173.221 9    670089.66746  23923032.691    23923033.9384   23923039.0774
     -1047.146        -815.958
  -3641222.365 9  -2662045.49248  20223491.908    20223492.9724   20223498.1214
       927.919         723.054
  -2873318.896 9  -2229218.63047  22587400.544    22587401.3714   22587406.8254
       516.911         402.788
 96 11 12 17  4 29.9990000  0  8 25 17  3 23 21  9  1 31            -0.000212621
  -6195084.793 9  -4808981.18346  24491513.130    24491513.8094   24491521.6294
      3746.496        2919.348
   6068315.711 9   4717764.13546  23765394.600    23765395.1734   23765402.8814
     -2904.865       -2263.531
   2429455.763 9   1891571.66548  22071298.004    22071299.1264   22071304.7734
     -1650.129       -1285.815
   2958312.120 9   2301300.63247  22532217.788    22532218.3614   22532223.6904
     -1385.154       -1079.341
   -942240.699 9   -730765.84648  20676937.381    20676938.2074   20676943.2694
       145.576         113.436
    889817.220 9    694747.31446  23929055.118    23929055.9134   23929060.8304
     -1062.532        -827.947
  -3668817.903 9  -2683548.50848  20218240.583    20218241.7264   20218246.8864
       911.821         710.510
  -2888557.314 9  -2241092.74147  22584500.655    22584501.5314   22584507.0254
       498.851         388.715
 96 11 12 17  4 59.9990000  0  8 25 17  3 23 21  9  1 31            -0.000221417
  -6307538.859 8  -4896607.67946  24470113.408    24470114.6364   24470122.1604
      3750.557        2922.512
   6155551.160 9   4785739.70146  23781994.882    23781995.5944   23782003.3144
     -2910.537       -2267.951
   2479164.101 9   1930305.39748  22080757.127    22080758.3184   22080763.9854
     -1663.469       -1296.210
   2999917.788 9   2333720.60947  22540135.030    22540135.6614   22540140.9614
     -1388.168       -1081.689
   -946528.127 9   -734106.71648  20676121.634    20676122.3844   20676127.4334
       140.470         109.457
    921931.247 9    719771.21546  23935166.357    23935167.0844   23935172.1024
     -1078.187        -840.146
  -3695928.265 9  -2704673.46748  20213081.688    20213082.8084   20213087.9594
       895.841         698.058
  -2903249.370 9  -2252541.11647  22581704.667    22581705.6904   22581711.2424
       481.021         374.822
 96 11 12 17  5 29.9990000  0  8 25 17  3 23 21  9  1 31            -0.000230228
  -6420091.743 9  -4984311.16346  24448695.218    24448696.4264   24448703.9834
      3753.032        2924.441
   6242961.791 9   4853851.77946  23798628.586    23798629.3724   23798637.1604
     -2916.743       -2272.787
   2529289.169 9   1969363.86048  22090295.716    22090296.8284   22090302.5244
     -1678.036       -1307.561
   3041617.958 9   2366214.23447  22548070.321    22548070.9954   22548076.2534
     -1391.697       -1084.439
   -950649.834 9   -737318.44948  20675337.215    20675338.0724   20675343.1324
       134.298         104.648
    954525.558 9    745169.31946  23941368.603    23941369.2224   23941374.6454
     -1094.702        -853.014
  -3722549.633 9  -2725417.38548  20208015.805    20208016.9044   20208022.0744
       879.113         685.023
  -2917408.984 9  -2263574.59647  22579010.331    22579011.2984   22579016.8454
       462.791         360.616
 96 11 12 17  5 59.9990000  0  8 25 17  3 23 21  9  1 31            -0.000239047
  -6532715.310 8  -5072069.72446  24427263.543    24427264.8104   24427272.4074
      3755.452        2926.326
   6330546.347 9   4922099.36946  23815295.401    23815296.2664   23815303.9724
     -2922.045       -2276.918
   2579833.152 9   2008748.74248  22099913.881    22099915.0314   22099920.7784
     -1691.185       -1317.806
   3083408.089 9   2398777.95147  22556022.562    22556023.3654   22556028.6704
     -1393.898       -1086.154
   -954596.081 9   -740393.46148  20674586.370    20674587.1574   20674592.2294
       129.014         100.530
    987602.153 9    770943.30146  23947663.130    23947663.6964   23947668.8524
     -1110.320        -865.184
  -3748686.498 9  -2745783.77448  20203042.203    20203043.2294   20203048.3794
       863.698         673.011
  -2931025.907 9  -2274185.18747  22576419.416    22576420.1224   22576425.6274
       445.071         346.809
 96 11 12 17  6 29.9990000  0  8 25 17  3 23 21  9  1 31            -0.000247864
  -6645393.567 9  -5159870.92346  24405821.682    24405822.8204   24405830.3204
      3757.506        2927.927
   6418310.918 9   4990487.23646  23831996.568    23831997.4834   23832005.0834
     -2927.842       -2281.435
   2630789.496 9   2048454.95048  22109610.432    22109611.7354   22109617.4694
     -1704.670       -1328.314
   3125276.901 9   2431402.97547  22563989.831    22563990.7614   22563996.0604
     -1396.091       -1087.863
   -958360.919 9   -743327.11048  20673869.998    20673870.7454   20673875.8234
       123.109          95.929
   1021173.361 9    797102.66446  23954051.321    23954052.0034   23954057.3594
     -1126.499        -877.791
  -3774342.149 9  -2765775.19048  20198160.116    20198161.1394   20198166.2614
       847.880         660.686
  -2944082.649 9  -2284359.29247  22573934.701    22573935.5084   22573941.0064
       426.573         332.394
 96 11 12 17  6 59.9990000  0  8 25 17  3 23 21  9  1 31            -0.000256685
  -6758114.225 8  -5247705.15046  24384371.814    24384372.8404   24384380.1664
      3758.021        2928.328
   6506256.598 9   5059016.21946  23848732.133    23848733.1174   23848740.7114
     -2934.386       -2286.535
   2682147.927 9   2088474.46848  22119383.738    22119384.9584   22119390.6714
     -1718.224       -1338.876
   3167205.066 9   2464074.24947  22571968.614    22571969.4624   22571974.8124
     -1398.437       -1089.691
   -961941.742 9   -746117.37348  20673188.427    20673189.3374   20673194.4204
       116.271          90.601
   1055227.170 9    823638.05746  23960531.441    23960532.3264   23960537.8444
     -1142.971        -890.627
  -3799523.623 9  -2785397.11848  20193368.259    20193369.2684   20193374.3934
       831.675         648.058
  -2956587.345 9  -2294103.23447  22571555.014    22571555.9344   22571561.4244
       407.923         317.862
 96 11 12 17  7 29.9990000  0  8 25 17  3 23 21  9  1 31            -0.000265509
  -6870859.620 9  -5335558.65046  24362916.705    24362918.0904   24362925.4194
      3758.248        2928.505
   6594388.339 9   5127690.19046  23865503.157    23865504.1224   23865511.7624
     -2941.489       -2292.069
   2733895.859 9   2128797.49848  22129231.004    22129232.2954   22129238.0014
     -1731.853       -1349.496
   3209194.192 9   2496793.03047  22579958.874    22579959.7824   22579965.0834
     -1401.184       -1091.832
   -965325.935 9   -748754.41948  20672544.602    20672545.3574   20672550.4304
       109.111          85.022
   1089760.160 9    850546.86146  23967102.690    23967103.5184   23967108.9994
     -1159.462        -903.477
  -3824235.289 9  -2804652.96248  20188665.768    20188666.8274   20188671.9184
       815.417         635.390
  -2968546.920 9  -2303422.38947  22569279.118    22569280.1234   22569285.6564
       388.942         303.072
 96 11 12 17  7 59.9990000  0  8 25 17  3 23 21  9  1 31            -0.000274317
  -6983604.722 9  -5423411.93046  24341462.140    24341463.4044   24341470.7624
      3757.980        2928.296
   6682754.055 9   5196546.49946  23882318.864    23882319.6894   23882327.2974
     -2949.824       -2298.564
   2786055.133 9   2169441.03948  22139156.715    22139157.8724   22139163.5874
     -1745.735       -1360.313
   3251277.908 9   2529585.51447  22587967.123    22587968.0824   22587973.3694
     -1404.659       -1094.539
   -968483.608 9   -751214.95948  20671943.746    20671944.4904   20671949.5574
       101.159          78.825
   1124803.664 9    877853.45346  23973770.953    23973771.9284   23973777.4804
     -1177.116        -917.233
  -3848445.678 9  -2823518.20348  20184058.718    20184059.7504   20184064.8414
       798.254         622.016
  -2979927.437 9  -2312290.32847  22567113.141    22567114.4204   22567119.9854
       369.596         287.997
 96 11 12 17  8 29.9990000  0  8 25 17  3 23 21  9  1 31            -0.000283113
  -7096361.657 9  -5511274.42946  24320005.144    24320006.4384   24320013.7754
      3758.717        2928.870
   6771361.904 9   5265591.44646  23899180.448    23899181.2664   23899189.0154
     -2957.624       -2304.642
   2838620.217 9   2210400.80348  22149159.579    22149160.7384   22149166.4204
     -1759.007       -1370.655
   3293456.939 9   2562452.26547  22595993.487    22595994.4924   22595999.7854
     -1407.738       -1096.939
   -971408.588 9   -753494.17948  20671387.186    20671387.8914   20671392.9614
        93.474          72.837
   1160370.464 9    905567.81846  23980539.381    23980540.2504   23980545.6604
     -1194.363        -930.672
  -3872147.376 9  -2841987.05848  20179548.430    20179549.4624   20179554.5554
       781.385         608.871
  -2990746.709 9  -2320720.94447  22565054.717    22565055.6244   22565061.1664
       351.246         273.698
 96 11 12 17  8 59.9990000  0  8 25 17  3 23 21  9  1 31            -0.000291907
  -7209133.492 8  -5599148.54846  24298545.521    24298546.5514   24298554.0094
      3760.006        2929.875
   6860203.679 9   5334818.69646  23916086.676    23916087.3384   23916095.1234
     -2964.766       -2310.207
   2891578.766 9   2251667.15848  22159237.320    22159238.4344   22159244.1594
     -1771.146       -1380.114
   3335734.716 9   2595395.96347  22604038.935    22604039.6994   22604045.0324
     -1410.483       -1099.078
   -974100.953 9   -755592.13548  20670874.769    20670875.5594   20670880.6434
        86.531          67.427
   1196462.443 9    933691.41646  23987407.323    23987408.3254   23987413.7414
     -1211.469        -944.002
  -3895335.902 9  -2860056.04648  20175135.682    20175136.8274   20175141.9194
       764.868         596.001
  -3001015.195 9  -2328722.38847  22563100.862    22563101.6774   22563107.1704
       333.456         259.836
 96 11 12 17  9 29.9990000  0  8 25 17  3 23 21  9  1 31            -0.000300716
  -7321965.037 9  -5687069.16146  24277074.131    24277075.4124   24277082.8394
      3762.145        2931.542
   6949247.698 9   5404203.52846  23933030.968    23933031.9714   23933039.8164
     -2971.505       -2315.458
   2944891.358 9   2293209.39348  22169382.388    22169383.5284   22169389.2974
     -1782.988       -1389.341
   3378089.076 9   2628399.33347  22612098.871    22612099.4924   22612104.7584
     -1413.035       -1101.066
   -976602.387 9   -757541.31148  20670398.814    20670399.5504   20670404.6414
        80.303          62.574
   1233055.015 9    962205.05646  23994370.785    23994371.6334   23994377.2574
     -1227.978        -956.866
  -3918037.061 9  -2877745.26048  20170815.883    20170816.9564   20170822.0644
       748.511         583.255
  -3010745.426 9  -2336304.40547  22561248.861    22561250.0644   22561255.6064
       315.086         245.522
 96 11 12 17  9 59.9990000  0  8 25 17  3 23 21  9  1 31            -0.000309536
  -7434858.188 9  -5775037.79946  24255591.607    24255592.5634   24255599.9364
      3763.940        2932.940
   7038494.948 9   5473746.73946  23950014.548    23950015.2194   23950023.0744
     -2978.266       -2320.727
   2998552.592 9   2335023.30048  22179593.714    22179594.9424   22179600.7434
     -1794.553       -1398.353
   3420525.664 9   2661466.77147  22620174.444    22620174.9644   22620180.2334
     -1416.204       -1103.535
   -978917.420 9   -759345.24348  20669958.251    20669959.0184   20669964.1094
        73.948          57.622
   1270146.229 9    991107.26946  24001428.969    24001429.9444   24001435.4464
     -1244.674        -969.876
  -3940240.140 9  -2895046.35948  20166590.885    20166591.8714   20166596.9784
       731.680         570.140
  -3019923.117 9  -2343455.85547  22559502.573    22559503.7004   22559509.2134
       296.567         231.091
 96 11 12 17 10 29.9990000  0  8 25 17  3 23 21  9  1 31            -0.000318364
  -7547799.784 9  -5863044.19146  24234099.944    24234100.5234   24234107.7404
      3765.725        2934.331
   7127942.474 9   5543445.99946  23967035.682    23967036.6194   23967044.5234
     -2984.450       -2325.545
   3052564.740 9   2377110.64148  22189871.925    22189873.1554   22189878.9504
     -1805.942       -1407.227
   3463066.231 9   2694615.23747  22628269.497    22628270.2044   22628275.4834
     -1419.426       -1106.046
   -981041.919 9   -761000.70748  20669553.972    20669554.7444   20669559.8314
        67.955          52.952
   1307725.691 9   1020389.93646  24008580.460    24008581.3034   24008586.6454
     -1260.147        -981.933
  -3961935.667 9  -2911951.97048  20162462.369    20162463.3734   20162468.4764
       715.006         557.148
  -3028532.152 9  -2350164.22047  22557864.529    22557865.4944   22557870.9584
       277.611         216.320
 96 11 12 17 10 59.9990000  0  8 25 17  3 23 21  9  1 31            -0.000327225
  -7660821.206 9  -5951112.75946  24212592.683    24212593.2894   24212600.5024
      3768.856        2936.771
   7217541.100 9   5613263.00546  23984085.981    23984086.7734   23984094.7124
     -2988.970       -2329.068
   3106888.674 9   2419440.93148  22200209.736    22200210.7124   22200216.5434
     -1815.885       -1414.975
   3505676.102 9   2727817.70147  22636377.913    22636378.6654   22636383.9794
     -1421.417       -1107.598
   -983016.959 9   -762539.71348  20669178.168    20669178.9164   20669183.9894
        63.332          49.350
   1345737.419 8   1050009.44246  24015813.822    24015814.5274   24015819.8734
     -1274.185        -992.871
  -3983158.116 9  -2928488.95048  20158423.906    20158424.8824   20158429.9894
       699.596         545.140
  -3036598.534 9  -2356449.73147  22556329.285    22556330.5384   22556335.9894
       259.909         202.526
 96 11 12 17 11 29.9990000  0  8 25 17  3 23 21  9  1 31            -0.000336120
  -7773924.508 9  -6039245.13046  24191069.846    24191070.3344   24191077.6354
      3770.456        2938.018
   7307284.863 9   5683193.11246  24001163.675    24001164.4974   24001172.5514
     -2994.770       -2333.587
   3161532.339 9   2462020.37148  22210607.988    22210609.0924   22210614.9384
     -1827.941       -1424.370
   3548358.268 9   2761076.49747  22644500.250    22644500.9054   22644506.1884
     -1424.752       -1110.196
   -984834.565 9   -763956.03548  20668832.389    20668833.0194   20668838.1324
        56.911          44.346
   1384180.213 9   1079964.86046  24023128.846    24023130.0204   24023135.3904
     -1289.578       -1004.866
  -4003906.669 9  -2944656.65548  20154475.610    20154476.5964   20154481.6814
       682.881         532.115
  -3044126.507 9  -2362315.71247  22554896.874    22554898.0554   22554903.4524
       241.224         187.967
 96 11 12 17 11 59.9990000  0  8 25 17  3 23 21  9  1 31            -0.000345021
  -7887054.810 9  -6127398.54946  24169541.337    24169542.3174   24169549.6434
      3771.361        2938.723
   7397205.723 9   5753261.21146  24018275.097    24018275.9944   24018283.9384
     -3000.357       -2337.941
   3216550.195 9   2504891.37848  22221077.565    22221078.6894   22221084.4844
     -1840.425       -1434.097
   3591149.942 9   2794420.63047  22652643.226    22652643.9484   22652649.2364
     -1428.235       -1112.910
   -986449.634 9   -765214.54248  20668525.008    20668525.7184   20668530.7884
        50.333          39.221
   1423096.194 9   1110288.95546  24030534.381    24030535.4584   24030541.1624
     -1305.233       -1017.065
  -4024150.418 9  -2960431.01048  20150623.376    20150624.3454   20150629.4324
       666.432         519.298
  -3051091.195 9  -2367742.74947  22553571.461    22553572.7074   22553578.1714
       222.810         173.618
 96 11 12 17 12 29.9990000  0  8 25 17  3 23 21  9  1 31            -0.000353930
  -8000227.501 9  -6215584.98746  24148004.972    24148006.2094   24148013.5534
      3772.744        2939.801
   7487282.607 9   5823450.86846  24035416.060    24035417.1384   24035425.1914
     -3005.437       -2341.899
   3271943.533 9   2548054.97848  22231618.768    22231619.7374   22231625.5194
     -1852.919       -1443.833
   3634026.033 9   2827830.53647  22660802.288    22660803.0094   22660808.3204
     -1430.712       -1114.841
   -987874.724 9   -766325.01248  20668253.853    20668254.5534   20668259.6104
        43.998          34.284
   1462475.662 9   1140974.24646  24038027.949    24038029.1104   24038034.6274
     -1320.841       -1029.227
  -4043912.004 9  -2975829.65048  20146862.975    20146863.8774   20146868.9254
       650.382         506.791
  -3057510.339 9  -2372744.69547  22552350.082    22552351.2004   22552356.7404
       204.510         159.358
 96 11 12 17 12 59.9990000  0  8 25 17  3 23 21  9  1 31            -0.000362848
  -8113434.279 9  -6303798.00046  24126462.366    24126463.6514   24126470.9274
      3774.120        2940.873
   7577506.548 9   5893755.13746  24052585.662    24052586.3464   24052594.3964
     -3009.841       -2345.331
   3327701.983 9   2591503.07548  22242229.141    22242230.2314   22242236.0514
     -1864.571       -1452.912
   3676969.868 9   2861293.23147  22668974.281    22668975.0044   22668980.3464
     -1432.510       -1116.242
   -989109.861 9   -767287.47048  20668018.914    20668019.5614   20668024.5934
        38.108          29.695
   1502332.603 9   1172031.64146  24045612.727    24045613.6094   24045619.0244
     -1336.569       -1041.482
  -4063202.034 9  -2990860.84548  20143192.185    20143193.1284   20143198.1764
       635.371         495.094
  -3063390.405 9  -2377326.57947  22551231.261    22551232.3064   22551237.8534
       187.044         145.749
 96 11 12 17 13 29.9990000  0  8 25 17  3 23 21  9  1 31            -0.000371763
  -8226664.613 9  -6392029.37946  24104915.124    24104916.6354   24104923.8544
      3774.386        2941.080
   7667882.638 9   5964177.94946  24069783.608    24069784.3574   24069792.4754
     -3015.278       -2349.567
   3383823.541 9   2635234.10148  22252908.847    22252909.8474   22252915.6814
     -1876.883       -1462.506
   3719978.910 9   2894806.73447  22677158.711    22677159.3704   22677164.7214
     -1434.758       -1117.993
   -990157.409 9   -768103.75248  20667819.588    20667820.2404   20667825.2414
        31.801          24.780
   1542672.103 9   1203464.96046  24053289.359    24053290.1144   24053295.7874
     -1352.603       -1053.976
  -4082030.931 9  -3005532.71448  20139609.207    20139610.1324   20139615.2064
       619.829         482.984
  -3068721.393 9  -2381480.61747  22550216.806    22550217.8674   22550223.4014
       168.265         131.115
 96 11 12 17 13 59.9990000  0  8 25 17  3 23 21  9  1 31            -0.000380678
  -8339905.184 9  -6480268.71846  24083366.219    24083367.6454   24083374.7894
      3774.562        2941.217
   7758413.946 9   6034721.71746  24087011.476    24087012.0654   24087020.1714
     -3020.571       -2353.692
   3440294.281 9   2679237.23248  22263654.865    22263655.8914   22263661.7374
     -1888.204       -1471.328
   3763044.345 9   2928364.18647  22685353.660    22685354.4534   22685359.8634
     -1436.670       -1119.483
   -991028.279 9   -768782.36148  20667653.930    20667654.5594   20667659.5314
        25.825          20.123
   1583482.665 8   1235265.39846  24061055.305    24061055.9844   24061061.7254
     -1368.461       -1066.333
  -4100399.078 9  -3019845.55148  20136113.845    20136114.7744   20136119.8654
       604.097         470.725
  -3073495.044 9  -2385200.36347  22549307.950    22549309.4544   22549315.0264
       149.654         116.614
 96 11 12 17 14 29.9990000  0  8 25 17  3 23 21  9  1 31            -0.000389594
  -8453142.667 9  -6568505.66546  24061817.626    24061819.2664   24061826.4284
      3774.649        2941.285
   7849112.136 9   6105395.51446  24104270.995    24104271.4084   24104279.6744
     -3025.752       -2357.729
   3497112.033 9   2723510.75648  22274466.807    22274467.9644   22274473.8794
     -1899.447       -1480.089
   3806177.974 9   2961974.77247  22693561.769    22693562.5534   22693567.9904
     -1438.823       -1121.161
   -991705.520 9   -769310.09448  20667525.034    20667525.7314   20667530.6784
        19.435          15.144
   1624778.464 9   1267443.92746  24068912.784    24068914.2154   24068919.7874
     -1384.377       -1078.735
  -4118279.316 9  -3033778.20448  20132711.377    20132712.3074   20132717.3884
       588.095         458.256
  -3077705.165 9  -2388481.00147  22548507.124    22548508.3304   22548513.8754
       131.167         102.208
 96 11 12 17 14 59.9990000  0  8 25 17  3 23 21  9  1 31            -0.000398512
  -8566376.103 9  -6656739.47746  24040269.754    24040271.5904   24040278.7664
      3774.452        2941.131
   7939968.512 8   6176192.58346  24121560.051    24121560.8624   24121569.2034
     -3031.427       -2362.151
   3554268.017 9   2768047.82348  22285343.334    22285344.3834   22285350.3444
     -1911.075       -1489.149
   3849387.794 9   2995644.72347  22701784.435    22701785.1504   22701790.6134
     -1441.881       -1123.544
   -992181.162 9   -769680.73648  20667434.526    20667435.2004   20667440.1644
        12.413           9.672
   1666545.287 9   1299989.50446  24076861.257    24076862.4864   24076867.7864
     -1400.016       -1090.922
  -4135679.436 9  -3047336.74048  20129400.190    20129401.1904   20129406.2744
       571.956         445.680
  -3081360.311 9  -2391329.18047  22547811.769    22547812.7814   22547818.3204
       112.559          87.708
 96 11 12 17 15 29.9990000  0  8 25 17  3 23 21  9  1 31            -0.000407434
  -8679609.084 9  -6744972.92946  24018721.993    24018724.0124   24018731.2214
      3774.649        2941.285
   8031002.595 9   6247128.12846  24138883.545    24138884.1684   24138892.4734
     -3037.488       -2366.874
   3611781.557 9   2812863.51848  22296287.722    22296288.8784   22296294.8584
     -1923.030       -1498.465
   3892688.843 9   3029385.77047  22710024.504    22710025.1274   22710030.5524
     -1444.796       -1125.815
   -992447.505 9   -769888.27848  20667383.927    20667384.5444   20667389.5014
         5.512           4.295
   1708777.902 9   1332898.03046  24084897.631    24084898.9134   24084904.3564
     -1415.279       -1102.815
  -4152586.752 9  -3060511.26648  20126182.815    20126183.8334   20126188.9274
       555.404         432.782
  -3084462.030 9  -2393746.12447  22547221.612    22547222.5794   22547228.1104
        94.525          73.656
 96 11 12 17 15 59.9990000  0  8 25 17  3 23 21  9  1 31            -0.000416366
  -8792851.712 9  -6833213.89746  23997173.315    23997174.6354   23997181.9084
      3774.957        2941.525
   8122222.780 9   6318208.65646  24156242.088    24156242.8154   24156251.3174
     -3043.845       -2371.827
   3669657.794 9   2857961.82948  22307301.179    22307302.4164   22307308.3624
     -1935.288       -1508.017
   3936085.465 9   3063201.27847  22718282.532    22718283.2054   22718288.7654
     -1448.264       -1128.517
   -992499.777 9   -769929.02348  20667373.798    20667374.5884   20667379.5724
        -1.956          -1.524
   1751477.789 9   1366170.61846  24093022.822    24093024.4874   24093030.1014
     -1431.250       -1115.260
  -4168999.790 9  -3073300.64948  20123059.548    20123060.5074   20123065.6134
       538.942         419.955
  -3087034.991 9  -2395751.04447  22546732.006    22546733.0274   22546738.5524
        77.002          60.002
 96 11 12 17 16 29.9990000  0  8 25 17  3 23 21  9  1 31            -0.000425302
  -8906115.038 9  -6921471.00146  23975619.746    23975621.2864   23975628.5694
      3775.879        2942.243
   8213630.802 8   6389435.60046  24173636.679    24173637.3364   24173645.7984
     -3050.117       -2376.715
   3727900.578 9   2903345.76948  22318384.492    22318385.6624   22318391.6244
     -1947.432       -1517.479
   3979581.638 9   3097094.37447  22726559.503    22726560.3164   22726565.8484
     -1451.539       -1131.069
   -992328.739 9   -769795.75448  20667406.489    20667407.1574   20667412.1554
        -9.352          -7.287
   1794645.051 9   1399807.43346  24101237.957    24101239.1144   24101244.5274
     -1446.411       -1127.073
  -4184933.899 9  -3085716.83648  20120027.299    20120028.3324   20120033.4284
       523.412         407.853
  -3089089.322 9  -2397351.83947  22546340.798    22546342.1834   22546347.7044
        59.651          46.481
 96 11 12 17 16 59.9990000  0  8 25 17  3 23 21  9  1 31            -0.000434238
  -9019402.159 9  -7009746.65846  23954062.336    23954063.4004   23954070.5934
      3776.823        2942.979
   8305237.128 9   6460817.02146  24191068.474    24191069.4614   24191077.9534
     -3056.857       -2381.966
   3786496.639 9   2949004.97748  22329535.085    22329536.1444   22329542.1254
     -1958.698       -1526.258
   4023176.471 9   3131064.33347  22734855.169    22734856.1424   22734861.6764
     -1454.450       -1133.338
   -991946.017 9   -769497.54248  20667479.301    20667480.0194   20667485.0114
       -15.787         -12.302
   1838263.955 9   1433796.23446  24109538.626    24109539.4364   24109544.5494
     -1461.320       -1138.691
  -4200401.857 9  -3097769.79448  20117083.881    20117084.8784   20117089.9694
       507.974         395.824
  -3090616.325 9  -2398541.73347  22546050.802    22546051.6474   22546057.1844
        42.358          33.006
 96 11 12 17 17 29.9990000  0  8 25 17  3 23 21  9  1 31            -0.000443188
  -9132715.768 9  -7098042.95346  23932499.280    23932500.5184   23932507.7064
      3777.545        2943.542
   8397040.475 8   6532351.98146  24208538.401    24208539.1284   24208547.6044
     -3063.069       -2386.807
   3845423.678 9   2994922.10348  22340748.441    22340749.6814   22340755.6374
     -1969.461       -1534.645
   4066846.365 9   3165092.78847  22743165.437    22743166.3254   22743171.8734
     -1456.731       -1135.115
   -991379.100 9   -769055.80148  20667587.160    20667587.9104   20667592.9034
       -21.942         -17.098
   1882330.966 9   1468134.06246  24117923.920    24117925.0334   24117930.8234
     -1476.357       -1150.408
  -4215410.173 9  -3109464.58748  20114227.882    20114228.8804   20114233.9804
       492.822         384.017
  -3091634.967 9  -2399335.50347  22545857.003    22545857.7884   22545863.3994
        25.576          19.929
 96 11 12 17 17 59.9990000  0  8 25 17  3 23 21  9  1 31            -0.000452135
  -9246035.256 9  -7186343.81946  23910934.664    23910936.5144   23910943.6754
      3777.039        2943.147
   8489031.207 8   6604032.96746  24226043.919    24226044.4884   24226053.1154
     -3069.611       -2391.905
   3904681.485 9   3041096.96448  22352024.879    22352026.0994   22352032.0534
     -1980.930       -1543.582
   4110603.738 9   3199189.40247  22751492.332    22751493.1144   22751498.6804
     -1460.387       -1137.964
   -990608.512 9   -768455.36048  20667733.675    20667734.5614   20667739.5514
       -29.415         -22.921
   1926864.445 9   1502835.46246  24126398.783    24126399.6934   24126405.4344
     -1492.476       -1162.968
  -4229956.004 9  -3120799.00248  20111459.901    20111460.9084   20111466.0184
       476.790         371.525
  -3092123.984 9  -2399716.57447  22545764.070    22545764.7184   22545770.2894
         7.009           5.462
 96 11 12 17 18 29.9990000  0  8 25 17  3 23 21  9  1 31            -0.000461074
  -9359338.708 9  -7274632.17846  23889373.669    23889375.5114   23889382.7974
      3776.581        2942.790
   8581198.360 8   6675851.40846  24243582.506    24243583.4684   24243592.0464
     -3074.623       -2395.810
   3964273.146 9   3087531.97748  22363364.808    22363366.0874   22363372.0054
     -1991.717       -1551.987
   4154464.840 9   3233366.85347  22759838.992    22759839.6954   22759845.1614
     -1463.562       -1140.438
   -989621.923 9   -767686.60148  20667921.378    20667922.3364   20667927.2934
       -36.078         -28.113
   1971874.479 8   1537908.23446  24134963.691    24134964.8014   24134970.4264
     -1507.990       -1175.057
  -4244019.084 9  -3131757.25148  20108783.710    20108784.7694   20108789.8974
       460.985         359.209
  -3092053.328 9  -2399661.54047  22545777.746    22545778.1794   22545783.7034
       -11.583          -9.026
 96 11 12 17 18 59.9990000  0  8 25 17  3 23 21  9  1 31            -0.000470022
  -9472634.669 9  -7362914.72146  23867814.221    23867815.9634   23867823.2844
      3776.734        2942.910
   8673489.718 9   6747766.65646  24261144.855    24261146.1364   24261154.5994
     -3077.819       -2398.301
   4024165.947 9   3134201.64648  22374762.106    22374763.3454   22374769.2424
     -2000.969       -1559.197
   4198401.433 9   3267603.12147  22768199.799    22768200.5804   22768206.0704
     -1465.309       -1141.799
   -988458.224 9   -766779.83948  20668142.827    20668143.8254   20668148.7564
       -41.358         -32.227
   2017331.272 9   1573329.05646  24143613.406    24143614.7404   24143620.4834
     -1522.361       -1186.255
  -4257622.762 9  -3142357.51848  20106194.990    20106196.0984   20106201.1924
       446.112         347.620
  -3091446.722 9  -2399188.88647  22545893.019    22545893.6104   22545899.1044
       -28.591         -22.279
 96 11 12 17 19 29.9990000  0  8 25 17  3 23 21  9  1 31            -0.000478983
  -9585918.231 9  -7451187.58846  23846257.350    23846258.8684   23846266.1544
      3775.472        2941.926
   8765882.757 9   6819761.12046  24278726.731    24278728.0254   24278736.5364
     -3081.875       -2401.461
   4084361.343 9   3181107.09848  22386216.870    22386218.1714   22386224.0934
     -2012.024       -1567.811
   4242415.706 9   3301899.92147  22776575.439    22776576.2584   22776581.7464
     -1469.126       -1144.774
   -987107.248 9   -765727.14548  20668399.912    20668400.9674   20668405.8644
       -48.763         -37.997
   2063244.173 9   1609105.32746  24152350.749    24152351.9194   24152357.4074
     -1538.409       -1198.760
  -4270764.649 9  -3152597.94748  20103694.139    20103695.2744   20103700.3954
       429.927         335.008
  -3090312.729 9  -2398305.28547  22546108.265    22546109.4054   22546114.9474
       -47.173         -36.758
 96 11 12 17 19 59.9990000  0  8 25 17  3 23 21  9  1 31            -0.000487950
  -9699181.325 9  -7539444.50246  23824704.316    23824705.5834   23824712.8954
      3775.083        2941.623
   8858377.775 8   6891835.04146  24296328.096    24296329.3604   24296337.7624
     -3084.975       -2403.877
   4144862.851 9   3228251.07748  22397729.882    22397731.2244   22397737.1944
     -2021.696       -1575.348
   4286527.582 9   3336272.77947  22784969.637    22784970.5504   22784976.0064
     -1471.916       -1146.947
   -985554.642 9   -764517.33848  20668695.421    20668696.4454   20668701.3104
       -55.066         -42.909
   2109609.273 9   1645233.93746  24161173.773    24161175.0084   24161180.4974
     -1552.960       -1210.099
  -4283430.148 9  -3162467.16948  20101283.994    20101285.1264   20101290.2424
       414.046         322.633
  -3088633.893 9  -2396997.12147  22546427.785    22546428.9214   22546434.4434
       -65.093         -50.722
 96 11 12 17 20 29.9990000  0  9 25 17  3 15 23 21  9  1 31         -0.000496929
  -9812411.558 9  -7627675.80646  23803157.005    23803158.6734   23803165.9244
      3773.891        2940.694
   8950993.974 8   6964003.39646  24313952.391    24313953.6434   24313962.1734
     -3089.179       -2407.152
   4205664.789 9   3275629.15748  22409300.412    22409301.4954   22409307.5144
     -2031.648       -1583.102
   -376804.11219   -271977.01756  24273414.802    24273418.0435   24273424.7525
      4044.422        3151.498
   4330736.532 9   3370721.27247  22793382.431    22793383.2554   22793388.6814
     -1475.223       -1149.524
   -983799.723 9   -763149.89448  20669029.426    20669030.4044   20669035.2754
       -61.790         -48.148
   2156429.504 9   1681717.20146  24170083.199    24170084.5294   24170090.0524
     -1568.231       -1221.998
  -4295599.218 9  -3171949.56148  20098968.334    20098969.4104   20098974.5374
       397.503         309.743
  -3086406.795 9  -2395261.75347  22546851.815    22546852.7774   22546858.2444
       -83.287         -64.899
 96 11 12 17 20 59.9990000  0  9 25 17  3 15 23 21  9  1 31         -0.000505931
  -9925610.812 9  -7715882.96146  23781616.496    23781617.5654   23781624.7944
      3772.893        2939.917
   9043757.750 9   7036286.76346  24331604.524    24331606.0704   24331614.6054
     -3095.129       -2411.789
   4266757.488 9   3323233.80548  22420925.925    22420927.0754   22420933.1264
     -2041.256       -1590.589
   -498116.654 9   -366506.27556  24250334.725    24250333.4145   24250339.2465
      4043.112        3150.477
   4375043.741 9   3405246.33347  22801813.745    22801814.5944   22801820.1064
     -1478.647       -1152.192
   -981838.886 9   -761621.98348  20669402.502    20669403.5384   20669408.4354
       -68.984         -53.754
   2203703.982 9   1718554.44546  24179079.232    24179080.6194   24179086.0574
     -1583.462       -1233.866
  -4307269.976 9  -3181043.65648  20096747.443    20096748.5684   20096753.6494
       380.450         296.454
  -3083642.149 9  -2393107.50747  22547377.736    22547378.8564   22547384.4184
      -101.100         -78.779
 96 11 12 17 21 29.9990000  0  9 25 17  3 15 23 21  9  1 31         -0.000514950
 -10038795.344 9  -7804078.63446  23760077.653    23760079.1924   23760086.3674
      3772.273        2939.434
   9136697.242 9   7108707.02846  24349290.657    24349291.9274   24349300.5384
     -3101.417       -2416.689
   4328134.366 9   3371059.88848  22432605.605    22432606.7234   22432612.8384
     -2050.931       -1598.128
   -619401.233 9   -461013.71946  24227252.677    24227252.5944   24227259.3134
      4042.104        3149.691
   4419451.320 9   3439849.60647  22810264.350    22810265.0494   22810270.5744
     -1482.241       -1154.993
   -979666.414 9   -759929.16448  20669815.952    20669816.9554   20669821.8774
       -76.181         -59.362
   2251423.058 9   1755738.11246  24188160.280    24188161.5744   24188166.9924
     -1598.101       -1245.274
  -4318436.156 9  -3189744.57748  20094622.585    20094623.7414   20094628.8004
       363.528         283.269
  -3080353.161 9  -2390544.68947  22548003.148    22548004.7024   22548010.2904
      -118.786         -92.561
 96 11 12 17 21 59.9990000  0  9 25 17  3 15 23 21  9  1 31         -0.000523971
 -10151944.078 9  -7892246.40446  23738546.636    23738547.6564   23738554.8604
      3771.178        2938.580
   9229851.003 8   7181294.28846  24367017.737    24367018.5914   24367027.3154
     -3108.678       -2422.346
   4389810.030 9   3419118.79948  22444342.075    22444343.2324   22444349.3604
     -2060.693       -1605.735
   -740639.856 9   -555485.30546  24204181.406    24204181.9444   24204188.6134
      4040.573        3148.498
   4463976.905 9   3474544.83047  22818737.242    22818737.9744   22818743.6044
     -1485.974       -1157.902
   -977265.061 9   -758057.99548  20670272.931    20670273.9344   20670278.8704
       -83.763         -65.270
   2299595.468 8   1793274.99046  24197327.251    24197328.2264   24197333.8964
     -1613.227       -1257.060
  -4329069.188 9  -3198030.05348  20092599.198    20092600.3274   20092605.3994
       345.654         269.341
  -3076510.436 9  -2387550.39347  22548734.419    22548735.9564   22548741.5524
      -137.333        -107.013
 96 11 12 17 22 29.9990000  0  9 25 17  3 15 23 21  9  1 31         -0.000533002
 -10265076.207 9  -7980401.23246  23717017.958    23717019.2814   23717026.5064
      3771.128        2938.541
   9323201.872 8   7254035.11445  24384782.151    24384782.7504   24384791.6474
     -3114.645       -2426.996
   4451764.044 9   3467394.60648  22456131.462    22456132.7394   22456138.8564
     -2069.764       -1612.803
   -861853.808 9   -649937.73046  24181115.132    24181115.7614   24181122.2434
      4040.280        3148.270
   4508601.810 9   3509317.44747  22827229.092    22827229.8074   22827235.5144
     -1489.062       -1160.308
   -974656.101 9   -756025.05548  20670769.323    20670770.4254   20670775.3744
       -90.129         -70.230
   2348204.416 9   1831152.09446  24206577.207    24206578.2824   24206583.7144
     -1627.282       -1268.012
  -4339201.782 9  -3205925.57848  20090670.968    20090672.1644   20090677.2224
       329.953         257.106
  -3072131.945 9  -2384138.61247  22549567.799    22549569.2274   22549574.8274
      -154.628        -120.489
 96 11 12 17 22 59.9990000  0  9 25 17  3 15 23 21  9  1 31         -0.000542025
 -10378170.942 9  -8068526.90646  23695496.231    23695497.9684   23695505.2044
      3769.557        2937.317
   9416768.685 8   7326944.22045  24402586.984    24402587.9444   24402596.7034
     -3121.997       -2432.725
   4514039.684 9   3515921.03348  22467982.144    22467983.4504   22467989.5664
     -2080.939       -1621.511
   -983016.328 9   -744350.04446  24158058.636    24158059.3684   24158065.9094
      4038.261        3146.697
   4553359.722 9   3544193.70347  22835746.219    22835746.9484   22835752.7214
     -1493.624       -1163.863
   -971815.307 9   -753811.45948  20671310.098    20671311.0384   20671315.9954
       -98.198         -76.518
   2397264.409 9   1869380.56646  24215913.220    24215914.2524   24215919.7164
     -1642.475       -1279.851
  -4348825.764 9  -3213424.78348  20088839.609    20088840.7724   20088845.8454
       312.741         243.694
  -3067192.987 9  -2380290.10347  22550507.824    22550509.1924   22550514.7104
      -173.641        -135.305
 96 11 12 17 23 29.9990000  0  9 25 17  3 15 23 21  9  1 31         -0.000551046
 -10491250.693 9  -8156640.91846  23673978.056    23673979.6434   23673986.8154
      3769.305        2937.121
   9510509.685 8   7399989.06045  24420425.508    24420426.3644   24420435.1194
     -3126.963       -2436.595
   4576626.543 9   3564689.95948  22479892.113    22479893.3754   22479899.5414
     -2091.265       -1629.557
  -1104145.135 9   -838736.07246  24135008.431    24135009.0814   24135015.7294
      4037.124        3145.811
   4598218.940 9   3579148.90547  22844282.623    22844283.3564   22844289.2024
     -1496.674       -1166.239
   -968764.317 9   -751434.07748  20671890.583    20671891.6274   20671896.5984
      -104.973         -81.797
   2446756.400 9   1907945.75846  24225331.442    24225332.2784   24225337.5014
     -1656.807       -1291.018
  -4357978.929 9  -3220557.12148  20087097.804    20087098.9674   20087104.0604
       297.803         232.054
  -3061706.662 9  -2376015.07847  22551551.832    22551553.1954   22551558.7584
      -191.948        -149.570
 96 11 12 17 23 59.9990000  0  9 25 17  3 15 23 21  9  1 31         -0.000560057
 -10604313.706 9  -8244741.87146  23652462.598    23652464.4234   23652471.5774
      3768.267        2936.312
   9604396.470 9   7473147.49045  24438291.495    24438292.4964   24438301.2544
     -3132.098       -2440.596
   4639531.738 9   3613706.94948  22491862.662    22491863.8754   22491870.0104
     -2102.546       -1638.348
  -1225227.345 8   -933085.89646  24111967.630    24111968.2754   24111974.6734
      4035.034        3144.182
   4643171.961 9   3614177.19947  22852836.922    22852837.6204   22852843.5794
     -1500.183       -1168.974
   -965500.216 9   -748890.63748  20672511.780    20672512.7684   20672517.7444
      -112.667         -87.792
   2496692.255 9   1946856.79346  24234833.884    24234834.5044   24234839.8994
     -1672.287       -1303.081
  -4366684.261 9  -3227340.49448  20085441.276    20085442.3844   20085447.4754
       282.729         220.308
  -3055660.144 9  -2371303.53547  22552702.423    22552703.7474   22552709.4434
      -211.028        -164.437
 96 11 12 17 24 29.9990000  0  9 25 17  3 15 23 21  9  1 31         -0.000569055
 -10717366.993 9  -8332835.23646  23630948.797    23630951.0504   23630958.2084
      3768.303        2936.340
   9698410.005 8   7546404.69945  24456182.028    24456182.8404   24456191.4064
     -3135.666       -2443.376
   4702767.217 9   3662981.30548  22503896.032    22503897.2624   22503903.3374
     -2113.330       -1646.751
  -1346265.315 9  -1027401.20446  24088934.885    24088935.4384   24088941.8634
      4033.920        3143.314
   4688204.480 9   3649267.43647  22861406.204    22861406.9804   22861413.0484
     -1502.182       -1170.531
   -962026.707 9   -746184.01948  20673172.927    20673173.7644   20673178.7614
      -119.133         -92.831
   2547070.919 9   1986112.87046  24244420.362    24244421.5834   24244427.1044
     -1686.555       -1314.199
  -4374973.706 9  -3233799.80348  20083863.772    20083864.9344   20083870.0244
       269.533         210.026
  -3049076.707 9  -2366173.61347  22553955.627    22553956.5914   22553962.2594
      -227.995        -177.658
 96 11 12 17 24 59.9990000  0  9 25 17  3 15 23 21  9  1 31         -0.000578080
 -10830407.449 9  -8420918.61146  23609438.212    23609440.1884   23609447.2904
      3767.296        2935.555
   9792546.634 8   7619757.83845  24474095.420    24474096.6934   24474105.2064
     -3140.351       -2447.027
   4766335.588 9   3712515.05548  22515992.630    22515993.9624   22516000.0054
     -2124.604       -1655.536
  -1467253.894 9  -1121677.79546  24065911.077    24065911.7994   24065918.4604
      4031.731        3141.609
   4733299.183 9   3684406.13247  22869987.632    22869988.2754   22869994.2954
     -1504.338       -1172.211
   -958340.010 9   -743311.28948  20673874.494    20673875.3324   20673880.3294
      -126.834         -98.832
   2597895.140 8   2025716.11546  24254091.922    24254092.9874   24254098.6714
     -1702.054       -1326.276
  -4382843.152 9  -3239931.83948  20082366.257    20082367.4004   20082372.5174
       254.811         198.554
  -3041976.683 9  -2360641.15047  22555306.726    22555307.6234   22555313.3784
      -245.481        -191.284
 96 11 12 17 25 29.9990000  0  9 25 17  3 15 23 21  9  1 31         -0.000587070
 -10943403.751 9  -8508967.58446  23587935.370    23587937.6014   23587944.6784
      3765.538        2934.185
   9886817.504 8   7693215.56745  24492034.904    24492035.8764   24492044.3814
     -3144.545       -2450.295
   4830236.388 9   3762307.84248  22528152.675    22528153.9844   22528159.9734
     -2135.545       -1664.061
  -1588176.633 8  -1215903.45046  24042900.423    24042901.2374   24042907.5924
      4029.587        3139.938
   4778456.234 9   3719593.40947  22878580.936    22878581.4344   22878587.4344
     -1506.501       -1173.897
   -954428.044 9   -740263.02048  20674619.059    20674619.7854   20674624.7624
      -134.090        -104.486
   2649188.351 9   2065684.81946  24263852.558    24263853.8524   24263859.3714
     -1717.374       -1338.214
  -4390272.386 9  -3245720.85448  20080952.512    20080953.6444   20080958.7724
       240.133         187.117
  -3034358.528 9  -2354704.96247  22556756.699    22556757.3514   22556763.0944
      -262.617        -204.637
 96 11 12 17 25 59.9990000  0  9 25 17  3 15 23 21  9  1 31         -0.000596054
 -11056337.056 9  -8596967.46946  23566445.367    23566447.0074   23566454.0354
      3763.199        2932.363
   9981217.092 8   7766773.59945  24509999.192    24509999.5734   24510008.1764
     -3148.988       -2453.757
   4894453.288 9   3812346.94248  22540372.898    22540374.0934   22540380.1284
     -2145.567       -1671.870
  -1709036.850 9  -1310080.21746  24019901.227    24019902.1964   24019908.6514
      4027.675        3138.448
   4823681.549 9   3754833.87747  22887186.913    22887187.6074   22887193.5294
     -1508.805       -1175.692
   -950308.627 9   -737053.10048  20675402.988    20675403.7034   20675408.6854
      -140.490        -109.473
   2700931.098 9   2106003.82046  24273699.245    24273700.3024   24273705.7884
     -1732.222       -1349.783
  -4397249.283 9  -3251157.40048  20079624.912    20079625.9844   20079631.1044
       224.792         175.162
  -3026240.485 9  -2348379.24647  22558301.682    22558302.1584   22558307.9224
      -278.734        -217.195
 96 11 12 17 26 29.9990000  0  9 25 17  3 15 23 21  9  1 31         -0.000605048
 -11169196.655 9  -8684909.93646  23544968.772    23544970.4964   23544977.4244
      3761.294        2930.878
  10075745.086 8   7840431.67745  24527987.168    24527987.6504   24527996.4714
     -3152.444       -2456.450
   4958953.798 9   3862607.03048  22552647.088    22552648.1784   22552654.2314
     -2153.693       -1678.202
  -1829844.903 8  -1404216.33645  23996912.452    23996913.3464   23996919.7374
      4026.737        3137.717
   4868977.159 9   3790129.11747  22895806.494    22895807.1734   22895813.0604
     -1510.559       -1177.059
   -946009.568 9   -733703.19948  20676220.971    20676221.7884   20676226.7984
      -145.671        -113.510
   2753106.214 9   2146659.69146  24283627.596    24283628.8054   24283634.3834
     -1745.616       -1360.220
  -4403761.021 9  -3256231.48548  20078385.853    20078386.8624   20078391.9604
       209.772         163.459
  -3017651.232 9  -2341686.34247  22559936.244    22559936.6824   22559942.4664
      -293.503        -228.704
 96 11 12 17 26 59.9990000  0  9 25 17  3 15 23 21  9  1 31         -0.000614068
 -11281981.172 9  -8772793.89946  23523506.796    23523508.3364   23523515.1734
      3757.794        2928.151
  10170387.823 8   7914179.17345  24545996.427    24545997.4954   24546006.4014
     -3156.921       -2459.938
   5023695.129 9   3913054.78448  22564966.913    22564968.0704   22564974.1624
     -2162.203       -1684.834
  -1950609.077 9  -1498318.29246  23973931.652    23973932.6134   23973939.1064
      4024.420        3135.912
   4914348.586 9   3825483.43447  22904440.420    22904441.0514   22904446.9404
     -1514.150       -1179.857
   -941531.498 9   -730213.81148  20677073.237    20677073.9324   20677078.9634
      -152.641        -118.941
   2805697.887 9   2187640.19746  24293635.151    24293636.8034   24293642.2874
     -1760.267       -1371.637
  -4409804.304 9  -3260940.53848  20077235.796    20077236.8834   20077242.0004
       193.448         150.739
  -3008597.315 9  -2334631.37647  22561659.045    22561659.6144   22561665.4084
      -310.036        -241.586
 96 11 12 17 27 29.9990000  0  9 25 17  3 15 23 21  9  1 31         -0.000623083
 -11394651.185 9  -8860588.63246  23502066.442    23502067.8874   23502074.7254
      3754.194        2925.346
  10265163.655 8   7988030.38945  24564031.802    24564032.8604   24564041.6564
     -3161.080       -2463.179
   5088692.707 9   3963702.20947  22577335.443    22577336.7374   22577342.8194
     -2170.479       -1691.282
  -2071298.767 9  -1592362.12746  23950964.800    23950965.8204   23950972.3634
      4021.953        3133.989
   4959850.321 9   3860939.29347  22913099.137    22913099.8724   22913105.7154
     -1518.842       -1183.513
   -936841.682 9   -726559.42248  20677965.575    20677966.3504   20677971.4154
      -159.661        -124.411
   2858727.005 9   2228961.55946  24303726.230    24303727.9274   24303733.4234
     -1774.418       -1382.663
  -4415354.584 9  -3265265.43248  20076179.724    20076180.7044   20076185.8054
       177.069         137.976
  -2999031.942 9  -2327177.86247  22563479.693    22563479.9304   22563485.6554
      -327.278        -255.022
 96 11 12 17 27 59.9990000  0  9 25 17  3 15 23 21  9  1 31         -0.000632098
 -11507233.336 9  -8948314.90947  23480642.678    23480644.1534   23480650.9924
      3751.508        2923.253
  10360059.299 8   8061974.95745  24582090.204    24582091.0214   24582099.9024
     -3165.375       -2466.526
   5153922.579 9   4014530.64247  22589748.364    22589749.5724   22589755.7114
     -2177.910       -1697.073
  -2191920.871 9  -1686353.29045  23928011.346    23928012.2914   23928018.8034
      4019.679        3132.217
   5005490.371 9   3896502.91347  22921784.064    22921784.9664   22921790.7374
     -1523.578       -1187.204
   -931938.010 9   -722738.39548  20678898.649    20678899.4954   20678904.5604
      -167.108        -130.214
   2912177.259 9   2270611.07846  24313897.639    24313899.2434   24313904.7734
     -1788.763       -1393.841
  -4420426.923 9  -3269217.90048  20075214.486    20075215.4834   20075220.5814
       161.381         125.751
  -2988954.547 9  -2319325.36847  22565396.882    22565397.6194   22565403.3244
      -344.405        -268.368
 96 11 12 17 28 29.9990000  0  9 25 17  3 15 23 21  9  1 31         -0.000641108
 -11619741.561 9  -9035983.59947  23459233.085    23459234.4534   23459241.3624
      3749.409        2921.617
  10455084.587 8   8136020.53445  24600173.413    24600173.8494   24600182.5774
     -3169.474       -2469.720
   5219374.199 9   4065531.86747  22602203.449    22602204.6244   22602210.7964
     -2185.248       -1702.791
  -2312469.919 8  -1780287.70146  23905071.950    23905072.7034   23905079.1364
      4017.219        3130.301
   5051268.823 9   3932174.39047  22930495.526    22930496.3644   22930502.0984
     -1527.889       -1190.563
   -926799.122 9   -718734.07848  20679876.580    20679877.3724   20679882.4694
      -175.238        -136.549
   2966054.394 9   2312593.22746  24324150.316    24324151.6904   24324157.3724
     -1802.736       -1404.729
  -4425037.673 9  -3272810.69248  20074337.076    20074338.1134   20074343.1964
       146.283         113.987
  -2978352.755 9  -2311064.26547  22567414.553    22567415.1084   22567420.8124
      -362.320        -282.327
 96 11 12 17 28 59.9990000  0  9 25 17  3 15 23 21  9  1 31         -0.000650107
 -11732182.898 9  -9123600.17247  23437836.305    23437837.5744   23437844.4124
      3747.229        2919.919
  10550236.272 8   8210164.63245  24618279.951    24618280.8284   24618289.5024
     -3173.453       -2472.821
   5285060.515 9   4116715.96347  22614703.111    22614704.3574   22614710.5354
     -2193.429       -1709.165
  -2432940.404 8  -1874160.75945  23882147.415    23882147.7494   23882154.3084
      4014.690        3128.330
   5097176.169 9   3967946.29747  22939231.695    22939232.3784   22939238.0304
     -1532.017       -1193.779
   -921412.275 9   -714536.54648  20680901.551    20680902.4284   20680907.5704
      -183.062        -142.646
   3020359.843 9   2354909.13746  24334484.468    24334485.8384   24334491.3554
     -1817.061       -1415.892
  -4429194.602 9  -3276049.85948  20073546.030    20073547.0654   20073552.1444
       131.286         102.301
  -2967198.874 9  -2302372.94247  22569537.225    22569537.6394   22569543.3094
      -380.881        -296.790
 96 11 12 17 29 29.9990000  0  9 25 17  3 15 23 21  9  1 31         -0.000659104
 -11844570.828 9  -9211175.11547  23416449.413    23416450.7984   23416457.6504
      3745.179        2918.321
  10645505.232 8   8284400.08845  24636408.393    24636409.8954   24636418.7294
     -3177.913       -2476.296
   5350985.095 9   4168085.72647  22627248.180    22627249.4454   22627255.6074
     -2201.752       -1715.651
  -2553341.854 8  -1967980.01645  23859235.712    23859236.0774   23859242.6734
      4011.964        3126.206
   5143195.346 9   4003805.35147  22947988.865    22947989.6214   22947995.1824
     -1535.859       -1196.773
   -915817.609 9   -710177.07948  20681966.167    20681967.0754   20681972.2124
      -190.097        -148.127
   3075081.012 9   2397548.99246  24344897.667    24344899.0384   24344904.4834
     -1831.223       -1426.927
  -4432903.069 9  -3278939.57548  20072840.285    20072841.3824   20072846.4354
       115.861          90.281
  -2955497.939 9  -2293255.35347  22571763.880    22571764.2644   22571769.9434
      -399.286        -311.132
 96 11 12 17 29 59.9990000  0  9 25 17  3 15 23 21  9  1 31         -0.000668101
 -11956903.125 9  -9298706.73947  23395073.151    23395074.6414   23395081.3954
      3743.603        2917.093
  10740905.799 8   8358738.08645  24654562.755    24654563.8444   24654573.1274
     -3181.927       -2479.424
   5417154.024 9   4219645.89347  22639839.647    22639840.9654   22639847.1754
     -2209.533       -1721.714
  -2673671.217 9  -2061743.19846  23836337.832    23836338.1474   23836344.6124
      4010.046        3124.711
   5189306.335 9   4039735.93747  22956763.434    22956764.2114   22956769.8714
     -1537.994       -1198.437
   -910021.931 9   -705660.97748  20683069.061    20683069.9564   20683075.0984
      -196.034        -152.754
   3130222.814 9   2440516.59246  24355390.465    24355392.0774   24355397.6134
     -1844.928       -1437.606
  -4436164.685 9  -3281481.09548  20072219.609    20072220.7174   20072225.7494
       101.597          79.166
  -2943257.462 9  -2283717.34247  22574093.167    22574093.5584   22574099.2824
      -416.606        -324.628
 96 11 12 17 30 29.9990000  0  9 25 17  3 15 23 21  9  1 31         -0.000677092
 -12069153.585 9  -9386174.58847  23373712.616    23373714.0434   23373720.7164
      3740.347        2914.556
  10836454.200 8   8433191.29145  24672745.174    24672746.1054   24672755.2864
     -3187.106       -2483.459
   5483595.749 9   4271418.62147  22652483.216    22652484.4444   22652490.6584
     -2219.487       -1729.470
  -2793920.194 9  -2155443.59346  23813455.240    23813455.2484   23813462.0714
      4007.047        3122.374
   5235496.785 9   4075728.45547  22965553.223    22965553.9684   22965559.7084
     -1540.879       -1200.685
   -904035.696 9   -700996.38748  20684208.292    20684209.1014   20684214.2414
      -202.603        -157.872
   3185798.035 9   2483821.94946  24365966.109    24365967.7604   24365973.2474
     -1859.635       -1449.066
  -4438966.463 9  -3283664.30248  20071686.440    20071687.5784   20071692.5794
        85.584          66.689
  -2930469.249 9  -2273752.53347  22576526.647    22576527.0614   22576532.8544
      -435.473        -339.330
 96 11 12 17 30 59.9990000  0  9 25 17  3 15 23 21  9  1 31         -0.000686081
 -12181315.429 9  -9473573.38747  23352368.376    23352370.2784   23352376.9864
      3737.077        2912.008
  10932141.986 8   8507753.10545  24690953.747    24690955.0904   24690964.1044
     -3192.137       -2487.379
   5550326.133 9   4323416.27747  22665181.558    22665182.8094   22665189.0314
     -2229.335       -1737.144
  -2914093.276 8  -2249084.99345  23790587.263    23790587.1244   23790593.7654
      4004.370        3120.288
   5281760.401 9   4111777.97647  22974356.820    22974357.6604   22974363.4844
     -1543.630       -1202.829
   -897869.855 9   -696191.85048  20685381.692    20685382.4404   20685387.6044
      -208.685        -162.612
   3241804.760 9   2527463.50246  24376624.084    24376625.5784   24376631.0594
     -1874.048       -1460.297
  -4441301.853 9  -3285484.08648  20071242.106    20071243.2114   20071248.1924
        70.039          54.576
  -2917143.040 9  -2263368.49047  22579062.917    22579063.0044   22579068.7874
      -452.916        -352.922
 96 11 12 17 31 29.9990000  0  9 25 17  3 15 23 21  9  1 31         -0.000695058
 -12293364.947 9  -9560884.65947  23331046.265    23331047.8954   23331054.6574
      3732.951        2908.793
  11027997.878 8   8582445.91445  24709194.526    24709195.6254   24709205.0304
     -3198.323       -2492.200
   5617367.648 9   4375656.37747  22677939.153    22677940.4294   22677946.6304
     -2240.052       -1745.495
  -3034170.742 8  -2342651.72646  23767737.550    23767737.1084   23767743.9234
      4000.657        3117.395
   5328123.091 9   4147904.69247  22983179.480    22983180.2374   22983185.9724
     -1547.268       -1205.663
   -891494.711 9   -691224.21648  20686594.826    20686595.6124   20686600.7584
      -216.575        -168.760
   3298247.084 8   2571444.47746  24387364.716    24387366.0834   24387371.7454
     -1888.880       -1471.855
  -4443155.840 9  -3286928.75348  20070889.367    20070890.4294   20070895.3904
        53.728          41.866
  -2903286.455 9  -2252571.16847  22581699.273    22581699.8354   22581705.6154
      -470.913        -366.945
 96 11 12 17 31 59.9990000  0  9 25 17  3 15 23 21  9  1 31         -0.000704028
 -12405323.743 9  -9648125.24247  23309741.181    23309742.7844   23309749.5994
      3731.451        2907.624
  11124004.722 8   8657256.34845  24727464.147    24727465.2784   24727474.5514
     -3201.677       -2494.813
   5684707.041 9   4428128.58847  22690753.347    22690754.7304   22690760.9934
     -2248.712       -1752.243
  -3154158.108 9  -2436148.34646  23744903.801    23744904.1804   23744910.9044
      3998.967        3116.078
   5374574.256 9   4184100.35147  22992018.746    22992019.5664   22992025.3904
     -1549.085       -1207.079
   -884898.861 9   -686084.60148  20687849.937    20687850.7924   20687855.9384
      -222.641        -173.486
   3355113.008 9   2615755.59746  24398185.859    24398187.3214   24398192.8494
     -1901.643       -1481.800
  -4444554.057 9  -3288018.27448  20070623.328    20070624.3984   20070629.3264
        39.819          31.028
  -2888911.292 9  -2241369.76147  22584434.422    22584435.3964   22584441.1274
      -486.975        -379.461
 96 11 12 17 32 29.9990000  0  9 25 17  3 15 23 21  9  1 31         -0.000712999
 -12517215.101 9  -9735313.27647  23288449.000    23288450.5324   23288457.3964
      3729.044        2905.749
  11220131.407 8   8732160.18245  24745757.400    24745757.7594   24745766.9664
     -3205.786       -2498.015
   5752329.140 9   4480821.09847  22703621.527    22703622.8354   22703629.0414
     -2258.277       -1759.696
  -3274067.655 8  -2529584.39345  23722086.213    23722086.3414   23722092.8214
      3995.940        3113.719
   5421117.706 9   4220367.92847  23000875.752    23000876.5524   23000882.3394
     -1552.907       -1210.057
   -878091.406 9   -680780.09348  20689145.374    20689146.2194   20689151.3694
      -230.251        -179.416
   3412377.541 8   2660377.30346  24409083.207    24409084.4474   24409090.0074
     -1914.984       -1492.195
  -4445505.082 9  -3288759.32848  20070442.323    20070443.4364   20070448.3424
        24.698          19.245
  -2874033.951 9  -2229777.05247  22587265.786    22587266.4934   22587272.2764
      -503.874        -392.629
 96 11 12 17 32 59.9990000  0  9 25 17  3 15 23 21  9  1 31         -0.000721977
 -12629053.806 9  -9822460.28247  23267166.986    23267168.3134   23267175.1634
      3726.885        2904.066
  11316355.693 8   8807140.04245  24764066.920    24764068.7284   24764077.9684
     -3209.408       -2500.837
   5820207.877 9   4533713.57147  22716538.592    22716539.8014   22716546.0324
     -2266.995       -1766.490
  -3393897.905 9  -2622958.53546  23699282.582    23699283.4064   23699289.9354
      3992.693        3111.189
   5467769.995 9   4256720.30547  23009753.262    23009754.2274   23009759.9094
     -1557.262       -1213.451
   -871063.187 9   -675303.57348  20690482.837    20690483.6794   20690488.8134
      -238.243        -185.644
   3470024.806 8   2705297.15046  24420052.616    24420054.0524   24420060.0934
     -1928.183       -1502.480
  -4446022.938 9  -3289162.86048  20070343.795    20070344.9084   20070349.8204
         9.883           7.701
  -2858675.425 9  -2217809.40347  22590188.722    22590189.1674   22590194.9544
      -520.104        -405.276
 96 11 12 17 33 29.9990000  0  9 25 17  3 15 23 21  9  1 31         -0.000730954
 -12740841.204 9  -9909567.29747  23245894.952    23245895.8694   23245902.7114
      3725.431        2902.933
  11412677.497 8   8882195.89845  24782396.803    24782398.2534   24782407.3144
     -3212.257       -2503.057
   5888338.657 9   4586802.44747  22729503.520    22729504.6594   22729510.8974
     -2275.064       -1772.777
  -3513633.674 9  -2716259.13746  23676496.904    23676498.4184   23676504.6934
      3989.658        3108.824
   5514546.514 9   4293169.48747  23018654.440    23018655.4584   23018661.1534
     -1561.152       -1216.482
   -863803.891 9   -669646.99048  20691864.213    20691865.1044   20691870.2094
      -245.686        -191.444
   3528064.794 9   2750523.19046  24431097.392    24431098.7824   24431104.3094
     -1941.376       -1512.761
  -4446102.250 9  -3289224.66148  20070328.708    20070329.8384   20070334.7434
        -4.629          -3.607
  -2842826.893 9  -2205459.92347  22593204.564    22593205.0874   22593210.8104
      -536.595        -418.126
 96 11 12 17 33 59.9990000  0  9 25 17  3 15 23 21  9  1 31         -0.000739936
 -12852580.145 9  -9996636.56847  23224631.433    23224632.6404   23224639.4054
      3723.501        2901.429
  11509077.966 8   8957313.06845  24800741.164    24800742.9244   24800751.9324
     -3214.653       -2504.924
   5956698.346 9   4640069.69547  22742511.917    22742513.1314   22742519.3474
     -2282.375       -1778.474
  -3633281.310 9  -2809490.98546  23653728.939    23653730.2914   23653736.6794
      3986.725        3106.539
   5561438.070 9   4329708.31947  23027577.775    23027578.6654   23027584.3784
     -1564.861       -1219.372
   -856327.993 9   -663821.62048  20693286.824    20693287.7384   20693292.8364
      -252.870        -197.042
   3586500.709 8   2796057.65446  24442217.135    24442218.7074   24442224.5644
     -1954.414       -1522.920
  -4445744.993 9  -3288946.28248  20070396.721    20070397.8284   20070402.7364
       -19.343         -15.072
  -2826488.935 9  -2192729.06647  22596313.659    22596314.1044   22596319.8304
      -552.704        -430.678
 96 11 12 17 34 29.9990000  0  9 25 17  3 15 23 21  9  1 31         -0.000748904
 -12964241.908 9 -10083645.68147  23203382.469    23203384.0394   23203390.8074
      3720.413        2899.023
  11605564.920 8   9032497.58845  24819102.455    24819103.6594   24819112.8834
     -3217.935       -2507.482
   6025275.077 9   4693506.05847  22755561.813    22755562.8594   22755569.1134
     -2289.522       -1784.043
  -3752839.129 9  -2902652.90046  23630977.587    23630979.1684   23630985.4774
      3983.550        3104.065
   5608437.338 9   4366331.05447  23036521.243    23036522.3194   23036528.1824
     -1568.528       -1222.230
   -848627.924 9   -657821.57948  20694752.180    20694753.0444   20694758.1304
      -260.598        -203.063
   3645326.004 9   2841895.42546  24453411.080    24453412.7394   24453418.8954
     -1967.502       -1533.118
  -4444945.275 9  -3288323.12948  20070548.890    20070550.0114   20070554.9044
       -34.120         -26.587
  -2809673.203 9  -2179625.92847  22599513.073    22599514.0174   22599519.7554
      -568.608        -443.071
 96 11 12 17 34 59.9990000  0  9 25 17  3 15 23 21  9  1 31         -0.000757887
 -13075796.155 9 -10170571.02747  23182154.673    23182155.9564   23182162.7044
      3716.578        2896.035
  11702162.664 8   9107768.44545  24837484.821    24837485.7534   24837495.0414
     -3221.905       -2510.575
   6094064.524 9   4747108.18047  22768651.934    22768653.1064   22768659.3384
     -2296.568       -1789.534
  -3872295.291 9  -2995735.57346  23608246.112    23608247.4024   23608253.8994
      3980.289        3101.524
   5655540.054 9   4403034.41347  23045484.787    23045485.7024   23045491.5244
     -1571.533       -1224.571
   -840686.966 9   -651633.82548  20696263.216    20696264.1464   20696269.2614
      -268.655        -209.341
   3704547.927 9   2888042.45346  24464680.689    24464682.5004   24464688.0764
     -1980.647       -1543.361
  -4443693.011 9  -3287347.34248  20070787.203    20070788.3274   20070793.2244
       -49.333         -38.441
  -2792372.391 9  -2166144.80747  22602805.597    22602806.2564   22602811.9894
      -584.818        -455.702
 96 11 12 17 35 29.9990000  0  9 25 17  3 15 23 21  9  1 31         -0.000766867
 -13187203.798 9 -10257382.12647  23160954.221    23160955.7784   23160962.5174
      3711.228        2891.866
  11798902.364 8   9183149.93645  24855893.556    24855894.7754   24855903.8854
     -3226.662       -2514.282
   6163089.951 9   4800894.17847  22781787.174    22781788.2424   22781794.5174
     -2304.228       -1795.502
  -3991630.189 9  -3088723.80846  23585537.402    23585538.6604   23585545.0384
      3976.220        3098.353
   5702748.514 9   4439820.17447  23054468.368    23054469.1854   23054475.0564
     -1574.913       -1227.205
   -832494.696 9   -645250.24548  20697822.248    20697823.1094   20697828.1964
      -276.741        -215.642
   3764184.454 9   2934512.42746  24476028.953    24476030.9614   24476036.6304
     -1994.296       -1553.997
  -4441964.566 9  -3286000.50448  20071116.012    20071117.2414   20071122.1574
       -65.078         -50.710
  -2774558.093 9  -2152263.55347  22606195.290    22606196.2574   22606201.9944
      -601.991        -469.084
 96 11 12 17 35 59.9990000  0  9 25 17  3 15 23 21  9  1 31         -0.000775860
 -13298475.672 9 -10344087.43347  23139780.277    23139781.4774   23139788.1834
      3706.897        2888.491
  11895757.148 8   9258621.12145  24874324.149    24874325.7784   24874334.4494
     -3230.481       -2517.258
   6232298.268 9   4854822.68647  22794957.157    22794958.1874   22794964.5054
     -2309.871       -1799.899
  -4110875.930 9  -3181642.54046  23562845.654    23562846.8874   23562853.2944
      3973.354        3096.120
   5750025.323 9   4476659.20247  23063465.091    23063465.7874   23063471.5684
     -1577.017       -1228.844
   -824094.792 9   -638704.87348  20699420.594    20699421.5964   20699426.6634
      -283.468        -220.884
   3824201.794 9   2981279.14546  24487450.173    24487451.9404   24487457.7944
     -2006.878       -1563.801
  -4439800.360 9  -3284314.11248  20071527.919    20071529.0724   20071534.0164
       -79.270         -61.769
  -2756268.325 9  -2138011.81647  22609676.448    22609676.6734   22609682.4824
      -617.523        -481.187
 96 11 12 17 36 29.9990000  0  9 25 17  3 15 23 21  9  1 31         -0.000784864
 -13409606.175 9 -10430682.58047  23118632.802    23118634.0094   23118640.7834
      3702.055        2884.718
  11992739.456 8   9334191.62345  24892779.218    24892780.9344   24892789.9754
     -3234.803       -2520.626
   6301688.841 9   4908893.20747  22808161.837    22808162.7864   22808169.1454
     -2316.259       -1804.877
  -4230020.651 9  -3274482.58446  23540173.264    23540174.3914   23540180.7844
      3969.643        3093.228
   5797383.384 9   4513561.52747  23072477.172    23072477.7664   23072483.6544
     -1580.267       -1231.377
   -815485.566 9   -631996.39548  20701058.968    20701059.8804   20701064.9404
      -290.379        -226.269
   3884609.104 9   3028349.70346  24498945.294    24498946.9484   24498953.0724
     -2020.288       -1574.250
  -4437197.113 9  -3282285.60848  20072023.233    20072024.4404   20072029.4144
       -94.241         -73.434
  -2737500.388 9  -2123387.48047  22613247.738    22613248.1264   22613253.9614
      -633.763        -493.841
 96 11 12 17 36 59.9990000  0  9 25 17  3 15 23 21  9  1 31         -0.000793876
 -13520607.843 9 -10517177.32347  23097509.709    23097511.0514   23097517.8374
      3698.163        2881.685
  12089831.027 8   9409847.34245  24911255.252    24911256.8714   24911265.9524
     -3237.917       -2523.052
   6371269.060 9   4963111.51847  22821402.430    22821403.4744   22821409.8744
     -2322.533       -1809.766
  -4349062.063 9  -3367242.10146  23517520.749    23517521.6544   23517527.9084
      3966.385        3090.690
   5844835.088 9   4550536.83247  23081507.088    23081507.5814   23081513.4554
     -1583.231       -1233.686
   -806680.621 9   -625135.40348  20702734.601    20702735.4224   20702740.5004
      -296.506        -231.044
   3945419.877 9   3075734.76846  24510517.279    24510519.0314   24510524.7774
     -2033.754       -1584.743
  -4434153.764 9  -3279914.16648  20072602.404    20072603.5384   20072608.5674
      -108.556         -84.589
  -2718252.021 9  -2108388.76847  22616910.773    22616910.9634   22616916.7874
      -649.521        -506.120
 96 11 12 17 37 29.9990000  0  9 25 17  3 15 23 21  9  1 31         -0.000802887
 -13631486.850 9 -10603576.50547  23076410.124    23076411.4244   23076418.1804
      3693.988        2878.432
  12187024.251 8   9485582.20645  24929751.153    24929752.2334   24929761.6324
     -3241.479       -2525.828
   6441050.209 9   5017486.38747  22834681.170    22834682.3634   22834688.8694
     -2329.326       -1815.059
  -4467991.345 9  -3459914.28646  23494889.256    23494890.2444   23494896.4564
      3962.332        3087.531
   5892398.189 9   4587598.92347  23090557.980    23090558.5664   23090564.4454
     -1587.426       -1236.955
   -797684.727 9   -618125.62548  20704446.506    20704447.2744   20704452.3734
      -303.160        -236.229
   4006648.086 8   3123445.04346  24522168.781    24522170.4504   24522176.2134
     -2047.899       -1595.765
  -4430674.359 9  -3277202.94248  20073264.473    20073265.6514   20073270.6944
      -123.392         -96.150
  -2698513.533 9  -2093008.15547  22620666.626    22620667.0774   22620672.9354
      -666.160        -519.086
 96 11 12 17 37 59.9990000  0  8 25  3 15 23 21  9  1 31            -0.000811907
 -13742272.769 9 -10689903.14547  23055328.450    23055329.5284   23055336.2574
      3691.476        2876.475
   6511018.570 9   5072007.13647  22847995.961    22847996.9774   22848003.4374
     -2335.729       -1820.049
  -4586812.549 9  -3552502.20946  23472277.993    23472279.3154   23472285.4244
      3958.765        3084.752
   5940072.106 9   4624747.37247  23099630.115    23099630.6794   23099636.5864
     -1591.006       -1239.745
   -788495.009 9   -610964.81548  20706195.359    20706196.0184   20706201.1074
      -309.895        -241.477
   4068288.746 9   3171476.63146  24533898.763    24533900.2224   24533906.2534
     -2061.583       -1606.428
  -4426755.435 9  -3274149.23448  20074010.251    20074011.3854   20074016.4374
      -138.149        -107.648
  -2678295.283 9  -2077253.69747  22624514.122    22624514.5124   22624520.3734
      -682.158        -531.552
 96 11 12 17 38 29.9990000  0  8 25  3 15 23 21  9  1 31            -0.000820933
 -13852967.030 9 -10776158.36147  23034263.994    23034265.0824   23034271.7794
      3687.810        2873.618
   6581206.010 9   5126698.59547  22861352.148    22861353.2394   22861359.6754
     -2343.721       -1826.276
  -4705513.783 9  -3644996.60046  23449689.732    23449691.1454   23449697.5274
      3954.359        3081.319
   5987862.764 9   4661986.79847  23108724.515    23108725.0364   23108730.8694
     -1595.275       -1243.071
   -779083.679 9   -603631.32648  20707986.357    20707986.9434   20707992.0324
      -317.705        -247.562
   4130332.271 9   3219822.20746  24545705.485    24545706.6024   24545712.7174
     -2075.058       -1616.928
  -4422380.351 9  -3270740.07648  20074842.782    20074843.9144   20074849.0104
      -153.709        -119.773
  -2657580.141 9  -2061112.06247  22628455.840    22628456.5164   22628462.3574
      -699.134        -544.780
 96 11 12 17 38 59.9990000  0  8 25  3 15 23 21  9  1 31            -0.000829956
 -13963553.500 9 -10862329.59647  23013219.809    23013221.1964   23013227.8404
      3684.582        2871.103
   6651634.026 9   5181577.51747  22874754.157    22874755.2684   22874761.7334
     -2351.351       -1832.222
  -4824081.839 9  -3737387.31146  23427127.183    23427128.3914   23427134.5504
      3950.127        3078.021
   6035772.523 9   4699319.01447  23117841.285    23117841.9764   23117847.8774
     -1598.767       -1245.792
   -769437.007 9   -596114.44848  20709822.023    20709822.6424   20709827.7594
      -325.462        -253.607
   4192782.138 8   3268484.48646  24557589.420    24557590.4584   24557596.4284
     -2088.214       -1627.180
  -4417541.165 9  -3266969.27748  20075763.619    20075764.7764   20075769.8754
      -168.822        -131.550
  -2636355.933 9  -2044573.74647  22632494.760    22632495.4124   22632501.2114
      -715.810        -557.774
 96 11 12 17 39 29.9990000  0  8 25  3 15 23 21  9  1 31            -0.000838988
 -14074041.477 9 -10948424.07847  22992194.740    22992195.9924   22992202.5904
      3681.491        2868.694
   6722278.639 9   5236625.20247  22888197.665    22888198.5434   22888205.0114
     -2358.029       -1837.425
  -4942528.872 9  -3829683.69146  23404587.454    23404588.7224   23404594.8534
      3946.545        3075.230
   6083777.039 9   4736725.08147  23126976.260    23126977.0384   23126982.8614
     -1601.257       -1247.733
   -759564.004 9   -588421.21048  20711700.720    20711701.4304   20711706.5314
      -332.751        -259.286
   4255607.287 8   3317439.03646  24569544.360    24569545.5944   24569551.7804
     -2099.934       -1636.312
  -4412259.529 9  -3262853.71748  20076768.650    20076769.8194   20076774.9434
      -183.128        -142.697
  -2614643.466 9  -2027654.97847  22636625.837    22636627.1514   22636632.9274
      -731.377        -569.904
 96 11 12 17 39 59.9990000  0  8 25  3 15 23 21  9  1 31            -0.000848032
 -14184421.586 9 -11034434.50947  22971189.871    22971191.3154   22971197.9504
      3677.891        2865.889
   6793139.832 9   5291841.65647  22901682.236    22901683.0254   22901689.5264
     -2365.074       -1842.915
  -5060855.910 9  -3921886.56246  23382070.656    23382071.8344   23382077.9814
      3942.841        3072.344
   6131867.691 9   4774198.25747  23136127.668    23136128.4244   23136134.3294
     -1603.792       -1249.708
   -749453.008 9   -580542.51548  20713624.798    20713625.4934   20713630.5974
      -340.397        -265.244
   4318788.852 9   3366671.39146  24581567.547    24581568.8004   24581574.7964
     -2111.295       -1645.165
  -4406539.139 9  -3258396.26548  20077857.132    20077858.3874   20077863.5184
      -197.090        -153.577
  -2592465.742 9  -2010373.65647  22640846.321    22640847.4684   22640853.2804
      -746.381        -581.596
 96 11 12 17 40 29.9990000  0  8 25  3 15 23 21  9  1 31            -0.000857085
 -14294681.765 9 -11120351.49247  22950208.026    22950209.4814   22950216.1384
      3672.690        2861.836
   6864203.517 9   5347215.90247  22915204.917    22915206.0484   22915212.5734
     -2372.485       -1848.690
  -5179076.865 9  -4014006.74346  23359573.900    23359575.1544   23359581.2474
      3938.502        3068.963
   6180030.550 9   4811727.70347  23145292.919    23145293.5834   23145299.4214
     -1607.144       -1252.320
   -739121.113 9   -572491.69148  20715590.792    20715591.5864   20715596.7034
      -348.308        -271.409
   4382305.252 8   3416164.72345  24593654.637    24593655.7774   24593661.3524
     -2123.342       -1654.552
  -4400418.137 9  -3253626.65148  20079021.859    20079023.1664   20079028.2994
      -211.074        -164.473
  -2569848.250 9  -1992749.66547  22645150.339    22645151.4414   22645157.2814
      -761.546        -593.412
 96 11 12 17 40 59.9990000  0  8 25  3 15 23 21  9  1 31            -0.000866132
 -14404790.526 9 -11206150.49747  22929255.120    22929256.4464   22929263.0674
      3668.010        2858.190
   6935477.666 9   5402754.14447  22928767.985    22928769.0554   22928775.6424
     -2379.102       -1853.846
  -5297168.147 9  -4106025.91546  23337101.904    23337103.0584   23337109.0514
      3934.293        3065.683
   6228289.845 9   4849332.29247  23154476.151    23154477.0794   23154482.9344
     -1610.208       -1254.707
   -728554.177 9   -564257.71948  20717601.671    20717602.4204   20717607.5384
      -356.239        -277.589
   4446189.917 8   3465944.89946  24605811.191    24605812.3434   24605818.2524
     -2135.422       -1663.965
  -4393881.279 9  -3248532.99048  20080265.799    20080267.0684   20080272.2324
      -224.675        -175.071
  -2546784.612 9  -1974778.03347  22649539.358    22649540.3604   22649546.1374
      -776.138        -604.783
 96 11 12 17 41 29.9990000  0  8 25  3 15 23 21  9  1 31            -0.000875165
 -14514747.074 9 -11291830.90347  22908331.361    22908332.3624   22908338.9504
      3662.911        2854.216
   7006959.033 9   5458453.85147  22942370.463    22942371.6094   22942378.1474
     -2385.732       -1859.012
  -5415125.513 9  -4197940.75146  23314655.690    23314656.5424   23314662.5334
      3929.992        3062.331
   6276651.930 9   4887016.96847  23163679.286    23163680.0544   23163685.9964
     -1613.517       -1257.286
   -717735.606 9   -555827.67448  20719660.354    20719661.1344   20719666.2574
      -364.505        -284.030
   4510434.255 9   3516005.37246  24618036.696    24618037.8214   24618043.6944
     -2147.074       -1673.045
  -4386933.286 9  -3243118.97048  20081587.941    20081589.2164   20081594.3934
      -238.226        -185.631
  -2523264.805 9  -1956450.93747  22654014.811    22654016.0584   22654021.8574
      -791.473        -616.732
 96 11 12 17 41 59.9990000  0  8 25  3 15 23 21  9  1 31            -0.000884186
 -14624548.262 9 -11377390.23547  22887436.514    22887437.8684   22887444.4204
      3657.381        2849.907
   7078633.474 9   5514303.99947  22956009.797    22956010.8574   22956017.3894
     -2392.292       -1864.124
  -5532951.512 9  -4289753.17346  23292234.297    23292235.0044   23292241.0604
      3925.216        3058.610
   6325122.265 9   4924785.99647  23172902.814    23172903.7294   23172909.6214
     -1617.611       -1260.476
   -706670.823 9   -547205.77048  20721765.974    20721766.7124   20721771.8384
      -372.946        -290.607
   4575033.221 8   3566342.25545  24630329.431    24630330.7224   24630336.3784
     -2159.518       -1682.741
  -4379573.313 9  -3237383.92248  20082988.561    20082989.7514   20082994.9484
      -252.216        -196.532
  -2499273.921 9  -1937756.77547  22658579.746    22658581.3434   22658587.2064
      -808.061        -629.658
 96 11 12 17 42 29.9990000  0  8 25  3 15 23 21  9  1 31            -0.000893191
 -14734199.607 9 -11462832.82047  22866570.509    22866571.9104   22866578.4194
      3652.507        2846.109
   7150481.185 9   5570289.15247  22969682.213    22969683.0794   22969689.6384
     -2397.830       -1868.439
  -5650645.317 9  -4381462.63246  23269837.773    23269838.5344   23269844.5254
      3920.792        3055.163
   6373700.618 9   4962639.19147  23182147.143    23182147.9054   23182153.8264
     -1621.275       -1263.331
   -695370.863 9   -538400.61548  20723916.246    20723917.0274   20723922.1444
      -380.624        -296.590
   4639997.383 8   3616963.61046  24642691.315    24642692.7604   24642698.7694
     -2171.573       -1692.135
  -4371809.594 9  -3231334.27148  20084466.011    20084467.1344   20084472.3284
      -265.797        -207.115
  -2474786.212 9  -1918675.47947  22663239.457    22663241.2044   22663247.0674
      -824.759        -642.669
 96 11 12 17 42 59.9990000  0  8 25  3 15 23 21  9  1 31            -0.000902186
 -14843707.898 9 -11548163.94247  22845731.482    22845733.1404   22845739.6414
      3648.024        2842.616
   7222496.192 9   5626404.67947  22983385.929    22983387.0744   22983393.6344
     -2403.316       -1872.714
  -5768202.966 9  -4473065.98346  23247467.432    23247468.1164   23247474.1084
      3916.312        3051.672
   6422391.291 9   5000579.91347  23191412.797    23191413.5024   23191419.4604
     -1624.944       -1266.190
   -683838.572 9   -529414.42248  20726110.858    20726111.5564   20726116.6644
      -388.280        -302.556
   4705322.032 8   3667865.94246  24655122.623    24655123.8154   24655129.5924
     -2183.516       -1701.441
  -4363631.559 9  -3224961.77848  20086022.208    20086023.3764   20086028.5684
      -279.549        -217.830
  -2449792.526 9  -1899199.91847  22667995.831    22667997.3964   22668003.1994
      -841.673        -655.849
 96 11 12 17 43 29.9990000  0  8 25  3 15 23 21  9  1 31            -0.000911163
 -14953060.800 9 -11633373.97447  22824922.322    22824923.9184   22824930.4784
      3641.906        2837.849
   7294687.314 9   5682657.44647  22997123.448    22997124.6524   22997131.2184
     -2409.467       -1877.507
  -5885611.121 9  -4564552.82146  23225125.342    23225126.0874   23225132.1614
      3910.706        3047.303
   6471211.450 9   5038621.53147  23200702.893    23200703.7114   23200709.7024
     -1629.920       -1270.068
   -672072.305 9   -520245.91048  20728349.899    20728350.6314   20728355.7324
      -396.264        -308.777
   4771016.340 8   3719056.28245  24667623.897    24667625.0024   24667630.7104
     -2196.367       -1711.455
  -4355025.268 9  -3218255.57648  20087660.076    20087661.1054   20087666.2694
      -294.414        -229.413
  -2424274.797 9  -1879316.00647  22672852.758    22672853.2954   22672859.0904
      -859.524        -669.759
 96 11 12 17 43 59.9990000  0  8 25  3 15 23 21  9  1 31            -0.000920129
 -15062248.623 9 -11718455.36947  22804144.439    22804146.1574   22804152.7464
      3636.968        2834.001
   7367041.463 9   5739037.23347  23010891.834    23010893.2164   23010899.8304
     -2414.661       -1881.554
  -6002868.595 9  -4655922.27846  23202812.258    23202812.7554   23202818.7784
      3905.994        3043.632
   6520159.541 9   5076762.83947  23210017.514    23210018.3064   23210024.1964
     -1633.575       -1272.916
   -660095.870 9   -510913.63548  20730628.830    20730629.6414   20730634.7884
      -402.717        -313.805
   4837084.546 9   3770538.01346  24680196.629    24680197.4354   24680203.0764
     -2208.548       -1720.946
  -4345993.494 9  -3211217.83348  20089378.811    20089379.8164   20089384.9444
      -308.054        -240.042
  -2398257.934 9  -1859043.15447  22677803.164    22677804.2004   22677810.0164
      -875.246        -682.010
 96 11 12 17 44 29.9990000  0  8 25  3 15 23 21  9  1 31            -0.000929098
 -15171293.543 9 -11803425.42047  22783394.282    22783395.6234   22783402.1254
      3631.982        2830.116
   7439552.446 9   5795539.23747  23024690.120    23024691.5964   23024698.2614
     -2420.132       -1885.817
  -6119984.854 9  -4747181.70946  23180525.223    23180526.2614   23180532.1944
      3901.124        3039.837
   6569211.397 9   5114984.99347  23219351.989    23219352.7104   23219358.5634
     -1637.168       -1275.715
   -647928.397 9   -501432.49748  20732944.233    20732945.0484   20732950.1784
      -409.121        -318.796
   4903513.098 8   3822300.50046  24692837.403    24692838.0664   24692844.1724
     -2220.488       -1730.250
  -4336553.506 9  -3203861.99648  20091175.189    20091176.2214   20091181.3254
      -322.041        -250.941
  -2371784.484 9  -1838414.52947  22682841.119    22682841.8684   22682847.7564
      -889.974        -693.486
 96 11 12 17 44 59.9990000  0  8 25  3 15 23 21  9  1 31            -0.000938084
 -15280196.629 9 -11888284.94747  22762670.793    22762672.1024   22762678.5534
      3627.408        2826.552
   7512222.448 9   5852165.15547  23038518.989    23038520.2964   23038526.9474
     -2425.235       -1889.793
  -6236962.766 9  -4838333.28546  23158265.253    23158266.0714   23158272.1474
      3896.560        3036.281
   6618364.811 9   5153286.27647  23228705.695    23228706.3064   23228712.1504
     -1640.524       -1278.330
   -635580.880 9   -491811.05948  20735294.069    20735294.7314   20735299.8374
      -414.893        -323.293
   4970291.380 9   3874335.47346  24705544.827    24705545.6734   24705551.6214
     -2232.251       -1739.416
  -4326698.129 9  -3196182.48748  20093050.761    20093051.6794   20093056.7464
      -335.634        -261.533
  -2344895.636 9  -1817462.20947  22687957.775    22687958.7024   22687964.6024
      -903.501        -704.027
 96 11 12 17 45 29.9990000  0  8 25  3 15 23 21  9  1 31            -0.000947086
 -15388951.727 9 -11973029.14847  22741975.541    22741976.6764   22741983.1094
      3622.707        2822.889
   7585041.079 9   5908906.87247  23052376.248    23052377.2344   23052383.9854
     -2429.566       -1893.168
  -6353797.617 9  -4929373.43246  23136032.593    23136033.1254   23136039.1684
      3892.094        3032.801
   6667621.366 9   5191667.94447  23238078.917    23238079.5044   23238085.3774
     -1643.441       -1280.603
   -623053.476 9   -482049.45748  20737677.999    20737678.6304   20737683.7294
      -420.659        -327.786
   5037426.718 8   3926648.79145  24718320.310    24718321.2004   24718326.9164
     -2243.586       -1748.249
  -4316430.974 9  -3188182.10648  20095004.475    20095005.4604   20095010.5034
      -348.997        -271.946
  -2317600.782 9  -1796193.52547  22693151.321    22693152.7454   22693158.6704
      -916.443        -714.111
 96 11 12 17 45 59.9990000  0  8 25  3 15 23 21  9  1 31            -0.000956110
 -15497560.206 9 -12057659.10147  22721307.857    22721309.0894   22721315.5854
      3617.661        2818.957
   7658006.145 9   5965762.71147  23066260.954    23066262.1054   23066268.8014
     -2435.029       -1897.425
  -6470482.598 9  -5020296.76646  23113828.001    23113828.6774   23113834.7044
      3886.667        3028.572
   6716976.805 9   5230126.65646  23247470.899    23247471.5194   23247477.4744
     -1647.036       -1283.405
   -610325.910 9   -472131.88548  20740099.961    20740100.6264   20740105.7124
      -428.232        -333.687
   5104913.166 8   3979235.67246  24731162.552    24731163.3864   24731169.1344
     -2255.718       -1757.702
  -4305744.296 9  -3179854.82648  20097038.084    20097039.0784   20097044.0984
      -363.653        -283.366
  -2289910.126 9  -1774616.43147  22698420.856    22698422.1064   22698428.0734
      -930.093        -724.748
 96 11 12 17 46 29.9990000  0  8 25  3 15 23 21  9  1 31            -0.000965148
 -15606014.279 9 -12142168.74047  22700669.652    22700670.9394   22700677.4454
      3612.949        2815.285
   7731137.389 9   6022748.03247  23080177.500    23080178.5974   23080185.2864
     -2439.860       -1901.190
  -6587002.532 9  -5111091.48746  23091654.617    23091655.6434   23091661.7184
      3881.844        3024.814
   6766445.469 9   5268673.59946  23256884.416    23256885.0964   23256891.0184
     -1650.515       -1286.116
   -597360.321 9   -462028.84548  20742567.256    20742567.9224   20742573.0064
      -435.630        -339.452
   5172766.126 9   4032107.97646  24744074.500    24744075.4544   24744081.5814
     -2267.216       -1766.662
  -4294612.623 9  -3171180.80048  20099156.481    20099157.3834   20099162.3694
      -377.971        -294.523
  -2261799.896 9  -1752712.37947  22703770.507    22703771.3454   22703777.2554
      -943.525        -735.214
 96 11 12 17 46 59.9990000  0  8 25  3 15 23 21  9  1 31            -0.000974197
 -15714303.008 9 -12226549.51547  22680062.635    22680064.2124   22680070.7604
      3606.713        2810.426
   7804425.222 9   6079855.37147  23094123.970    23094124.8704   23094131.5324
     -2445.698       -1905.739
  -6703360.066 9  -5201759.68846  23069512.532    23069513.5704   23069519.5794
      3875.689        3020.017
   6816032.686 9   5307312.90246  23266320.451    23266321.1784   23266327.2034
     -1654.836       -1289.483
   -584149.650 9   -451734.82448  20745081.207    20745081.8294   20745086.9204
      -444.737        -346.548
   5240971.933 8   4085255.40846  24757053.577    24757054.7334   24757060.6564
     -2279.399       -1776.155
  -4283039.297 9  -3162162.62548  20101358.863    20101359.7404   20101364.6934
      -392.984        -306.221
  -2233263.736 9  -1730476.43147  22709200.752    22709201.6144   22709207.5444
      -958.699        -747.038
 96 11 12 17 47 29.9990000  0  8 25  3 15 23 21  9  1 31            -0.000983237
 -15822402.227 9 -12310782.63547  22659492.248    22659493.6544   22659500.1404
      3600.091        2805.266
   7877897.017 9   6137106.06747  23108105.294    23108106.1554   23108112.8624
     -2452.301       -1910.884
  -6819534.366 9  -5292285.06646  23047405.003    23047406.1714   23047412.3124
      3869.411        3015.125
   6865739.710 9   5346045.60347  23275779.354    23275780.1874   23275786.3504
     -1658.758       -1292.539
   -570658.880 9   -441222.54648  20747648.470    20747649.0464   20747654.1634
      -454.536        -354.184
   5309532.099 8   4138678.94445  24770099.783    24770101.1144   24770106.9114
     -2291.163       -1785.322
  -4271022.278 9  -3152798.71548  20103645.522    20103646.4944   20103651.4394
      -407.920        -317.860
  -2204263.774 9  -1707879.10647  22714719.397    22714720.0834   22714726.0944
      -974.421        -759.289
 96 11 12 17 47 59.9990000  0  8 25  3 15 23 21  9  1 31            -0.000992282
 -15930329.814 9 -12394882.01847  22638954.400    22638955.7224   22638962.1884
      3594.641        2801.019
   7951544.461 9   6194493.61647  23122119.688    23122120.8584   23122127.5754
     -2457.705       -1915.095
  -6935547.316 9  -5382684.72546  23025328.601    23025329.5974   23025335.8414
      3864.502        3011.300
   6915534.073 9   5384846.32046  23285254.905    23285255.7754   23285262.0264
     -1661.262       -1294.490
   -556899.323 9   -430500.82248  20750266.766    20750267.4174   20750272.5364
      -462.917        -360.715
   5378416.766 9   4192355.28546  24783208.229    24783209.6394   24783215.2994
     -2301.450       -1793.338
  -4258591.531 9  -3143112.43048  20106011.082    20106012.0144   20106016.9294
      -420.849        -327.934
  -2174818.387 9  -1684934.68047  22720322.912    22720323.4034   22720329.3384
      -989.018        -770.663
 96 11 12 17 48 29.9990000  0  8 25  3 15 23 21  9  1 31            -0.001001315
 -16038073.232 9 -12478837.88147  22618451.353    22618452.8164   22618459.2794
      3588.342        2796.111
   8025362.954 9   6252014.43947  23136167.027    23136168.0504   23136174.8054
     -2463.299       -1919.454
  -7051402.660 9  -5472961.61847  23003282.100    23003283.1044   23003289.2944
      3859.342        3007.279
   6965417.828 9   5423716.70346  23294747.859    23294748.3774   23294754.7814
     -1664.219       -1296.794
   -542888.164 9   -419583.04748  20752933.070    20752933.6664   20752938.8024
      -470.841        -366.889
   5447623.168 8   4246282.33746  24796377.895    24796379.2274   24796384.9384
     -2312.057       -1801.603
  -4245781.949 9  -3133130.93848  20108448.671    20108449.5954   20108454.4784
      -432.869        -337.300
  -2144919.581 9  -1661636.93947  22726012.089    22726012.9704   22726018.9434
     -1003.997        -782.335
 96 11 12 17 48 59.9980000  0  8 25  3 15 23 21  9  1 31            -0.001010327
 -16145621.223 9 -12562641.45447  22597985.756    22597987.0344   22597993.5344
      3581.503        2790.782
   8099341.127 9   6309659.72047  23150244.964    23150245.7034   23150252.4254
     -2469.126       -1923.994
  -7167095.468 9  -5563111.81447  22981266.446    22981267.3404   22981273.5854
      3853.328        3002.593
   7015386.570 9   5462653.32946  23304256.583    23304257.2224   23304263.5134
     -1667.510       -1299.358
   -528644.307 9   -408483.95048  20755643.427    20755644.1984   20755649.3484
      -479.243        -373.436
   5517143.388 8   4300453.90745  24809607.159    24809608.3944   24809614.1434
     -2323.364       -1810.414
  -4232621.344 9  -3122875.92848  20110953.095    20110953.9774   20110958.8694
      -444.869        -346.651
  -2114570.251 9  -1637988.12247  22731787.442    22731788.3414   22731794.2714
     -1019.876        -794.709
 96 11 12 17 49 29.9980000  0  8 25  3 15 23 21  9  1 31            -0.001019310
 -16252983.214 9 -12646300.10647  22577555.713    22577556.6904   22577563.1604
      3575.817        2786.351
   8173475.654 9   6367426.81047  23164352.181    23164353.0504   23164359.8664
     -2473.170       -1927.145
  -7282622.454 9  -5653132.83246  22959282.653    22959283.3674   22959289.5044
      3848.183        2998.584
   7065451.624 9   5501664.96146  23313783.971    23313784.3374   23313790.7924
     -1670.476       -1301.670
   -514163.720 9   -397200.39248  20758399.095    20758399.7924   20758404.9434
      -486.340        -378.966
   5587008.228 9   4354894.09946  24822902.101    24822903.3824   24822908.9514
     -2334.594       -1819.164
  -4219114.787 9  -3112351.34248  20113523.378    20113524.1684   20113529.0774
      -456.027        -355.346
  -2083756.798 9  -1613977.68447  22737650.844    22737651.9114   22737657.9284
     -1034.672        -806.238
 96 11 12 17 49 59.9980000  0  8 25  3 15 23 21  9  1 31            -0.001028270
 -16360156.757 9 -12729811.90147  22557160.896    22557162.2204   22557168.6524
      3568.847        2780.920
   8247729.336 9   6425286.75147  23178481.968    23178483.0594   23178489.9764
     -2477.373       -1930.421
  -7397975.438 9  -5743018.25546  22937331.449    22937332.3594   22937338.5334
      3841.684        2993.520
   7115636.799 9   5540770.20646  23323333.802    23323334.2354   23323340.6714
     -1675.551       -1305.624
   -499452.357 9   -385737.00348  20761198.531    20761199.2734   20761204.4344
      -494.665        -385.453
   5657232.298 8   4409614.05445  24836265.238    24836266.5084   24836272.2124
     -2347.241       -1829.019
  -4205245.593 9  -3101544.17848  20116162.622    20116163.4074   20116168.2754
      -468.967        -365.429
  -2052482.555 9  -1589608.16247  22743602.170    22743603.2354   22743609.2604
     -1050.519        -818.586
 96 11 12 17 50 29.9980000  0  8 25  3 15 23 21  9  1 31            -0.001037216
 -16467149.227 9 -12813182.60547  22536800.999    22536802.2314   22536808.5954
      3563.235        2776.547
   8322075.090 9   6483218.43947  23192629.810    23192630.6654   23192637.5594
     -2479.954       -1932.432
  -7513156.899 9  -5832769.99547  22915413.205    22915414.0814   22915420.3184
      3836.093        2989.163
   7165948.425 9   5579974.00246  23332907.619    23332908.2334   23332914.6384
     -1679.336       -1308.573
   -484521.237 9   -374102.37948  20764039.888    20764040.5854   20764045.7554
      -501.746        -390.971
   5727802.219 8   4464603.61245  24849694.064    24849695.4314   24849701.1414
     -2358.269       -1837.612
  -4191002.411 9  -3090445.59848  20118872.992    20118873.7874   20118878.6594
      -481.788        -375.419
  -2020767.388 9  -1564895.07047  22749637.209    22749638.4684   22749644.4774
     -1064.700        -829.636
 96 11 12 17 50 59.9980000  0  8 25  3 15 23 21  9  1 31            -0.001046175
 -16573976.545 9 -12896424.61547  22516472.376    22516473.6144   22516479.9354
      3558.365        2772.752
   8396496.522 9   6541209.09647  23206791.560    23206792.6204   23206799.5114
     -2481.830       -1933.894
  -7628163.921 9  -5922385.83847  22893528.057    22893528.8424   22893535.1724
      3830.784        2985.026
   7216376.925 9   5619268.84346  23342504.206    23342504.6594   23342511.0264
     -1682.645       -1311.152
   -469367.622 9   -362294.38048  20766923.489    20766924.2514   20766929.4074
      -508.704        -396.393
   5798699.956 8   4519848.62146  24863185.462    24863186.8804   24863192.7814
     -2368.352       -1845.469
  -4176352.177 9  -3079029.83648  20121660.721    20121661.6384   20121666.4994
      -495.154        -385.834
  -1988629.520 9  -1539852.60947  22755752.999    22755754.1244   22755760.1644
     -1078.153        -840.119
 96 11 12 17 51 29.9980000  0  8 25  3 15 23 21  9  1 31            -0.001055165
 -16680639.238 9 -12979538.34847  22496175.265    22496176.2964   22496182.6254
      3552.553        2768.223
   8470991.267 9   6599256.86747  23220967.340    23220968.5464   23220975.4834
     -2484.481       -1935.959
  -7742996.429 9  -6011865.69446  22871676.226    22871676.9524   22871683.2934
      3824.912        2980.451
   7266916.374 9   5658650.13446  23352121.556    23352121.9614   23352128.3514
     -1686.359       -1314.046
   -453991.754 9   -350313.19348  20769849.425    20769850.2224   20769855.3604
      -516.064        -402.128
   5869903.963 8   4575332.19745  24876735.073    24876736.5734   24876742.5244
     -2378.247       -1853.179
  -4161272.159 9  -3067279.17848  20124530.253    20124531.2264   20124536.1144
      -509.991        -397.396
  -1956081.709 9  -1514490.68847  22761947.030    22761947.7554   22761953.8234
     -1091.492        -850.513
 96 11 12 17 51 59.9980000  0  8 25  3 15 23 21  9  1 31            -0.001064184
 -16787104.927 9 -13062498.56247  22475915.415    22475916.4564   22475922.8314
      3545.780        2762.945
   8545599.475 9   6657393.05447  23235164.763    23235166.0694   23235173.0424
     -2488.917       -1939.416
  -7857636.203 9  -6101195.33747  22849860.998    22849861.7404   22849868.0384
      3818.403        2975.379
   7317574.929 9   5698124.23946  23361761.638    23361762.0754   23361768.6124
     -1690.104       -1316.964
   -438383.382 9   -338150.84048  20772819.622    20772820.4074   20772825.5414
      -523.662        -408.048
   5941405.281 8   4631047.46645  24890341.210    24890342.7484   24890348.7584
     -2387.875       -1860.682
  -4145732.930 9  -3055170.68448  20127487.295    20127488.2134   20127493.1324
      -524.980        -409.075
  -1923123.800 9  -1488809.23047  22768218.527    22768219.4454   22768225.5724
     -1104.987        -861.029
 96 11 12 17 52 29.9980000  0  7 25  3 15 23 21  1 31               -0.001073241
 -16893390.253 9 -13145318.24047  22455690.086    22455691.0104   22455697.3564
      3539.763        2758.257
   8620330.761 9   6715625.16547  23249385.720    23249387.0314   23249393.9674
     -2493.389       -1942.901
  -7972103.100 9  -6190390.33847  22828078.607    22828079.5764   22828085.6774
      3812.451        2970.741
   7368310.978 9   5737658.74346  23371416.216    23371416.9104   23371423.2614
     -1692.481       -1318.816
   -422581.902 9   -325838.01048  20775826.648    20775827.3574   20775832.4494
      -530.004        -412.990
  -4129781.876 9  -3042741.29148  20130522.677    20130523.5684   20130528.5084
      -538.438        -419.562
  -1889784.573 9  -1462830.62447  22774563.164    22774563.7214   22774569.8124
     -1118.061        -871.216
 96 11 12 17 52 59.9980000  0  7 25  3 15 23 21  1 31               -0.001082309
 -16999476.783 9 -13227983.01147  22435502.643    22435503.4194   22435509.7284
      3532.629        2752.698
   8695215.224 9   6773976.61447  23263636.168    23263637.1434   23263644.0434
     -2498.930       -1947.218
  -8086375.504 9  -6279433.74347  22806333.414    22806334.1604   22806340.2794
      3805.753        2965.522
   7419136.814 9   5777263.21846  23381088.139    23381088.8564   23381095.1724
     -1695.925       -1321.500
   -406579.152 9   -313368.35548  20778871.952    20778872.5864   20778877.6664
      -536.852        -418.326
  -4113430.043 9  -3029999.60348  20133634.521    20133635.2484   20133640.1454
      -551.509        -429.747
  -1856030.276 9  -1436528.60047  22780985.740    22780986.9614   22780993.0514
     -1132.297        -882.309
 96 11 12 17 53 29.9980000  0  7 25  3 15 23 21  1 31               -0.001091376
 -17105359.658 9 -13310489.09647  22415353.666    22415354.5994   22415360.8384
      3525.692        2747.292
   8770248.423 9   6832443.96647  23277914.743    23277915.4934   23277922.4724
     -2503.697       -1950.933
  -8200461.896 9  -6368332.19747  22784623.686    22784624.1604   22784630.3444
      3799.424        2960.590
   7470048.857 9   5816934.82346  23390776.442    23390777.2064   23390783.6094
     -1698.963       -1323.867
   -390387.148 9   -300751.22948  20781953.156    20781953.8504   20781958.9314
      -543.243        -423.306
  -4096715.285 9  -3016975.11548  20136815.151    20136815.9434   20136820.8544
      -563.332        -438.960
  -1821863.858 9  -1409905.43847  22787488.121    22787488.5974   22787494.6994
     -1146.094        -893.060
 96 11 12 17 53 59.9980000  0  7 25  3 15 23 21  1 31               -0.001100425
 -17211030.765 9 -13392830.17047  22395245.257    22395246.0074   22395252.1954
      3518.414        2741.621
   8845422.273 9   6891020.88747  23292219.472    23292220.6184   23292227.6804
     -2508.266       -1954.493
  -8314348.537 9  -6457075.02047  22762951.911    22762952.3304   22762958.5444
      3792.390        2955.109
   7521065.543 9   5856688.01146  23400484.930    23400485.5724   23400491.7894
     -1702.814       -1326.868
   -373990.659 9   -287974.76448  20785073.345    20785074.0074   20785079.1114
      -550.641        -429.071
  -4079646.982 9  -3003675.13748  20140063.113    20140063.9334   20140068.8424
      -575.220        -448.223
  -1787270.894 9  -1382949.91547  22794070.610    22794071.3794   22794077.5524
     -1160.858        -904.565
 96 11 12 17 54 29.9980000  0  7 25  3 15 23 21  1 31               -0.001109464
 -17316508.438 9 -13475020.51947  22375173.308    22375174.2384   22375180.4174
      3512.849        2737.285
   8920688.562 9   6949669.88847  23306542.282    23306543.4264   23306550.4724
     -2509.886       -1955.755
  -8428044.383 9  -6545669.16147  22741316.310    22741316.7464   22741322.9054
      3786.781        2950.738
   7572177.872 9   5896515.67646  23410211.436    23410211.9314   23410218.3574
     -1705.306       -1328.810
   -357386.801 9   -275036.71448  20788232.927    20788233.6484   20788238.7304
      -556.979        -434.010
  -4062241.114 9  -2990112.12348  20143375.421    20143376.1624   20143381.0524
      -585.872        -456.524
  -1752252.569 9  -1355662.92647  22800734.938    22800735.1584   22800741.3584
     -1174.310        -915.047
 96 11 12 17 54 59.9980000  0  7 25  3 15 23 21  1 31               -0.001118498
 -17421788.548 9 -13557056.92047  22355139.019    22355140.0334   22355146.2664
      3505.733        2731.740
   8996017.912 9   7008367.98147  23320876.950    23320878.2044   23320885.2564
     -2512.036       -1957.431
  -8541547.280 9  -6634112.95447  22719717.413    22719717.8484   22719724.0334
      3780.153        2945.574
   7623397.796 9   5936427.24346  23419958.319    23419958.9604   23419965.1764
     -1709.303       -1331.924
   -340551.832 9   -261918.57348  20791436.530    20791437.2464   20791442.3454
      -565.371        -440.549
  -4044477.936 9  -2976270.68048  20146755.554    20146756.3834   20146761.2734
      -598.403        -466.288
  -1716815.210 9  -1328049.43547  22807478.640    22807478.7134   22807484.8704
     -1188.025        -925.734
 96 11 12 17 55 29.9980000  0  7 25  3 15 23 21  1 31               -0.001127536
 -17526857.973 9 -13638929.15847  22335144.889    22335145.9774   22335152.2014
      3498.610        2726.190
   9071412.501 9   7067116.91747  23335224.336    23335225.3114   23335232.4744
     -2514.554       -1959.393
  -8654848.915 9  -6722399.92747  22698156.671    22698157.2584   22698163.4164
      3772.983        2939.987
   7674733.572 9   5976429.03646  23429727.281    23429727.7834   23429734.1824
     -1713.380       -1335.101
   -323458.871 9   -248599.40248  20794689.236    20794689.9374   20794695.0364
      -574.473        -447.641
  -4026331.004 9  -2962130.21248  20150208.921    20150209.6244   20150214.5134
      -611.793        -476.722
  -1680972.887 9  -1300120.36647  22814298.819    22814299.3164   22814305.4454
     -1201.736        -936.418
 96 11 12 17 55 59.9980000  0  7 25  3 15 23 21  1 31               -0.001136573
 -17631705.264 9 -13720628.31347  22315193.250    22315194.1744   22315200.3484
      3491.395        2720.568
   9146892.508 9   7125932.44047  23349587.630    23349588.7764   23349595.9254
     -2517.410       -1961.618
  -8767932.520 9  -6810516.99647  22676637.267    22676638.1874   22676644.2064
      3766.087        2934.613
   7726194.957 9   6016528.72446  23439519.963    23439520.6154   23439527.1034
     -1717.163       -1338.049
   -306083.709 9   -235060.34048  20797995.617    20797996.3464   20798001.4514
      -583.691        -454.824
  -4007774.280 9  -2947670.42248  20153739.973    20153740.8424   20153745.7474
      -625.050        -487.052
  -1644723.576 9  -1271874.18147  22821196.684    22821197.3594   22821203.4334
     -1214.662        -946.490
 96 11 12 17 56 29.9980000  0  7 25  3 15 23 21  1 31               -0.001145610
 -17736325.058 9 -13802150.19847  22295284.762    22295285.6804   22295291.8004
      3483.419        2714.352
   9222476.765 9   7184829.18947  23363971.144    23363972.0704   23363979.2394
     -2521.482       -1964.791
  -8880799.984 9  -6898465.66847  22655159.034    22655160.1814   22655166.1544
      3758.563        2928.750
   7777781.485 9   6056725.93846  23449336.595    23449337.2744   23449343.8234
     -1721.855       -1341.705
   -288426.719 9   -221301.67148  20801355.675    20801356.3654   20801361.4804
      -593.205        -462.238
  -3988815.372 9  -2932897.24948  20157347.670    20157348.5934   20157353.5154
      -638.660        -497.657
  -1608088.307 9  -1243327.24447  22828167.793    22828168.8524   22828174.8564
     -1227.472        -956.472
 96 11 12 17 56 59.9980000  0  7 25  3 15 23 21  1 31               -0.001154641
 -17840712.036 9 -13883490.67247  22275420.374    22275421.4404   22275427.5684
      3476.326        2708.825
   9298182.898 9   7243820.89147  23378377.600    23378378.4714   23378385.6904
     -2524.902       -1967.456
  -8993453.158 9  -6986247.33847  22633721.907    22633722.9104   22633728.9114
      3752.260        2923.839
   7829500.485 9   6097026.34646  23459178.424    23459179.0784   23459185.7154
     -1725.366       -1344.441
   -270495.663 9   -207329.44148  20804767.912    20804768.5294   20804773.6774
      -601.448        -468.661
  -3969461.836 9  -2917816.57248  20161030.615    20161031.4394   20161036.3654
      -650.819        -507.132
  -1571085.548 9  -1214493.94847  22835209.471    22835210.2474   22835216.3004
     -1238.962        -965.425
 96 11 12 17 57 29.9980000  0  7 25  3 15 23 21  1 31               -0.001163665
 -17944870.685 9 -13964653.23547  22255599.850    22255600.6384   22255606.7914
      3467.966        2702.311
   9374004.250 9   7302902.37347  23392805.687    23392806.8334   23392814.0694
     -2529.380       -1970.945
  -9105899.678 9  -7073867.97947  22612324.311    22612325.0324   22612331.1044
      3744.493        2917.787
   7881339.296 9   6137420.12246  23469043.193    23469043.8374   23469050.4974
     -1730.204       -1348.211
   -252310.900 9   -193159.51348  20808228.224    20808228.9904   20808234.1634
      -610.446        -475.672
  -3949738.516 9  -2902447.74948  20164783.774    20164784.6644   20164789.5774
      -663.694        -517.164
  -1533713.751 9  -1185373.10447  22842320.666    22842321.9094   22842327.9324
     -1252.261        -975.788
 96 11 12 17 57 59.9980000  0  7 25  3 15 23 21  1 31               -0.001172673
 -18048790.104 9 -14045629.37747  22235824.447    22235825.4364   22235831.5334
      3460.021        2696.120
   9449936.625 9   7362070.37847  23407254.986    23407256.3324   23407263.5734
     -2532.658       -1973.500
  -9218126.098 9  -7161317.08947  22590968.151    22590969.0584   22590975.2184
      3737.235        2912.131
   7933312.977 9   6177918.96346  23478933.360    23478934.1074   23478940.8354
     -1734.671       -1351.692
   -233875.530 9   -178794.30748  20811736.352    20811737.1504   20811742.3094
      -618.513        -481.958
  -3929647.058 9  -2886792.06948  20168607.033    20168607.9494   20168612.8354
      -675.662        -526.490
  -1495952.356 9  -1155948.67747  22849506.785    22849507.6774   22849513.7204
     -1265.167        -985.844
 96 11 12 17 58 29.9980000  0  7 25  3 15 23 21  1 31               -0.001181664
 -18152470.054 9 -14126418.93247  22216094.839    22216095.8544   22216101.8734
      3451.990        2689.862
   9525957.107 9   7421307.03147  23421721.485    23421722.6234   23421729.8754
     -2535.166       -1975.454
  -9330130.105 9  -7248592.94447  22569654.427    22569655.3874   22569661.4294
      3729.744        2906.294
   7985421.873 9   6218523.20246  23488849.392    23488850.2464   23488856.9354
     -1739.096       -1355.140
   -215201.407 9   -164243.06348  20815290.011    20815290.7224   20815295.8914
      -626.351        -488.066
  -3909192.723 9  -2870853.62948  20172499.375    20172500.2734   20172505.1784
      -687.951        -536.066
  -1457794.060 9  -1126214.98447  22856767.991    22856768.9824   22856775.1024
     -1278.735        -996.417
 96 11 12 17 58 59.9980000  0  7 25  3 15 23 21  1 31               -0.001190654
 -18255914.549 9 -14207025.00847  22196409.958    22196411.0364   22196417.0364
      3443.872        2683.537
   9602036.829 9   7480589.83947  23436199.055    23436200.1714   23436207.4784
     -2537.179       -1977.023
  -9441916.263 9  -7335698.99547  22548382.074    22548383.0834   22548389.1624
      3722.232        2900.441
   8037647.902 9   6259218.70746  23498787.700    23498788.5214   23498795.2894
     -1742.834       -1358.052
   -196297.451 9   -149512.72548  20818887.343    20818888.0564   20818893.2054
      -634.289        -494.251
  -3888374.663 9  -2854631.76948  20176460.902    20176461.8194   20176466.7294
      -700.351        -545.728
  -1419233.562 9  -1096167.87147  22864106.104    22864106.9214   22864112.9714
     -1292.595       -1007.217
 96 11 12 17 59 29.9980000  0  7 25  3 15 23 21  1 31               -0.001199646
 -18359114.516 9 -14287440.54147  22176771.610    22176772.6924   22176778.6984
      3436.058        2677.448
   9678181.569 9   7539923.32847  23450688.976    23450690.1104   23450697.4524
     -2539.276       -1978.657
  -9553469.486 9  -7422623.58247  22527154.320    22527155.2534   22527161.2494
      3714.489        2894.407
   8089979.582 9   6299996.53946  23508746.031    23508746.9784   23508753.8444
     -1746.085       -1360.586
   -177154.503 9   -134596.16248  20822530.123    20822530.8354   20822536.0064
      -642.145        -500.373
  -3867178.150 9  -2838115.00948  20180494.520    20180495.3784   20180500.2924
      -712.973        -555.563
  -1380251.525 9  -1065792.28247  22871523.958    22871524.9454   22871530.9964
     -1306.276       -1017.877
 96 11 12 17 59 59.9980000  0  7 25  3 15 23 21  1 31               -0.001208650
 -18462078.975 9 -14367672.55947  22157177.839    22157179.1424   22157185.1724
      3428.003        2671.171
   9754387.548 9   7599304.52047  23465190.439    23465191.7004   23465199.0644
     -2541.295       -1980.230
  -9664791.434 9  -7509367.92947  22505970.388    22505971.3224   22505977.3834
      3706.776        2888.397
   8142404.230 9   6340846.82646  23518722.321    23518723.0974   23518730.0264
     -1749.078       -1362.918
   -157772.780 9   -119493.54348  20826218.259    20826219.0874   20826224.2324
      -650.144        -506.606
  -3845603.653 9  -2821303.72048  20184599.958    20184600.8574   20184605.7944
      -725.518        -565.339
  -1340866.096 9  -1035102.37547  22879018.707    22879019.7434   22879025.8884
     -1319.569       -1028.236
 96 11 12 18  0 29.9980000  0  7 25  3 15 23 21  1 31               -0.001217677
 -18564808.181 9 -14447721.26347  22137628.977    22137630.3774   22137636.4244
      3420.201        2665.092
   9830650.435 9   7658730.07047  23479702.641    23479704.1034   23479711.5004
     -2543.234       -1981.741
  -9775893.375 9  -7595940.86047  22484828.537    22484829.3394   22484835.3414
      3699.653        2882.846
   8194905.420 9   6381756.74846  23528713.329    23528713.8574   23528720.6964
     -1751.340       -1364.681
   -138164.133 9   -104214.09148  20829949.646    20829950.5004   20829955.6494
      -657.486        -512.327
  -3823659.537 9  -2804204.41348  20188775.785    20188776.6894   20188781.6074
      -737.754        -574.873
  -1301093.488 9  -1004110.78047  22886587.295    22886588.2294   22886594.3864
     -1332.361       -1038.203
 96 11 12 18  0 59.9980000  0  7 25  3 15 23 21  1 31               -0.001226716
 -18667278.887 9 -14527568.54547  22118129.489    22118130.8674   22118136.8864
      3412.046        2658.737
   9906999.927 9   7718223.09447  23494231.265    23494232.9164   23494240.3474
     -2545.857       -1983.785
  -9886754.850 9  -7682326.39647  22463732.529    22463733.0364   22463739.0454
      3691.937        2876.834
   8247502.344 9   6422741.23546  23538721.879    23538722.6094   23538729.6934
     -1754.328       -1367.009
   -118307.653 9    -88741.53048  20833728.180    20833729.0714   20833734.2194
      -665.324        -518.434
  -3801325.168 9  -2786801.01348  20193025.744    20193026.7644   20193031.7314
      -750.307        -584.655
  -1260915.291 9   -972803.12747  22894233.019    22894233.9734   22894240.0354
     -1345.582       -1048.505
 96 11 12 18  1 29.9980000  0  7 25  3 15 23 21  1 31               -0.001235766
 -18769508.538 9 -14607227.98647  22098675.892    22098677.1934   22098683.1824
      3403.616        2652.168
   9983421.274 9   7777772.11547  23508774.204    23508775.4344   23508782.9724
     -2548.538       -1985.874
  -9997386.036 9  -7768532.48747  22442680.173    22442680.5634   22442686.5904
      3683.834        2870.520
   8300191.776 9   6463797.86546  23548748.665    23548749.4094   23548756.2474
     -1758.207       -1370.031
    -98222.943 9    -73091.12148  20837550.134    20837551.0604   20837556.2304
      -673.366        -524.701
  -3778623.695 9  -2769111.55848  20197345.612    20197346.7254   20197351.6574
      -762.676        -594.293
  -1220344.509 9   -941189.56647  22901953.499    22901954.3194   22901960.4414
     -1358.724       -1058.746
 96 11 12 18  1 59.9980000  0  7 25  3 15 23 21  1 31               -0.001244814
 -18871479.874 9 -14686686.12947  22079271.296    22079272.6724   22079278.6714
      3394.349        2644.947
  10059912.019 9   7837375.19547  23523330.121    23523331.2334   23523338.7494
     -2551.039       -1987.822
 -10107778.930 9  -7854552.92247  22421672.665    22421673.5544   22421679.5044
      3675.551        2864.066
   8353004.003 9   6504950.13046  23558798.202    23558799.1084   23558806.1734
     -1762.783       -1373.597
    -77898.814 9    -57254.15448  20841417.626    20841418.6404   20841423.8144
      -681.695        -531.191
  -3755562.262 9  -2751141.61649  20201734.129    20201735.1674   20201740.0874
      -774.910        -603.826
  -1179393.103 9   -909279.39747  22909746.381    22909747.1274   22909753.2844
     -1371.583       -1068.766
 96 11 12 18  2 29.9980000  0  7 25  3 15 23 21  1 31               -0.001253848
 -18973182.838 9 -14765935.15948  22059917.878    22059919.2044   22059925.2254
      3385.272        2637.874
  10136474.644 9   7897034.30047  23537899.574    23537900.6654   23537908.2354
     -2553.606       -1989.823
 -10217925.524 9  -7940381.39447  22400712.594    22400713.3094   22400719.3184
      3666.950        2857.364
   8405950.208 9   6546206.82846  23568873.876    23568874.6704   23568881.6264
     -1767.525       -1377.292
    -57334.065 9    -41229.69248  20845331.002    20845331.9904   20845337.1584
      -689.971        -537.640
  -3732139.555 9  -2732890.16348  20206191.399    20206192.3984   20206197.3014
      -787.103        -613.327
  -1138056.282 9   -877068.93647  22917612.483    22917613.2604   22917619.4864
     -1384.773       -1079.044
 96 11 12 18  2 59.9980000  0  7 25  3 15 23 21  1 31               -0.001262872
 -19074628.795 9 -14844983.91748  22040613.361    22040614.6644   22040620.6874
      3377.195        2631.581
  10213093.404 9   7956737.14447  23552480.185    23552480.8194   23552488.3904
     -2554.905       -1990.835
 -10327827.230 9  -8026019.07747  22379798.715    22379799.6534   22379805.6324
      3659.207        2851.330
   8459023.700 9   6587562.69546  23578973.451    23578974.1344   23578981.1214
     -1771.185       -1380.144
    -36532.573 9    -25020.75648  20849289.517    20849290.3554   20849295.5454
      -697.407        -543.434
  -3708375.562 9  -2714372.77148  20210713.666    20210714.5324   20210719.4284
      -797.763        -621.634
  -1096346.316 9   -844567.68947  22925549.744    22925550.4794   22925556.6484
     -1396.385       -1088.092
 96 11 12 18  3 29.9980000  0  7 25  3 15 23 21  1 31               -0.001271886
 -19175823.562 9 -14923836.94148  22021356.751    22021357.9274   22021363.9504
      3369.389        2625.498
  10289763.032 9   8016479.61747  23567069.884    23567070.6224   23567078.1794
     -2556.056       -1991.732
 -10437487.950 9  -8111468.97847  22358930.907    22358931.9474   22358937.7904
      3651.722        2845.498
   8512210.796 9   6629007.08346  23589094.663    23589095.3524   23589102.5414
     -1774.300       -1382.571
    -15499.181 9     -8631.11848  20853292.163    20853292.8684   20853298.0874
      -704.683        -549.104
  -3684288.978 9  -2695604.00749  20215297.170    20215298.0894   20215302.9474
      -807.773        -629.433
  -1054292.300 9   -811798.35047  22933552.269    22933553.0634   22933559.3154
     -1406.927       -1096.307
 96 11 12 18  3 59.9980000  0  7 25  3 15 23 21  1 31               -0.001280901
 -19276775.282 9 -15002500.57548  22002146.404    22002147.4124   22002153.4164
      3360.356        2618.459
  10366471.709 9   8076252.52747  23581666.478    23581667.9114   23581675.4204
     -2558.150       -1993.364
 -10546914.463 9  -8196736.35147  22338108.071    22338108.7214   22338114.6044
      3642.958        2838.669
   8565499.322 9   6670530.54346  23599235.165    23599235.9294   23599243.1444
     -1778.489       -1385.836
      5760.279 9      7934.67748  20857337.770    20857338.4104   20857343.6444
      -713.029        -555.607
  -3659887.069 9  -2676589.53649  20219940.703    20219941.6334   20219946.4724
      -819.382        -638.479
  -1011916.892 9   -778778.59647  22941616.082    22941616.8574   22941623.1194
     -1418.624       -1105.421
 96 11 12 18  4 29.9980000  0  7 25  3 15 23 21  1 31               -0.001289914
 -19377468.940 9 -15080963.11448  21982984.994    21982986.0164   21982991.9924
      3352.502        2612.339
  10443229.961 9   8136064.07747  23596273.498    23596274.6304   23596282.1304
     -2558.989       -1994.017
 -10656085.088 9  -8281804.39247  22317333.179    22317334.3864   22317340.0194
      3635.151        2832.585
   8618896.424 9   6712138.57046  23609396.354    23609397.1414   23609404.3084
     -1781.274       -1388.006
     27258.408 9     24686.44748  20861428.725    20861429.3954   20861434.6374
      -720.215        -561.206
  -3635148.880 9  -2657313.02949  20224648.424    20224649.1814   20224653.9984
      -829.717        -646.533
   -969192.250 9   -745486.68947  22949746.228    22949747.0994   22949753.3394
     -1429.602       -1113.976
 96 11 12 18  4 59.9980000  0  7 25  3 15 23 21  1 31               -0.001298926
 -19477911.894 9 -15159230.30248  21963871.219    21963872.3104   21963878.2754
      3344.137        2605.821
  10520022.516 9   8195902.33047  23610886.919    23610887.8734   23610895.3634
     -2560.080       -1994.868
 -10765006.698 9  -8366678.33647  22296606.045    22296607.2384   22296612.9384
      3626.748        2826.037
   8672392.233 9   6753823.51946  23619576.291    23619577.1014   23619584.4264
     -1784.586       -1390.586
     48989.362 9     41619.63048  20865564.039    20865564.6744   20865569.9304
      -728.129        -567.373
  -3610089.164 9  -2637785.97849  20229417.048    20229417.8824   20229422.7014
      -840.614        -655.024
   -926138.691 9   -711938.49847  22957939.231    22957939.8514   22957946.1564
     -1440.316       -1122.324
 96 11 12 18  5 29.9980000  0  7 25  3 15 23 21  1 31               -0.001307946
 -19578105.459 9 -15237303.15148  21944805.197    21944806.1204   21944812.0394
      3335.141        2598.811
  10596839.459 9   8255759.61746  23625504.857    23625505.7354   23625513.2314
     -2561.153       -1995.704
 -10873677.349 9  -8451356.73147  22275926.842    22275927.8184   22275933.6094
      3617.664        2818.959
   8725990.445 9   6795588.31446  23629775.929    23629776.6454   23629783.8364
     -1788.940       -1393.979
     70957.572 9     58737.69848  20869744.437    20869745.1114   20869750.3904
      -736.673        -574.031
  -3584698.004 9  -2618000.65949  20234248.856    20234249.6624   20234254.4734
      -852.345        -664.165
   -882760.002 9   -678136.94547  22966193.901    22966194.5974   22966200.8854
     -1452.134       -1131.533
 96 11 12 18  5 59.9980000  0  7 25  3 15 23 21  1 31               -0.001316957
 -19678026.617 9 -15315163.73548  21925790.448    21925791.6994   21925797.6044
      3326.852        2592.352
  10673680.587 9   8315635.69646  23640127.089    23640128.1334   23640135.6664
     -2561.039       -1995.615
 -10982071.787 9  -8535819.93647  22255300.098    22255301.0454   22255306.7384
      3609.240        2812.395
   8779721.685 9   6837456.74046  23640000.703    23640001.4984   23640008.8404
     -1792.482       -1396.739
     93185.409 9     76058.06948  20873974.464    20873974.9864   20873980.2594
      -744.526        -580.150
  -3558950.477 9  -2597937.65449  20239148.416    20239149.2734   20239154.0684
      -863.400        -672.779
   -839020.684 9   -644054.38747  22974517.405    22974517.9444   22974524.2074
     -1463.343       -1140.267
 96 11 12 18  6 29.9980000  0  7 25  3 15 23 21  1 31               -0.001325972
 -19777697.878 9 -15392829.59148  21906823.689    21906824.8264   21906830.7254
      3318.509        2585.851
  10750529.944 9   8375518.23746  23654751.291    23654752.1394   23654759.6674
     -2561.686       -1996.119
 -11090209.061 9  -8620082.75747  22234722.197    22234723.2474   22234728.8894
      3600.474        2805.564
   8833560.585 9   6879409.05446  23650245.252    23650246.6264   23650253.9214
     -1796.235       -1399.664
    115656.622 9     93568.07748  20878250.688    20878251.1634   20878256.4294
      -752.950        -586.714
  -3532874.715 9  -2577618.88549  20244110.513    20244111.3334   20244116.1324
      -874.460        -681.397
   -794937.853 9   -609704.16147  22982905.974    22982906.6604   22982912.9634
     -1474.865       -1149.245
 96 11 12 18  6 59.9980000  0  7 25  3 15 23 21  1 31               -0.001334979
 -19877115.482 9 -15470297.78848  21887905.067    21887906.2674   21887912.1264
      3309.721        2579.003
  10827401.485 9   8435418.06346  23669379.689    23669380.4744   23669387.8444
     -2562.646       -1996.867
 -11198078.044 9  -8704136.47047  22214195.488    22214196.4034   22214202.1324
      3591.182        2798.324
   8887521.450 9   6921456.39346  23660514.017    23660515.2064   23660522.4264
     -1800.782       -1403.207
    138387.386 9    111280.33848  20882576.349    20882576.7204   20882582.0234
      -761.999        -593.765
  -3506457.712 9  -2557034.21149  20249137.474    20249138.2884   20249143.1364
      -886.234        -690.572
   -750515.199 9   -575089.11847  22991359.404    22991360.0394   22991366.2894
     -1486.498       -1158.310
 96 11 12 18  7 29.9980000  0  7 25  3 15 23 21  1 31               -0.001343977
 -19976272.142 9 -15547562.64848  21869036.265    21869037.3404   21869043.1784
      3300.465        2571.791
  10904292.148 9   8495332.78346  23684011.606    23684012.3284   23684019.6974
     -2563.549       -1997.571
 -11305675.688 9  -8787978.78247  22193720.524    22193721.2494   22193726.8934
      3581.887        2791.081
   8941608.780 9   6963602.27946  23670806.499    23670807.5824   23670815.0414
     -1805.241       -1406.681
    161379.547 9    129196.28448  20886951.526    20886952.0214   20886957.3314
      -770.799        -600.623
  -3479702.118 9  -2536185.70049  20254228.859    20254229.7244   20254234.5854
      -897.465        -699.323
   -705737.684 9   -540197.58647  22999880.111    22999880.9444   22999887.2244
     -1498.727       -1167.839
 96 11 12 18  7 59.9980000  0  7 25  3 15 23 21  1 31               -0.001352959
 -20075144.821 9 -15624606.22648  21850221.397    21850222.4564   21850228.3174
      3290.530        2564.049
  10981213.654 9   8555271.50346  23698649.223    23698650.0564   23698657.4414
     -2565.187       -1998.847
 -11412997.200 9  -8871605.92747  22173297.738    22173298.6594   22173304.3564
      3572.361        2783.658
   8995828.592 9   7005851.38846  23681124.272    23681125.3564   23681132.7934
     -1809.811       -1410.242
    184632.625 9    147315.53848  20891376.440    20891376.9564   20891382.2894
      -779.866        -607.688
  -3452614.122 9  -2515078.17849  20259383.597    20259384.3794   20259389.2794
      -908.916        -708.246
   -660601.856 9   -505026.84447  23008469.376    23008470.0484   23008476.2494
     -1510.854       -1177.289
 96 11 12 18  8 29.9980000  0  7 25  3 15 23 21  1 31               -0.001361920
 -20173709.795 9 -15701410.02548  21831465.152    21831466.1384   21831471.9624
      3280.431        2556.180
  11058186.363 9   8615250.15446  23713296.496    23713297.5234   23713304.9304
     -2566.244       -1999.671
 -11520029.273 9  -8955007.51347  22152930.221    22152931.0834   22152936.7564
      3563.105        2776.445
   9050189.683 9   7048210.62046  23691469.064    23691470.1264   23691477.3334
     -1814.141       -1413.616
    208157.337 9    165646.45848  20895852.918    20895853.5734   20895858.9344
      -788.368        -614.313
  -3425177.612 9  -2493699.09049  20264604.655    20264605.3764   20264610.2774
      -920.266        -717.090
   -615102.324 9   -469572.69247  23017127.660    23017128.4034   23017134.4334
     -1522.448       -1186.323
 96 11 12 18  8 59.9980000  0  7 25  3 15 23 21  1 31               -0.001370884
 -20271961.010 9 -15777969.33948  21812768.299    21812769.4824   21812775.2924
      3269.859        2547.942
  11135182.318 9   8675246.87446  23727948.573    23727949.3774   23727956.8964
     -2566.511       -1999.879
 -11626784.502 9  -9038193.40647  22132615.372    22132616.2374   22132621.8734
      3554.208        2769.513
   9104672.189 9   7090664.45146  23701836.849    23701837.8744   23701845.1054
     -1817.742       -1416.422
    231930.671 9    184171.10848  20900376.855    20900377.5224   20900382.8784
      -796.186        -620.405
  -3397397.970 9  -2472052.62149  20269890.952    20269891.6554   20269896.5904
      -931.392        -725.760
   -569257.414 9   -433849.42847  23025851.456    23025852.3814   23025858.4534
     -1533.759       -1195.137
 96 11 12 18  9 29.9980000  0  7 25  3 15 23 21  1 31               -0.001379862
 -20369886.378 9 -15854274.74248  21794133.617    21794134.8184   21794140.6344
      3258.812        2539.334
  11212190.019 9   8735252.80647  23742602.531    23742603.5624   23742611.1534
     -2566.955       -2000.225
 -11733269.060 9  -9121168.33947  22112352.067    22112352.8564   22112358.5774
      3545.172        2762.472
   9159259.888 9   7133200.24746  23712224.403    23712225.5424   23712232.9234
     -1821.001       -1418.962
    255933.231 9    202874.37648  20904944.343    20904945.0684   20904950.4164
      -803.543        -626.137
  -3369285.413 9  -2450146.74549  20275240.445    20275241.3304   20275246.2434
      -942.542        -734.448
   -523071.644 9   -397860.55047  23034640.380    23034641.2414   23034647.3494
     -1544.723       -1203.680
 96 11 12 18  9 59.9980000  0  7 25  3 15 23 21  1 31               -0.001388865
 -20467475.657 9 -15930318.25848  21775562.851    21775564.1184   21775569.9514
      3247.666        2530.649
  11289216.818 9   8795273.61046  23757260.017    23757261.4324   23757268.9544
     -2567.833       -2000.909
 -11839474.861 9  -9203926.08047  22092142.027    22092142.5744   22092148.3274
      3535.514        2754.946
   9213949.764 9   7175815.67346  23722631.588    23722632.7824   23722639.9924
     -1824.592       -1421.760
    280158.894 9    221751.48648  20909554.294    20909555.0814   20909560.4464
      -811.257        -632.148
  -3340823.482 9  -2427968.62749  20280656.531    20280657.4504   20280662.3914
      -954.576        -743.825
   -476562.514 9   -361619.69447  23043490.753    23043491.7134   23043497.7124
     -1555.613       -1212.166
 96 11 12 18 10 29.9980000  0  7 25  3 15 23 21  1 31               -0.001397902
 -20564759.513 9 -16006123.78548  21757050.244    21757051.5724   21757057.3994
      3237.430        2522.673
  11366247.923 9   8855297.76846  23771918.593    23771919.9524   23771927.6104
     -2568.021       -2001.055
 -11945404.902 9  -9286468.95947  22071983.994    22071984.7564   22071990.4664
      3525.984        2747.520
   9268725.649 9   7218498.10546  23733055.194    23733056.3154   23733063.5404
     -1827.651       -1424.144
    304595.684 9    240793.11448  20914204.607    20914205.2704   20914210.6604
      -818.468        -637.767
  -3312020.922 9  -2405525.08849  20286137.318    20286138.4094   20286143.3494
      -966.026        -752.748
   -429746.215 9   -325139.47747  23052399.518    23052400.6404   23052406.5934
     -1566.031       -1220.284
 96 11 12 18 10 59.9980000  0  7 25  3 15 23 21  1 31               -0.001406963
 -20661733.465 9 -16081687.82448  21738596.606    21738597.9974   21738603.8244
      3227.741        2515.123
  11443279.528 9   8915322.28646  23786577.504    23786578.5934   23786586.4004
     -2567.366       -2000.545
 -12051049.328 9  -9368789.27047  22051880.433    22051881.2824   22051886.9744
      3516.974        2740.499
   9323598.739 9   7261256.28146  23743497.575    23743498.3454   23743505.5704
     -1830.732       -1426.544
    329250.574 9    260004.68548  20918896.157    20918896.9554   20918902.3414
      -825.227        -643.034
  -3282882.084 9  -2382819.51049  20291682.301    20291683.3954   20291688.3094
      -976.492        -760.903
   -382623.595 9   -288420.58047  23061366.588    23061367.7224   23061373.7424
     -1575.584       -1227.728
 96 11 12 18 11 29.9980000  0  7 25  3 15 23 21  1 31               -0.001416035
 -20758413.437 9 -16157022.80248  21720198.999    21720200.3304   21720206.1804
      3218.244        2507.723
  11520312.518 9   8975347.88346  23801236.476    23801237.5314   23801245.3334
     -2567.508       -2000.656
 -12156401.805 9  -9450882.10547  22031831.925    22031833.3434   22031839.1194
      3507.089        2732.797
   9378588.384 9   7304105.30046  23753962.117    23753962.6644   23753969.7854
     -1834.655       -1429.601
    354135.574 9    279395.56848  20923631.685    20923632.4274   20923637.8574
      -833.198        -649.245
  -3253413.946 9  -2359857.33949  20297289.979    20297291.0214   20297295.8964
      -987.463        -769.452
   -335194.601 9   -251462.96547  23070392.060    23070393.1654   23070399.2394
     -1585.802       -1235.690
 96 11 12 18 11 59.9980000  0  7 25  3 15 23 21  1 31               -0.001425104
 -20854820.256 9 -16232144.92148  21701853.469    21701854.6054   21701860.4874
      3208.848        2500.401
  11597339.481 9   9035368.78246  23815894.627    23815895.3524   23815903.1344
     -2567.792       -2000.877
 -12261457.372 9  -9532743.57847  22011840.564    22011841.9114   22011847.6894
      3496.435        2724.495
   9433698.549 9   7347048.21246  23764449.332    23764449.8734   23764456.9944
     -1839.399       -1433.298
    379265.078 9    298976.98048  20928413.463    20928414.4114   20928419.8794
      -842.413        -656.426
  -3223621.388 9  -2336642.37149  20302959.195    20302960.3604   20302965.2014
      -998.788        -778.276
   -287456.122 9   -214264.18547  23079476.452    23079477.5514   23079483.5914
     -1597.019       -1244.430
 96 11 12 18 12 29.9980000  0  7 25  3 15 23 21  1 31               -0.001434155
 -20950954.291 9 -16307054.49948  21683559.600    21683560.8614   21683566.7404
      3199.608        2493.201
  11674362.410 9   9095386.53646  23830551.630    23830552.3664   23830560.2214
     -2567.271       -2000.471
 -12366202.951 9  -9614363.47947  21991908.141    21991909.4324   21991915.2364
      3486.390        2716.668
   9488942.340 8   7390095.25246  23774961.678    23774962.4314   23774969.5644
     -1843.620       -1436.587
    404670.115 9    318773.08648  20933247.901    20933248.8464   20933254.3364
      -851.468        -663.481
  -3193502.550 9  -2313173.16149  20308690.622    20308691.8064   20308696.6314
     -1009.287        -786.457
   -239386.627 9   -176807.49247  23088623.947    23088624.8604   23088630.9874
     -1607.877       -1252.891
 96 11 12 18 12 59.9980000  0  7 25  3 15 23 21  1 31               -0.001443193
 -21046798.462 9 -16381738.21248  21665321.054    21665322.2724   21665328.1084
      3190.160        2485.839
  11751370.692 9   9155392.87446  23845205.696    23845206.6394   23845214.5004
     -2566.721       -2000.042
 -12470646.764 9  -9695748.25247  21972033.068    21972034.4524   21972040.2844
      3476.468        2708.936
   9544311.445 9   7433239.95246  23785498.020    23785498.9694   23785506.0434
     -1847.672       -1439.744
    430354.275 9    338786.68948  20938135.543    20938136.4134   20938141.8804
      -860.743        -670.709
  -3163066.450 9  -2289456.73449  20314482.468    20314483.6434   20314488.4314
     -1019.724        -794.590
   -190990.339 9   -139096.13647  23097833.495    23097834.4074   23097840.5444
     -1618.684       -1261.312
 96 11 12 18 13 29.9980000  0  7 25  3 15 23 21  1 31               -0.001452210
 -21142352.391 9 -16456195.75848  21647137.578    21647138.9194   21647144.7264
      3180.441        2478.266
  11828378.433 9   9215398.81646  23859859.803    23859860.7414   23859868.6644
     -2566.459       -1999.838
 -12574778.327 9  -9776889.72847  21952217.334    21952218.9134   21952224.6524
      3466.304        2701.016
   9599805.329 9   7476481.85046  23796058.479    23796059.2284   23796066.3584
     -1851.186       -1442.483
    456323.347 9    359022.31248  20943077.469    20943078.1914   20943083.6784
      -869.858        -677.811
  -3132307.584 9  -2265488.80049  20320335.705    20320336.8624   20320341.6544
     -1030.113        -802.685
   -142257.691 9   -101122.68447  23107107.041    23107108.0244   23107114.1424
     -1629.463       -1269.711
 96 11 12 18 13 59.9980000  0  7 25  3 15 23 21  1 31               -0.001461223
 -21237608.550 9 -16530421.29148  21629011.012    21629012.2244   21629018.0164
      3169.832        2469.999
  11905368.984 9   9275391.37246  23874510.703    23874511.6344   23874519.5884
     -2566.405       -1999.796
 -12678612.573 9  -9857799.51247  21932458.388    21932459.8934   21932465.6934
      3455.927        2692.930
   9655404.424 8   7519805.76046  23806638.723    23806639.4054   23806646.5744
     -1855.476       -1445.825
    482557.719 9    379464.65048  20948069.773    20948070.4294   20948075.9524
      -879.078        -684.996
  -3101250.948 9  -2241288.84149  20326245.620    20326246.7484   20326251.5234
     -1040.386        -810.690
    -93219.070 9    -62910.80847  23116439.023    23116439.8154   23116445.9364
     -1639.894       -1277.839
 96 11 12 18 14 29.9980000  0  7 25  3 15 23 21  1 31               -0.001470218
 -21332529.670 9 -16604385.74648  21610948.039    21610949.2794   21610955.0734
      3158.455        2461.134
  11982367.984 9   9335390.47746  23889163.342    23889164.1644   23889172.1524
     -2566.570       -1999.925
 -12782130.811 9  -9938463.06747  21912759.470    21912761.0274   21912766.7864
      3445.531        2684.829
   9711136.911 9   7563233.62146  23817244.350    23817245.1314   23817252.1984
     -1859.817       -1449.208
    509062.961 9    400118.06248  20953113.528    20953114.2184   20953119.7824
      -887.611        -691.645
  -3069884.585 9  -2216847.53349  20332214.465    20332215.5784   20332220.3374
     -1050.440        -818.525
    -43860.289 9    -24449.44847  23125831.720    23125832.5114   23125838.6214
     -1650.357       -1285.992
 96 11 12 18 14 59.9980000  0  7 25  3 15 23 21  1 31               -0.001479208
 -21427121.206 9 -16678093.39648  21592947.836    21592949.0264   21592954.8384
      3147.979        2452.971
  12059360.127 9   9395384.25046  23903814.266    23903815.3884   23903823.3374
     -2566.072       -1999.537
 -12885348.468 9 -10018892.40147  21893117.730    21893119.3474   21893125.0804
      3435.825        2677.266
   9766990.501 9   7606755.81446  23827872.999    23827873.6104   23827880.8884
     -1863.622       -1452.173
    535806.392 9    420957.07948  20958202.634    20958203.3354   20958208.9134
      -895.098        -697.479
  -3038230.950 9  -2192182.38249  20338238.006    20338239.0854   20338243.8454
     -1059.609        -825.669
      5792.236 9     14240.77947  23135280.361    23135281.0394   23135287.2384
     -1659.639       -1293.225
 96 11 12 18 15 29.9980000  0  7 25  3 15 23 21  1 31               -0.001488194
 -21521395.137 9 -16751553.56148  21575008.025    21575009.2414   21575015.0614
      3136.788        2444.250
  12136339.479 9   9455368.05846  23918463.205    23918464.1254   23918472.0934
     -2565.743       -1999.280
 -12988266.896 9 -10099088.56347  21873533.359    21873534.6364   21873540.3894
      3425.496        2669.218
   9822966.151 9   7650373.15646  23838525.041    23838525.6494   23838532.8324
     -1867.879       -1455.490
    562773.329 9    441970.25948  20963334.303    20963334.9994   20963340.5654
      -902.764        -703.452
  -3006298.385 9  -2167299.87649  20344314.694    20344315.6614   20344320.4054
     -1069.236        -833.171
     55722.609 9     53147.51947  23144781.914    23144782.4944   23144788.7014
     -1668.960       -1300.488
 96 11 12 18 15 59.9980000  0  7 25  3 15 23 21  1 31               -0.001497174
 -21615321.187 9 -16824742.65348  21557134.546    21557135.6904   21557141.4694
      3125.336        2435.327
  12213317.678 9   9515350.97546  23933111.885    23933112.6054   23933120.6034
     -2565.879       -1999.386
 -13090866.350 9 -10179036.16047  21854009.557    21854010.5894   21854016.3494
      3414.708        2660.811
   9879079.330 8   7694097.64746  23849203.128    23849203.6794   23849210.9334
     -1872.569       -1459.145
    589980.757 9    463170.83748  20968511.737    20968512.4174   20968517.9844
      -910.823        -709.732
  -2974064.777 9  -2142182.78949  20350448.415    20350449.4894   20350454.2544
     -1079.496        -841.166
    105936.451 9     92275.17447  23154337.299    23154337.9564   23154344.0494
     -1678.567       -1307.974
 96 11 12 18 16 29.9980000  0  7 25  3 15 23 21  1 31               -0.001506159
 -21708910.015 9 -16897668.97948  21539325.174    21539326.2954   21539332.0684
      3113.242        2425.903
  12290285.537 9   9575325.81046  23947758.414    23947759.1854   23947767.1574
     -2565.736       -1999.275
 -13193149.059 9 -10258736.96747  21834546.037    21834546.8424   21834552.5604
      3403.397        2651.998
   9935310.096 9   7737913.73546  23859903.351    23859904.0694   23859911.3374
     -1876.855       -1462.484
    617425.258 9    484556.14548  20973734.388    20973734.9704   20973740.5354
      -919.605        -716.575
  -2941529.113 9  -2116830.33549  20356639.785    20356640.8314   20356645.5964
     -1090.231        -849.531
    156435.375 9    131624.92947  23163946.831    23163947.5824   23163953.7894
     -1688.629       -1315.815
 96 11 12 18 16 59.9980000  0  7 25  3 15 23 21  1 31               -0.001515150
 -21802148.380 9 -16970322.21348  21521582.453    21521583.5884   21521589.3664
      3102.755        2417.731
  12367228.501 9   9635281.24646  23962400.292    23962401.0354   23962408.9884
     -2563.678       -1997.671
 -13295097.730 9 -10338177.46447  21815145.974    21815146.6194   21815152.3714
      3393.290        2644.122
   9991660.605 8   7781823.15146  23870626.672    23870627.0844   23870634.6274
     -1879.775       -1464.760
    645132.152 9    506145.91048  20979006.800    20979007.4284   20979013.0034
      -927.322        -722.589
  -2908675.999 9  -2091230.52049  20362891.646    20362892.5624   20362897.3564
     -1099.863        -857.036
    207214.916 9    171193.36247  23173609.888    23173610.6214   23173616.7934
     -1696.632       -1322.051
 96 11 12 18 17 29.9980000  0  7 25  3 15 23 21  1 31               -0.001524157
 -21895051.138 9 -17042713.93348  21503903.578    21503904.7264   21503910.5554
      3091.359        2408.851
  12444123.835 9   9695199.56746  23977033.115    23977033.8684   23977041.7564
     -2562.113       -1996.452
 -13396721.500 9 -10417364.81047  21795807.725    21795808.2564   21795814.0064
      3382.281        2635.544
  10048115.322 8   7825813.75446  23881370.151    23881370.2824   23881377.7474
     -1883.274       -1467.486
    673089.066 9    527930.50048  20984326.909    20984327.5094   20984333.0594
      -935.919        -729.288
  -2875515.481 9  -2065391.16449  20369201.805    20369202.7964   20369207.6324
     -1110.320        -865.184
    258251.529 9    210962.11347  23183321.929    23183322.5704   23183328.7034
     -1705.268       -1328.780
 96 11 12 18 17 59.9980000  0  7 25  3 15 23 21  1 31               -0.001533190
 -21987627.466 9 -17114851.29948  21486286.860    21486287.9934   21486293.8234
      3079.704        2399.769
  12520957.901 9   9755070.12546  23991654.109    23991655.0294   23991662.9704
     -2560.908       -1995.513
 -13498027.582 9 -10496304.59747  21776529.916    21776530.3144   21776536.0694
      3370.651        2626.481
  10104660.800 8   7869875.11046  23892130.417    23892130.5684   23892137.8854
     -1887.359       -1470.669
    701295.040 9    549909.15748  20989694.501    20989694.9674   20989700.4884
      -945.286        -736.586
  -2842052.651 9  -2039316.24549  20375569.753    20375570.5894   20375575.4114
     -1121.328        -873.762
    309544.570 9    250930.66847  23193082.574    23193083.2574   23193089.5324
     -1715.205       -1336.523
 96 11 12 18 18 29.9980000  0  7 25  3 15 23 21  1 31               -0.001542229
 -22079866.476 9 -17186725.81948  21468734.360    21468735.5044   21468741.3344
      3068.462        2391.009
  12597731.665 9   9814893.70046  24006263.802    24006264.6344   24006272.5854
     -2558.721       -1993.809
 -13598997.455 9 -10574982.40947  21757315.870    21757316.3954   21757322.1444
      3359.435        2617.742
  10161321.578 8   7914026.27346  23902912.582    23902912.8854   23902920.2394
     -1891.329       -1473.763
    729770.191 9    572097.56148  20995113.193    20995113.6444   20995119.1464
      -954.231        -743.557
  -2808276.245 9  -2012996.98249  20381997.149    20381998.0254   20382002.8424
     -1131.635        -881.793
    361123.269 9    291121.83547  23202897.834    23202898.4094   23202904.7144
     -1724.539       -1343.797
 96 11 12 18 18 59.9980000  0  7 25  3 15 23 21  1 31               -0.001551271
 -22171773.676 9 -17258341.78548  21451245.024    21451246.1444   21451251.9474
      3057.680        2382.608
  12674452.961 9   9874676.43546  24020863.584    24020864.2974   24020872.3304
     -2557.220       -1992.639
 -13699630.995 9 -10653398.15047  21738165.985    21738166.5074   21738172.2334
      3348.496        2609.218
  10218101.822 8   7958270.56046  23913717.546    23913717.9354   23913725.2274
     -1895.136       -1476.729
    758504.370 9    594487.80448  21000581.192    21000581.6264   21000587.0924
      -962.344        -749.878
  -2774190.710 9  -1986436.83649  20388483.365    20388484.2844   20388489.1134
     -1141.640        -889.590
    412981.759 9    331530.99747  23212766.294    23212766.7404   23212773.0524
     -1733.711       -1350.944
 96 11 12 18 19 29.9980000  0  7 25  3 15 23 21  1 31               -0.001560311
 -22263357.606 9 -17329705.85248  21433817.255    21433818.2904   21433824.0624
      3047.655        2374.796
  12751139.159 9   9934431.76046  24035456.420    24035457.2794   24035465.3804
     -2555.465       -1991.271
 -13799933.017 9 -10731555.55347  21719078.992    21719079.6104   21719085.3774
      3337.951        2601.001
  10275000.744 9   8002607.30546  23924544.981    23924545.3324   23924552.8104
     -1898.486       -1479.340
    787484.118 9    617069.40048  21006095.945    21006096.3194   21006101.7404
      -970.000        -755.844
  -2739808.041 9  -1959645.15149  20395026.239    20395027.0994   20395031.9314
     -1150.832        -896.752
    465125.351 9    372162.33847  23222688.967    23222689.4234   23222695.7264
     -1742.996       -1358.179
 96 11 12 18 19 59.9980000  0  7 25  3 15 23 21  1 31               -0.001569336
 -22354614.394 9 -17400815.00548  21416451.580    21416452.6814   21416458.4744
      3036.323        2365.966
  12827792.858 9   9994161.76146  24050043.237    24050044.0464   24050052.1684
     -2554.551       -1990.559
 -13899891.637 9 -10809445.37547  21700057.314    21700058.0894   21700063.8474
      3326.142        2591.799
  10332027.787 8   8047043.90346  23935397.258    23935397.3114   23935404.8364
     -1903.111       -1482.944
    816713.977 9    639845.88248  21011658.187    21011658.5874   21011664.0254
      -978.493        -762.462
  -2705126.848 9  -1932620.85749  20401625.898    20401626.7294   20401631.5274
     -1160.982        -904.661
    517574.752 9    413031.94547  23232669.702    23232670.2294   23232676.6014
     -1753.256       -1366.174
 96 11 12 18 20 29.9980000  0  8 25  3 15 23 21  1 29 31            -0.001578349
 -22445533.412 9 -17471660.96348  21399150.263    21399151.3094   21399157.1094
      3024.973        2357.122
  12904410.714 9  10053863.87546  24064623.106    24064624.0714   24064632.1534
     -2553.514       -1989.751
 -13999501.249 9 -10887063.23047  21681102.164    21681102.9374   21681108.7514
      3314.441        2582.681
  10389188.772 8   8091584.87346  23946274.596    23946274.7664   23946282.1494
     -1907.645       -1486.477
    846192.762 9    662816.33348  21017267.934    21017268.2654   21017273.6654
      -986.881        -768.998
  -2670153.552 9  -1905368.94549  20408281.043    20408281.9114   20408286.7074
     -1170.550        -912.117
   -293449.62218   -212582.43455  24234156.104           0.0005   24234162.0435
      3391.092        2642.409
    570308.113 9    454122.81947  23242704.506    23242705.0644   23242711.4364
     -1762.296       -1373.218
 96 11 12 18 20 59.9980000  0  8 25  3 15 23 21  1 29 31            -0.001587356
 -22536128.507 9 -17542254.50948  21381910.545    21381911.6114   21381917.4054
      3014.416        2348.896
  12980989.307 9  10113535.40046  24079195.424    24079196.5704   24079204.7774
     -2551.787       -1988.405
 -14098771.532 9 -10964416.67647  21662211.548    21662212.3984   21662218.2724
      3303.374        2574.058
  10446471.155 9   8136220.39146  23957174.646    23957175.0754   23957182.6644
     -1911.394       -1489.398
    875916.097 9    685977.34548  21022924.135    21022924.4684   21022929.8644
      -994.855        -775.212
  -2634911.921 9  -1877907.93949  20414987.392    20414988.1664   20414992.9664
     -1179.105        -918.783
   -395111.004 8   -291798.97245  24214803.687    24214810.9545   24214818.5574
      3386.339        2638.706
    623292.760 9    495409.51547  23252787.264    23252787.7104   23252794.1704
     -1770.187       -1379.366
 96 11 12 18 21 29.9980000  0  8 25  3 15 23 21  1 29 31            -0.001596358
 -22626397.358 9 -17612593.85048  21364733.060    21364733.9974   21364739.7624
      3003.427        2340.333
  13057504.897 9  10173157.81746  24093756.112    24093757.0614   24093765.3434
     -2549.174       -1986.369
 -14197701.665 9 -11041505.09247  21643385.483    21643386.6024   21643392.4694
      3291.942        2565.150
  10503872.786 8   8180948.88446  23968098.334    23968098.4144   23968105.9154
     -1915.323       -1492.459
    905889.551 9    709333.25948  21028627.875    21028628.2414   21028633.6254
     -1003.431        -781.894
  -2599408.596 9  -1850243.02149  20421743.612    20421744.2194   20421749.0394
     -1187.795        -925.555
   -496623.711 8   -370899.76255  24195486.992    24195494.0234   24195499.8535
      3381.189        2634.693
    676516.257 9    536882.31147  23262915.215    23262915.7964   23262922.2924
     -1778.035       -1385.482
 96 11 12 18 21 59.9980000  0  8 25  3 15 23 21  1 29 31            -0.001605356
 -22716328.260 9 -17682669.84848  21347619.661    21347620.6874   21347626.4404
      2991.812        2331.282
  13133937.464 9  10232715.51146  24108301.011    24108301.8474   24108310.1644
     -2546.617       -1984.377
 -14296288.344 9 -11118325.85647  21624625.192    21624626.1384   21624632.0484
      3280.431        2556.180
  10561385.851 9   8225764.14546  23979042.085    23979042.7694   23979050.3974
     -1918.890       -1495.239
    936125.686 9    732893.86248  21034381.742    21034382.0154   21034387.3864
     -1012.455        -788.926
  -2563646.397 9  -1822376.38049  20428548.865    20428549.5344   20428554.3664
     -1196.516        -932.350
   -597974.346 8   -449874.16645  24176202.453    24176206.1225   24176213.5494
      3375.544        2630.294
    729964.667 9    578530.38247  23273086.175    23273086.7424   23273093.2184
     -1785.230       -1391.088
 96 11 12 18 22 29.9980000  0  8 25  3 15 23 21  1 29 31            -0.001614344
 -22805900.008 9 -17752465.98448  21330574.738    21330575.7444   21330581.4714
      2979.323        2321.550
  13210310.611 9  10292226.91147  24122834.698    24122835.2314   24122843.6724
     -2545.361       -1983.398
 -14394523.136 9 -11194872.44547  21605931.895    21605932.6584   21605938.5434
      3268.106        2546.576
  10619007.043 8   8270663.76246  23990007.418    23990007.9144   23990015.2994
     -1923.006       -1498.446
    966642.534 9    756673.19348  21040188.845    21040189.1704   21040194.5684
     -1022.406        -796.680
  -2527619.511 9  -1794303.49248  20435404.496    20435405.2004   20435410.0734
     -1205.702        -939.508
   -699156.674 8   -528717.51045  24156949.213    24156952.2554   24156959.5504
      3369.403        2625.509
    783633.757 9    620350.40647  23283299.224    23283299.6534   23283306.1114
     -1793.339       -1397.407
 96 11 12 18 22 59.9980000  0  8 25  3 15 23 21  1 29 31            -0.001623330
 -22895117.317 9 -17821985.93848  21313597.190    21313598.1954   21313603.9444
      2967.775        2312.552
  13286619.812 9  10351688.48046  24137356.018    24137356.4904   24137364.9624
     -2542.379       -1981.075
 -14492407.661 9 -11271146.08347  21587305.105    21587305.8244   21587311.7054
      3256.951        2537.884
  10676726.203 9   8315639.57046  24000990.682    24000991.3804   24000999.2414
     -1925.482       -1500.376
    997429.929 9    780663.34648  21046047.609    21046047.8204   21046053.2274
     -1030.483        -802.974
  -2491338.267 9  -1766032.40749  20442308.625    20442309.2774   20442314.1574
     -1213.760        -945.787
   -800177.489 8   -607434.95845  24137726.198    24137728.6994   24137735.7234
      3364.835        2621.949
    837530.431 9    662347.77047  23293555.254    23293555.8834   23293562.3894
     -1800.415       -1402.921
 96 11 12 18 23 29.9980000  0  8 25  3 15 23 21  1 29 31            -0.001632365
 -22983961.540 9 -17891215.17748  21296690.627    21296691.6774   21296697.4134
      2955.456        2302.953
  13362851.796 9  10411089.89046  24151862.369    24151863.0994   24151871.5794
     -2539.548       -1978.869
 -14589935.491 9 -11347141.78747  21568746.239    21568746.8644   21568752.7814
      3245.177        2528.709
  10734540.021 8   8360689.25746  24011992.191    24011993.1474   24012000.7324
     -1928.459       -1502.695
   1028474.648 9    804854.00748  21051955.149    21051955.4364   21051960.8924
     -1038.870        -809.509
  -2454789.276 9  -1737552.68549  20449263.555    20449264.3344   20449269.2294
     -1222.481        -952.583
   -901044.108 8   -686032.27245  24118532.135    24118534.4434   24118541.4084
      3359.772        2618.004
    891665.149 9    704530.61847  23303856.731    23303857.3864   23303863.8994
     -1808.452       -1409.183
 96 11 12 18 23 59.9980000  0  8 25  3 15 23 21  1 29 31            -0.001641381
 -23072424.617 9 -17960147.41848  21279856.645    21279857.7144   21279863.4104
      2942.051        2292.507
  13439006.057 9  10470430.74346  24166354.122    24166354.8424   24166363.4194
     -2537.676       -1977.410
 -14687104.691 9 -11422858.03247  21550255.678    21550256.1784   21550262.0724
      3232.572        2518.887
  10792446.700 8   8405811.23546  24023011.790    24023012.5474   24023020.1624
     -1932.246       -1505.646
   1059770.281 9    829240.19648  21057910.302    21057910.8014   21057916.3044
     -1047.656        -816.355
  -2417975.124 9  -1708866.34148  20456269.179    20456269.8364   20456274.7294
     -1232.055        -960.043
  -1001755.169 8   -764508.34645  24099367.464    24099369.8214   24099376.7344
      3354.249        2613.700
    946054.375 9    746911.81547  23314206.917    23314207.4134   23314213.8534
     -1817.726       -1416.410
 96 11 12 18 24 29.9980000  0  8 25  3 15 23 21  1 29 31            -0.001650411
 -23160506.313 9 -18028782.48148  21263095.446    21263096.3524   21263102.0034
      2929.765        2282.934
  13515087.976 9  10529715.23246  24180832.006    24180832.8254   24180841.4084
     -2534.619       -1975.028
 -14783912.328 9 -11498292.54548  21531834.005    21531834.3414   21531840.1864
      3220.886        2509.781
  10850460.514 8   8451016.69546  24034051.819    24034052.2614   24034059.8754
     -1935.830       -1508.439
   1091305.485 9    853813.05948  21063911.163    21063911.7894   21063917.2794
     -1055.121        -822.172
  -2380890.910 9  -1679969.56248  20463325.967    20463326.7444   20463331.6164
     -1240.577        -966.683
  -1102323.508 8   -842873.18645  24080230.394    24080232.3674   24080239.2544
      3349.899        2610.311
   1000708.986 9    789499.76947  23324607.201    23324607.8604   23324614.3254
     -1826.320       -1423.106
 96 11 12 18 24 59.9980000  0  8 25  3 15 23 21  1 29 31            -0.001659451
 -23248218.599 9 -18097129.68848  21246404.365    21246405.2554   21246410.8494
      2917.091        2273.058
  13591069.249 8  10588921.28245  24195290.339    24195291.6784   24195300.2504
     -2531.453       -1972.561
 -14880365.281 9 -11573450.67248  21513479.424    21513479.9604   21513485.7474
      3208.742        2500.318
  10908588.697 8   8496311.33746  24045113.755    24045113.8124   24045121.4194
     -1939.881       -1511.596
   1123070.967 9    878565.35648  21069955.992    21069956.5974   21069962.0534
     -1063.176        -828.449
  -2343546.257 9  -1650869.84948  20470432.398    20470433.2284   20470438.1024
     -1249.707        -973.798
  -1202757.129 9   -921133.04845  24061118.845    24061120.3174   24061127.5124
      3345.186        2606.638
   1055626.614 9    832292.68647  23335057.658    23335058.3754   23335064.8294
     -1835.406       -1430.186
 96 11 12 18 25 29.9980000  0  8 25  3 15 23 21  1 29 31            -0.001668491
 -23335546.782 9 -18165177.59148  21229786.224    21229787.2164   21229792.8164
      2904.303        2263.093
  13666963.965 8  10648059.91145  24209733.170    24209734.0954   24209742.6084
     -2528.812       -1970.503
 -14976448.201 9 -11648320.47248  21495195.497    21495196.0094   21495201.7254
      3196.203        2490.548
  10966849.099 8   8541708.94546  24056200.300    24056200.4144   24056208.1194
     -1944.580       -1515.257
   1155089.893 9    903515.15148  21076049.108    21076049.6464   21076055.0844
     -1072.088        -835.393
  -2305919.808 9  -1621550.55048  20477592.512    20477593.3244   20477598.1774
     -1259.217        -981.208
  -1303039.967 9   -999275.43045  24042035.982    24042037.1014   24042044.2824
      3339.729        2602.386
   1110822.343 9    875302.30947  23345561.142    23345561.7764   23345568.3244
     -1844.881       -1437.570
 96 11 12 18 25 59.9980000  0  8 25  3 15 23 21  1 29 31            -0.001677513
 -23422486.995 9 -18232923.18048  21213242.014    21213243.0084   21213248.6044
      2891.751        2253.312
  13742789.843 8  10707144.86855  24224162.215    24224162.3724   24224167.1475
     -2526.179       -1968.451
 -15072147.810 9 -11722891.58448  21476984.222    21476985.0014   21476990.7024
      3183.712        2480.814
  11025255.228 8   8587220.11546  24067314.345    24067314.8164   24067322.4454
     -1949.198       -1518.856
   1187385.406 9    928680.46348  21082194.765    21082195.3064   21082200.7184
     -1080.982        -842.324
  -2268008.913 9  -1592009.61048  20484806.765    20484807.5284   20484812.4044
     -1268.206        -988.212
  -1403144.603 9  -1077278.92645  24022986.594    24022987.7714   24022994.8924
      3333.869        2597.820
   1166295.691 9    918528.24547  23356117.432    23356118.0524   23356124.6194
     -1853.192       -1444.046
 96 11 12 18 26 29.9980000  0  8 25  3 15 23 21  1 29 31            -0.001686430
 -23509053.352 9 -18300377.45148  21196768.930    21196769.9694   21196775.5334
      2879.338        2243.640
  13818536.878 8  10766168.41845  24238576.724    24238577.7674   24238587.5384
     -2523.421       -1966.302
 -15167471.465 9 -11797169.74448  21458844.757    21458845.5514   21458851.2284
      3171.181        2471.050
  11083807.361 9   8632845.06846  24078456.411    24078457.1284   24078464.4864
     -1954.044       -1522.632
   1219952.218 9    954057.17248  21088392.036    21088392.5804   21088398.0034
     -1090.115        -849.440
  -2229828.822 9  -1562258.90448  20492072.359    20492072.9824   20492077.8514
     -1277.085        -995.131
  -1503067.423 9  -1155140.74846  24003971.950    24003973.1324   24003980.1734
      3327.715        2593.025
   1222007.090 9    961939.68447  23366718.864    23366719.5974   23366726.1804
     -1860.877       -1450.034
 96 11 12 18 26 59.9980000  0  8 25  3 15 23 21  1 29 31            -0.001695397
 -23595250.082 9 -18367543.70348  21180366.336    21180367.2654   21180372.8114
      2867.339        2234.290
  13894186.841 7  10825116.31445  24252972.375    24252973.7794   24252983.0684
     -2519.771       -1963.458
 -15262418.816 9 -11871154.68248  21440776.882    21440777.6614   21440783.3464
      3158.942        2461.513
  11142486.963 9   8678569.31046  24089622.497    24089623.4574   24089631.0954
     -1957.614       -1525.414
   1252793.010 9    979647.36648  21094641.436    21094641.9914   21094647.4174
     -1098.737        -856.159
  -2191383.464 9  -1532301.50148  20499388.279    20499388.9144   20499393.7734
     -1285.631       -1001.790
  -1602810.402 9  -1232862.44046  23984991.567    23984992.5244   23984999.6614
      3322.143        2588.683
   1277942.508 9   1005525.68447  23377363.113    23377363.8024   23377370.3914
     -1867.802       -1455.430
 96 11 12 18 27 29.9980000  0  8 25  3 15 23 21  1 29 31            -0.001704364
 -23681075.760 9 -18434420.82048  21164034.153    21164035.1634   21164040.7134
      2854.715        2224.453
  13969728.49917  10883979.83254  24267347.294    24267341.2505          0.0005
     -2516.129       -1960.620
 -15356989.466 9 -11944846.08148  21422780.673    21422781.4404   21422787.1534
      3146.052        2451.469
  11201285.389 8   8724386.15446  24100811.752    24100812.5524   24100820.1114
     -1961.981       -1528.816
   1285889.474 9   1005436.78848  21100939.502    21100940.0624   21100945.4974
     -1107.407        -862.915
  -2152674.753 9  -1502138.88148  20506754.262    20506754.9674   20506759.8164
     -1294.577       -1008.761
  -1702378.809 9  -1310448.10246  23966044.273    23966045.2814   23966052.3044
      3316.008        2583.902
   1334084.767 9   1049272.84647  23388046.682    23388047.3734   23388053.9914
     -1874.814       -1460.894
 96 11 12 18 27 59.9980000  0  8 25  3 15 23 21  1 29 31            -0.001713336
 -23766518.205 9 -18500999.31748  21147774.868    21147775.9854   21147781.5164
      2841.843        2214.423
  14045162.74017  10942759.67854  24281701.566           0.0005          0.0005
     -2512.486       -1957.781
 -15451172.016 9 -12018235.07748  21404858.284    21404859.0864   21404864.8004
      3133.181        2441.440
  11260215.126 9   8770305.37446  24112025.894    24112026.5504   24112034.0204
     -1966.308       -1532.188
   1319244.934 9   1031428.03048  21107286.905    21107287.4044   21107292.8464
     -1115.902        -869.534
  -2113701.111 9  -1471769.82348  20514170.697    20514171.4134   20514176.2794
     -1303.367       -1015.611
  -1801766.779 9  -1387893.15746  23947131.244    23947132.3154   23947139.2984
      3310.379        2579.516
   1390433.326 9   1093180.77547  23398769.685    23398770.2034   23398776.8094
     -1881.497       -1466.101
 96 11 12 18 28 29.9980000  0  8 25  3 15 23 21  1 29 31            -0.001722332
 -23851579.377 9 -18567280.70948  21131588.319    21131589.3784   21131594.8784
      2829.258        2204.617
  14120479.94616  11001448.31654  24296034.251           0.0005          0.0005
     -2508.509       -1954.682
 -15544970.164 9 -12091324.52448  21387009.126    21387009.8514   21387015.5734
      3120.365        2431.453
  11319271.749 8   8816323.36846  24123264.274    24123264.6414   24123272.5734
     -1970.310       -1535.306
   1352855.627 9   1057618.15448  21113682.814    21113683.3014   21113688.8104
     -1124.423        -876.174
  -2074452.083 9  -1441186.17148  20521639.613    20521640.2664   20521645.1494
     -1312.924       -1023.058
  -1901000.745 9  -1465218.24046  23928247.567    23928248.6794   23928255.6654
      3305.600        2575.792
   1446988.326 9   1137249.55647  23409531.972    23409532.3384   23409538.9964
     -1888.581       -1471.621
 96 11 12 18 28 59.9980000  0  8 25  3 15 23 21  1 29 31            -0.001731350
 -23936248.440 9 -18633256.56548  21115476.419    21115477.3654   21115482.8484
      2816.276        2194.501
  14195703.01616     54239.10953  24310348.707           0.0005          0.0005
     -2505.514       -1952.349
 -15638370.516 9 -12164104.02548  21369235.575    21369236.3514   21369242.0324
      3107.239        2421.225
  11378457.991 9   8862442.43646  24134527.002    24134527.5384   24134535.1464
     -1974.677       -1538.709
   1386730.400 9   1084014.05348  21120129.013    21120129.4604   21120134.9624
     -1132.898        -882.778
  -2034904.880 9  -1410370.18148  20529165.180    20529165.8454   20529170.7504
     -1322.484       -1030.507
  -2000078.807 9  -1542421.85446  23909393.878    23909394.7384   23909401.6054
      3300.384        2571.728
   1503768.648 9   1181493.92447  23420336.898    23420337.2784   23420343.9324
     -1895.868       -1477.300
 96 11 12 18 29 29.9980000  0  8 25  3 15 23 21  1 29 31            -0.001740402
 -24020539.455 9 -18698937.84248  21099436.333    21099437.3044   21099442.7604
      2803.541        2184.577
  14270834.92516    112739.83154  24324646.114           0.0005          0.0005
     -2503.009       -1950.397
 -15731390.099 9 -12236586.79948  21351534.575    21351535.2914   21351540.9744
      3094.414        2411.232
  11437769.750 8   8908659.28346  24145813.476    24145814.1984   24145822.1394
     -1978.991       -1542.071
   1420844.960 9   1110596.79648  21126620.867    21126621.2344   21126626.7994
     -1141.224        -889.265
  -1995092.227 9  -1379347.34448  20536741.197    20536741.9414   20536746.8834
     -1331.256       -1037.342
  -2099012.370 9  -1619512.89146  23890567.276    23890568.1514   23890575.0264
      3295.646        2568.036
   1560744.687 9   1225890.79047  23431179.168    23431179.4684   23431186.1474
     -1902.326       -1482.332
 96 11 12 18 29 59.9980000  0  7 25 15 23 21  1 29 31               -0.001749463
 -24104435.516 9 -18764311.36148  21083471.382    21083472.3624   21083477.8074
      2789.726        2173.812
 -15824014.603 9 -12308761.73848  21333908.697    21333909.4254   21333915.1014
      3080.601        2400.468
  11497209.418 8   8954975.74146  24157124.909    24157125.4464   24157133.3744
     -1983.531       -1545.609
   1455227.678 9   1137388.50548  21133163.629    21133164.0654   21133169.6404
     -1150.824        -896.746
  -1955011.329 9  -1348115.48548  20544368.348    20544369.0654   20544374.0314
     -1340.634       -1044.650
  -2197796.385 9  -1696487.40446  23871769.154    23871770.1904   23871776.9534
      3290.042        2563.669
   1617922.826 9   1270445.12947  23442059.764    23442060.0964   23442066.7904
     -1909.488       -1487.913
 96 11 12 18 30 29.9980000  0  7 25 15 23 21  1 29 31               -0.001758527
 -24187953.454 9 -18829390.23648  21067578.387    21067579.4104   21067584.8384
      2778.006        2164.680
 -15916250.997 9 -12380634.23548  21316356.736    21316357.4014   21316363.1054
      3068.284        2390.871
  11556750.745 8   9001371.52345  24168455.241    24168455.8054   24168463.4784
     -1986.033       -1547.558
   1489867.568 9   1164380.60048  21139755.488    21139755.8204   21139761.4104
     -1158.630        -902.829
  -1914685.452 9  -1316692.73248  20552042.075    20552042.8484   20552047.8074
     -1347.681       -1050.141
  -2296438.572 9  -1773351.40746  23852998.267    23852999.1594   23853005.8854
      3285.904        2560.445
   1675288.109 9   1315145.31047  23452975.695    23452976.3564   23452983.0364
     -1914.872       -1492.108
 96 11 12 18 30 59.9980000  0  7 25 15 23 21  1 29 31               -0.001767589
 -24271098.038 9 -18894178.18848  21051756.703    21051757.5194   21051762.8964
      2764.783        2154.376
 -16008097.269 9 -12452202.75848  21298879.168    21298879.6694   21298885.3314
      3054.506        2380.135
  11616381.758 9   9047837.07446  24179802.459    24179803.4284   24179811.3454
     -1989.666       -1550.389
   1524754.844 9   1191565.46248  21146394.345    21146394.6524   21146400.2684
     -1167.471        -909.718
  -1874148.775 9  -1285105.71548  20559755.943    20559756.7464   20559761.7204
     -1354.976       -1055.825
  -2394934.910 9  -1850101.77746  23834254.780    23834255.8684   23834262.6144
      3280.290        2556.070
   1732833.446 9   1359985.78647  23463926.347    23463926.8834   23463933.5624
     -1921.881       -1497.570
 96 11 12 18 31 29.9980000  0  7 25 15 23 21  1 29 31               -0.001776632
 -24353862.761 9 -18958670.14648  21036007.025    21036007.9004   21036013.2544
      2752.242        2144.604
 -16099541.191 9 -12523457.75648  21281478.011    21281478.4494   21281484.1124
      3041.104        2369.691
  11676104.728 8   9094374.38645  24191167.607    24191168.2154   24191176.0454
     -1992.423       -1552.537
   1559899.951 9   1218951.23148  21153082.222    21153082.5434   21153088.1834
     -1176.262        -916.568
  -1833406.525 9  -1253358.51548  20567509.071    20567509.7834   20567514.7414
     -1361.922       -1061.238
  -2493283.258 9  -1926736.82346  23815539.870    23815540.7714   23815547.4864
      3275.705        2552.497
   1790579.717 9   1404982.84547  23474915.125    23474915.6534   23474922.3584
     -1928.638       -1502.835
 96 11 12 18 31 59.9980000  0  7 25 15 23 21  1 29 31               -0.001785646
 -24436248.362 9 -19022866.68348  21020329.575    21020330.4394   21020335.7564
      2739.933        2135.013
 -16190577.779 9 -12594395.33848  21264154.351    21264154.7574   21264160.3994
      3027.716        2359.259
  11735907.875 9   9140974.06446  24202548.215    24202548.5104   24202556.5934
     -1995.001       -1554.546
   1595317.089 9   1246548.97348  21159821.820    21159822.2214   21159827.8824
     -1185.037        -923.405
  -1792443.660 9  -1221439.40848  20575304.027    20575304.7594   20575309.7064
     -1369.182       -1066.895
  -2591486.792 9  -2003259.03946  23796852.400    23796853.2234   23796859.9904
      3270.828        2548.697
   1848538.446 9   1450145.45047  23485944.461    23485944.9564   23485951.6274
     -1935.687       -1508.328
 96 11 12 18 32 29.9980000  0  7 25 15 23 21  1 29 31               -0.001794634
 -24518269.615 9 -19086779.30648  21004721.430    21004722.3144   21004727.6314
      2727.196        2125.088
 -16281215.333 9 -12665022.00348  21246906.614    21246907.0054   21246912.6484
      3013.947        2348.530
  11795798.601 8   9187642.07745  24213945.227    24213945.4434   24213953.3724
     -1998.771       -1557.484
   1630990.478 9   1274346.40448  21166610.257    21166610.6694   21166616.3284
     -1194.026        -930.410
  -1751265.800 9  -1189352.77048  20583139.921    20583140.6374   20583145.5984
     -1376.943       -1072.943
  -2689547.984 9  -2079670.33546  23778191.715    23778192.7144   23778199.5214
      3265.672        2544.679
   1906706.815 9   1495471.40147  23497013.508    23497014.1224   23497020.7554
     -1943.020       -1514.042
 96 11 12 18 32 59.9980000  0  7 25 15 23 21  1 29 31               -0.001803602
 -24599892.617 9 -19150381.61148  20989188.923    20989189.9314   20989195.2604
      2713.639        2114.524
 -16371433.502 9 -12735321.85748  21229738.572    21229739.0234   21229744.7014
      3000.091        2337.733
  11855819.559 8   9234411.52546  24225366.972    24225367.1774   24225375.0924
     -2003.160       -1560.904
   1666934.592 9   1302354.78548  21173450.210    21173450.6054   21173456.2744
     -1202.684        -937.156
  -1709840.340 9  -1157073.19048  20591022.828    20591023.6264   20591028.6214
     -1385.403       -1079.535
  -2787443.652 9  -2155952.65346  23759562.766    23759563.7984   23759570.5694
      3260.217        2540.429
   1965101.905 9   1540974.01947  23508125.881    23508126.3804   23508133.0034
     -1950.295       -1519.710
 96 11 12 18 33 29.9980000  0  7 25 15 23 21  1 29 31               -0.001812589
 -24681104.385 9 -19213663.47648  20973734.875    20973735.8414   20973741.1424
      2699.794        2103.736
 -16461247.004 9 -12805306.40048  21212647.556    21212648.0584   21212653.7534
      2986.737        2327.328
  11915972.643 8   9281283.90346  24236813.646    24236814.0414   24236822.0284
     -2007.677       -1564.424
   1703134.696 9   1330562.64648  21180338.782    21180339.2754   21180344.9464
     -1211.393        -943.942
  -1668163.053 9  -1124597.39448  20598953.779    20598954.5614   20598959.5514
     -1393.785       -1086.066
  -2885179.498 9  -2232110.42146  23740964.134    23740965.2764   23740971.9724
      3254.894        2536.281
   2023690.290 9   1586627.25947  23519274.962    23519275.4024   23519282.0254
     -1956.122       -1524.251
 96 11 12 18 33 59.9980000  0  7 25 15 23 21  1 29 31               -0.001821597
 -24761886.306 9 -19276610.39148  20958362.637    20958363.5304   20958368.8354
      2685.510        2092.605
 -16550646.594 9 -12874968.40948  21195635.338    21195635.8444   21195641.5804
      2972.991        2316.616
  11976274.450 8   9328272.23146  24248288.740    24248289.2964   24248297.0734
     -2012.644       -1568.294
   1739602.796 9   1358979.32348  21187278.435    21187278.9284   21187284.6064
     -1219.941        -950.603
  -1626220.546 9  -1091914.93048  20606935.253    20606935.9354   20606940.9574
     -1402.483       -1092.844
  -2982736.833 9  -2308129.08647  23722399.490    23722400.6794   23722407.3934
      3248.676        2531.436
   2082447.704 9   1632412.21347  23530455.935    23530456.5724   23530463.2004
     -1961.285       -1528.274
 96 11 12 18 34 29.9980000  0  7 25 15 23 21  1 29 31               -0.001830639
 -24842225.038 9 -19339211.96248  20943074.579    20943075.5294   20943080.8454
      2670.565        2080.960
 -16639620.553 9 -12944298.75148  21178704.246    21178704.6404   21178710.4084
      2958.702        2305.482
  12036738.185 8   9375386.69746  24259794.722    24259795.0964   24259803.1624
     -2017.905       -1572.394
   1776330.250 9   1387598.11048  21194267.413    21194267.9314   21194273.6094
     -1228.510        -957.281
  -1584014.221 9  -1059026.88848  20614966.867    20614967.5234   20614972.5644
     -1411.252       -1099.677
  -3080097.976 9  -2383994.86846  23703872.063    23703873.4324   23703880.1834
      3242.152        2526.352
   2141366.080 9   1678322.57647  23541667.814    23541668.3994   23541675.0244
     -1966.482       -1532.324
 96 11 12 18 34 59.9980000  0  7 25 15 23 21  1 29 31               -0.001839724
 -24922123.735 9 -19401470.65948  20927870.298    20927871.2654   20927876.5834
      2656.195        2069.762
 -16728174.904 9 -13013302.12548  21161852.837    21161853.2904   21161859.0824
      2945.079        2294.867
  12097338.145 9   9422607.30046  24271326.509    24271327.1414   24271335.1844
     -2021.792       -1575.422
   1813309.588 9   1416413.14748  21201304.390    21201304.8914   21201310.5464
     -1236.677        -963.644
  -1541551.711 9  -1025939.22548  20623047.129    20623047.8814   20623052.9034
     -1419.308       -1105.954
  -3177268.951 9  -2459712.46747  23685381.110    23685382.3864   23685389.1654
      3236.065        2521.609
   2200423.531 9   1724341.33547  23552905.782    23552906.6784   23552913.3264
     -1970.756       -1535.654
 96 11 12 18 35 29.9980000  0  7 25 15 23 21  1 29 31               -0.001848814
 -25001577.674 9 -19463382.78648  20912750.580    20912751.6474   20912756.9954
      2641.185        2058.066
 -16816296.607 9 -13081968.36648  21145083.784    21145084.2934   21145090.0824
      2929.837        2282.990
  12158064.878 8   9469926.79145  24282882.579    24282883.2764   24282890.5964
     -2026.466       -1579.064
   1850569.390 9   1445446.72948  21208394.702    21208395.2284   21208400.8814
     -1247.106        -971.771
  -1498834.116 9   -992652.79948  20631175.992    20631176.7734   20631181.7794
     -1428.291       -1112.954
  -3274234.919 9  -2535270.31947  23666929.333    23666930.3674   23666937.1254
      3228.563        2515.763
   2259630.939 9   1770476.90146  23564172.714    23564173.4974   23564180.1794
     -1976.567       -1540.182
 96 11 12 18 35 59.9980000  0  7 25 15 23 21  1 29 31               -0.001857890
 -25080620.650 9 -19524974.69048  20897709.269    20897710.2444   20897715.6034
      2628.269        2048.002
 -16903988.612 9 -13150299.80448  21128396.426    21128397.0444   21128402.8614
      2916.360        2272.488
  12218903.025 8   9517332.94446  24294459.461    24294460.2374   24294468.2894
     -2029.350       -1581.312
   1888099.644 9   1474691.05648  21215536.541    21215537.0324   21215542.6554
     -1254.806        -977.771
  -1455878.958 9   -959181.25348  20639350.109    20639350.8444   20639355.8934
     -1435.241       -1118.370
  -3371005.140 9  -2610675.62347  23648514.467    23648515.5214   23648522.3374
      3222.874        2511.330
   2318998.498 9   1816737.28546  23575470.092    23575470.8114   23575477.4964
     -1981.469       -1544.002
 96 11 12 18 36 29.9980000  0  7 25 15 23 21  1 29 31               -0.001866968
 -25159263.296 9 -19586254.64848  20882743.958    20882745.0314   20882750.3834
      2614.792        2037.500
 -16991267.177 9 -13218309.06148  21111787.760    21111788.4604   21111794.3144
      2902.337        2261.561
  12279829.417 8   9564807.91746  24306053.893    24306054.4464   24306062.3474
     -2032.488       -1583.757
   1925870.005 9   1504122.48548  21222723.943    21222724.5024   21222730.1374
     -1263.085        -984.222
  -1412714.903 9   -925546.92848  20647564.001    20647564.7134   20647569.7374
     -1442.304       -1123.873
  -3467600.266 9  -2685944.49047  23630133.114    23630134.0494   23630140.9154
      3216.992        2506.747
   2378532.053 9   1863126.99946  23586799.035    23586799.6384   23586806.3954
     -1987.385       -1548.612
 96 11 12 18 36 59.9980000  0  7 25 15 23 21  1 29 31               -0.001876033
 -25237504.484 9 -19647221.78248  20867855.088    20867856.2104   20867861.5604
      2601.069        2026.807
 -17078125.782 9 -13285991.08148  21095259.064    21095259.8034   21095265.6594
      2887.933        2250.337
  12340857.552 8   9612362.18145  24317667.269    24317667.7354   24317675.8434
     -2036.277       -1586.709
   1963890.470 9   1533748.80048  21229959.005    21229959.5824   21229965.2284
     -1271.789        -991.004
  -1369339.616 9   -891748.01048  20655818.128    20655818.7554   20655823.7874
     -1449.603       -1129.561
  -3564021.660 9  -2761077.98146  23611784.665    23611785.6424   23611792.4524
      3210.914        2502.011
   2438249.308 9   1909659.86746  23598162.985    23598163.5654   23598170.3494
     -1994.090       -1553.836
 96 11 12 18 37 29.9980000  0  7 25 15 23 21  1 29 31               -0.001885084
 -25315342.727 9 -19707874.93348  20853043.014    20853044.0444   20853049.4144
      2588.041        2016.655
 -17164552.558 9 -13353336.61148  21078812.611    21078813.3054   21078819.1594
      2873.733        2239.272
  12401995.919 8   9660002.33945  24329301.585    24329302.1514   24329310.2784
     -2039.906       -1589.537
   2002161.234 9   1563570.14448  21237241.770    21237242.2894   21237247.9744
     -1279.635        -997.118
  -1325751.272 9   -857783.07648  20664112.603    20664113.3204   20664118.3604
     -1456.415       -1134.869
  -3660270.214 9  -2836076.76846  23593469.299    23593470.0644   23593476.8854
      3205.659        2497.916
   2498157.816 9   1956341.75246  23609563.287    23609563.8244   23609570.6374
     -1999.919       -1558.378
 96 11 12 18 37 59.9980000  0  7 25 15 23 21  1 29 31               -0.001894142
 -25392783.994 9 -19768218.75248  20838306.411    20838307.4444   20838312.7954
      2574.154        2005.834
 -17250548.589 9 -13420346.49648  21062448.222    21062448.7964   21062454.6644
      2858.901        2227.715
  12463249.613 8   9707732.42246  24340957.909    24340958.5254   24340966.4364
     -2044.051       -1592.767
   2040669.109 9   1593576.24848  21244569.520    21244570.1094   21244575.8014
     -1288.154       -1003.756
  -1281950.517 9   -823652.62348  20672447.644    20672448.3524   20672453.3874
     -1464.048       -1140.817
  -3756364.707 9  -2910955.50746  23575182.949    23575183.8244   23575190.6384
      3200.340        2493.771
   2558235.823 9   2003155.73246  23620995.875    23620996.3314   23621003.2044
     -2005.714       -1562.894
 96 11 12 18 38 29.9980000  0  7 25 15 23 21  1 29 31               -0.001903179
 -25469799.670 9 -19828230.93548  20823650.835    20823651.8064   20823657.1884
      2559.963        1994.776
 -17336087.549 9 -13487000.22148  21046170.604    21046171.2924   21046177.1584
      2843.312        2215.568
  12524640.489 8   9755569.24345  24352639.700    24352640.4864   24352649.1444
     -2049.009       -1596.630
   2079461.401 9   1623803.97848  21251951.370    21251952.0394   21251957.7754
     -1298.289       -1011.654
  -1237909.227 9   -789334.74148  20680828.428    20680829.1464   20680834.1874
     -1472.379       -1147.308
  -3852292.144 9  -2985704.08746  23556928.262    23556929.3554   23556936.1184
      3194.453        2489.184
   2618491.197 9   2050107.92446  23632461.962    23632462.5884   23632469.4614
     -2011.587       -1567.470
 96 11 12 18 38 59.9980000  0  7 25 15 23 21  1 29 31               -0.001912201
 -25546413.543 9 -19887930.03848  20809071.730    20809072.6564   20809078.0204
      2546.567        1984.338
 -17421188.571 9 -13553312.69648  21029976.465    21029977.1174   21029982.9874
      2829.200        2204.571
  12586142.562 9   9803492.91046  24364343.586    24364344.3234   24364352.3904
     -2051.894       -1598.878
   2118527.870 9   1654245.36648  21259385.707    21259386.1494   21259391.9284
     -1307.018       -1018.456
  -1193652.590 9   -754849.05748  20689250.181    20689250.9434   20689255.9334
     -1478.904       -1152.393
  -3948074.945 9  -3060339.96446  23538701.323    23538702.4514   23538709.1824
      3190.199        2485.869
   2678879.464 9   2097163.64946  23643954.042    23643954.1474   23643960.9974
     -2015.090       -1570.200
 96 11 12 18 39 29.9980000  0  8 25 14 15 23 21  1 29 31            -0.001921229
 -25622598.927 9 -19947295.24448  20794574.283    20794575.0714   20794580.3924
      2532.142        1973.098
   -254891.36019   -174200.48054  24350252.937           0.0005          0.0005
      3276.262        2552.931
 -17505850.218 9 -13619282.79348  21013865.783    21013866.5584   21013872.4024
      2814.706        2193.277
  12647743.539 8   9851493.58745  24376065.703    24376066.6264   24376074.7714
     -2055.142       -1601.409
   2157880.654 9   1684909.85548  21266874.324    21266874.7454   21266880.5614
     -1316.687       -1025.990
  -1149187.313 9   -720200.79148  20697711.581    20697712.4064   20697717.4104
     -1485.562       -1157.581
  -4043715.013 9  -3134864.60646  23520501.969    23520502.7484   23520509.4324
      3185.612        2482.295
   2739377.118 9   2144304.60946  23655466.095    23655466.4564   23655473.3404
     -2018.331       -1572.725
 96 11 12 18 39 59.9980000  0  8 25 14 15 23 21  1 29 31            -0.001930256
 -25698340.811 9 -20006314.87048  20780161.008    20780161.8774   20780167.1534
      2517.273        1961.511
   -353195.044 9    -14742.95652  24331544.861           0.0005          0.0005
      3277.323        2553.758
 -17590073.602 9 -13684911.39948  20997838.653    20997839.4274   20997845.2274
      2800.107        2181.901
  12709449.498 9   9899576.00446  24387808.159    24387809.0364   24387817.3724
     -2058.687       -1604.172
   2197530.049 9   1715805.46848  21274419.453    21274419.7994   21274425.6044
     -1326.477       -1033.618
  -1104522.300 9   -685396.89048  20706211.157    20706211.8854   20706216.8794
     -1492.167       -1162.727
  -4139207.931 9  -3209274.59647  23502330.049    23502330.9954   23502337.6584
      3180.506        2478.316
   2799988.331 9   2191534.05946  23666999.845    23667000.4074   23667007.4074
     -2022.601       -1576.053
 96 11 12 18 40 29.9980000  0  8 25 14 15 23 21  1 29 31            -0.001939284
 -25773611.736 9 -20064967.51748  20765837.406    20765838.2784   20765843.5464
      2500.720        1948.613
   -451515.059 9    -91355.97756  24312835.668           0.0004          0.0005
      3277.276        2553.722
 -17673840.894 9 -13750184.61048  20981898.380    20981899.0534   20981904.8354
      2784.241        2169.538
  12771282.100 8   9947757.16645  24399574.748    24399575.5244   24399583.7104
     -2063.553       -1607.963
   2237473.641 9   1746930.31948  21282020.326    21282020.8294   21282026.6614
     -1336.363       -1041.322
  -1059650.728 9   -650432.03748  20714749.867    20714750.6854   20714755.6394
     -1499.273       -1168.265
  -4234520.130 9  -3283543.79146  23484192.336    23484193.6414   23484200.2614
      3173.404        2472.782
   2860751.403 9   2238881.82846  23678563.070    23678563.2854   23678570.3714
     -2028.285       -1580.482
 96 11 12 18 40 59.9980000  0  8 25 14 15 23 21  1 29 31            -0.001948345
 -25848394.499 9 -20123239.77748  20751606.757    20751607.5644   20751612.8454
      2484.638        1936.082
   -549852.858 9   -167982.82956  24294123.328           0.0004   24294132.3465
      3278.330        2554.543
 -17757150.323 9 -13815101.03748  20966045.120    20966045.7804   20966051.5544
      2769.364        2157.946
  12833243.289 8   9996038.55046  24411365.583    24411366.4514   24411374.4604
     -2067.668       -1611.170
   2277684.371 9   1778263.32748  21289672.109    21289672.6924   21289678.5294
     -1344.760       -1047.865
  -1014594.122 9   -615322.99848  20723323.933    20723324.6874   20723329.5984
     -1504.980       -1172.712
  -4329638.405 9  -3357661.87447  23466091.974    23466093.1854   23466099.7364
      3167.449        2468.142
   2921661.689 9   2286344.32346  23690153.596    23690154.1504   23690161.1894
     -2032.889       -1584.069
 96 11 12 18 41 29.9980000  0  8 25 14 15 23 21  1 29 31            -0.001957428
 -25922697.842 9 -20181138.45548  20737467.196    20737468.0934   20737473.3674
      2469.182        1924.038
   -648214.769 9   -244628.41546  24275405.915    24275407.3615   24275414.6244
      3279.395        2555.373
 -17839999.260 9 -13879658.65148  20950279.531    20950280.1444   20950285.9234
      2753.943        2145.930
  12895350.135 8  10044433.36046  24423184.247    24423185.1644   24423193.3814
     -2072.778       -1615.152
   2318154.827 9   1809798.72548  21297373.417    21297374.0064   21297379.8224
     -1353.191       -1054.435
   -969344.718 9   -580063.72348  20731934.736    20731935.4044   20731940.2874
     -1511.683       -1177.935
  -4424559.102 9  -3431625.97147  23448029.313    23448030.3804   23448036.9064
      3160.533        2462.753
   2982731.185 9   2333930.87246  23701774.827    23701775.4124   23701782.3624
     -2038.490       -1588.434
 96 11 12 18 41 59.9980000  0  8 25 14 15 23 21  1 29 31            -0.001966517
 -25996551.078 9 -20238686.40948  20723413.456    20723414.2664   20723419.5734
      2453.877        1912.112
   -746619.133 9   -321307.10156  24256680.363    24256681.8684   24256689.4905
      3280.465        2556.206
 -17922383.822 9 -13943854.40248  20934602.235    20934602.8914   20934608.6554
      2737.816        2133.363
  12957609.180 8  10092946.82445  24435031.868    24435032.4774   24435040.9104
     -2078.288       -1619.445
   2358865.194 9   1841521.05548  21305120.508    21305120.9684   21305126.7664
     -1361.378       -1060.814
   -923890.066 9   -544644.52048  20740584.473    20740585.1824   20740590.0304
     -1519.227       -1183.813
  -4519269.781 9  -3505426.46247  23430006.243    23430007.5184   23430013.9904
      3152.867        2456.779
   3043978.058 9   2381655.63746  23713430.040    23713430.4294   23713437.3814
     -2045.069       -1593.560
 96 11 12 18 42 29.9980000  0  8 25 14 15 23 21  1 29 31            -0.001975613
 -26069957.789 9 -20295886.42448  20709444.505    20709445.4214   20709450.7184
      2439.503        1900.911
   -845079.449 9   -398029.40446  24237944.065    24237945.5535   24237952.9774
      3283.130        2558.283
 -18004300.780 9 -14007685.78648  20919013.831    20919014.6104   20919020.3634
      2722.857        2121.707
  13020009.757 8  10141570.58445  24446906.062    24446906.9734   24446915.5314
     -2081.902       -1622.261
   2399808.007 9   1873424.51448  21312911.830    21312912.1374   21312917.9474
     -1368.780       -1066.582
   -878221.140 9   -509058.34848  20749275.052    20749275.6974   20749280.5234
     -1525.734       -1188.884
  -4613761.388 9  -3579056.23447  23412025.234    23412026.3004   23412032.7574
      3146.197        2451.582
   3105391.966 9   2429510.54146  23725116.708    23725117.1514   23725124.0884
     -2049.597       -1597.089
 96 11 12 18 42 59.9980000  0  8 25 14 15 23 21  1 29 31            -0.001984705
 -26142915.931 9 -20352736.90948  20695561.028    20695561.9244   20695567.2794
      2424.746        1889.412
   -943596.006 9   -474795.55946  24219197.258    24219198.3494   24219205.7564
      3285.030        2559.764
 -18085744.421 9 -14071148.36248  20903515.573    20903516.3834   20903522.1294
      2707.050        2109.390
  13082536.786 8  10190292.77345  24458804.784    24458805.5364   24458814.2814
     -2086.226       -1625.631
   2441005.428 9   1905526.37448  21320751.392    21320751.7794   21320757.5884
     -1377.465       -1073.349
   -832327.841 9   -473297.34048  20758008.289    20758008.9114   20758013.7384
     -1533.629       -1195.035
  -4708040.734 9  -3652520.60447  23394084.490    23394085.5284   23394091.9874
      3139.459        2446.332
   3166959.132 9   2477484.89046  23736832.287    23736833.0164   23736839.9904
     -2054.735       -1601.092
 96 11 12 18 43 29.9980000  0  7 25 14 15 21  1 29 31               -0.001993783
 -26215449.459 9 -20409256.52548  20681758.195    20681759.2314   20681764.5884
      2410.568        1878.365
  -1042182.856 9   -551616.46146  24200436.580    24200437.8094   24200445.1544
      3287.177        2561.437
 -18166728.046 9 -14134252.47448  20888104.922    20888105.6754   20888111.4344
      2691.715        2097.440
   2482454.396 9   1937824.24548  21328638.892    21328639.2654   21328645.0784
     -1386.005       -1080.004
   -786205.081 9   -437357.53248  20766785.234    20766785.8034   20766790.6044
     -1541.132       -1200.882
  -4802132.205 9  -3725838.57247  23376179.320    23376180.4144   23376186.9664
      3133.193        2441.449
   3228662.297 9   2525565.20146  23748574.086    23748574.7544   23748581.8074
     -2058.986       -1604.405
 96 11 12 18 43 59.9980000  0  7 25 14 15 21  1 29 31               -0.002002850
 -26287542.383 9 -20465432.81248  20668039.439    20668040.3684   20668045.7284
      2395.853        1866.898
  -1140824.187 9   -628479.73246  24181665.975    24181667.0034   24181674.2944
      3289.006        2562.862
 -18247244.800 9 -14196992.79648  20872783.118    20872783.8114   20872789.5654
      2676.346        2085.464
   2524169.473 9   1970329.46148  21336577.063    21336577.4264   21336583.2394
     -1394.826       -1086.877
   -739860.954 9   -401245.22948  20775604.108    20775604.8004   20775609.6144
     -1548.048       -1206.271
  -4896036.325 9  -3799010.55847  23358309.865    23358310.9774   23358317.5494
      3127.461        2436.983
   3290490.246 9   2573742.76246  23760339.654    23760340.3014   23760347.3734
     -2062.608       -1607.227
 96 11 12 18 44 29.9970000  0  7 25 14 15 21  1 29 31               -0.002011911
 -26359175.440 9 -20521250.76048  20654408.147    20654409.0244   20654414.4014
      2380.328        1854.801
  -1239497.349 9   -705367.89046  24162888.973    24162890.0414   24162897.4524
      3289.765        2563.453
 -18327285.348 9 -14259362.04748  20857551.839    20857552.5924   20857558.3184
      2660.213        2072.893
   2566166.928 9   2003054.73048  21344568.900    21344569.3014   21344575.1434
     -1404.682       -1094.557
   -693311.350 9   -364972.81548  20784462.167    20784462.8824   20784467.6964
     -1554.828       -1211.554
  -4989761.175 9  -3872042.81947  23340474.613    23340475.6584   23340482.2014
      3121.651        2432.455
   3352430.581 9   2622007.88346  23772126.620    23772127.2224   23772134.1954
     -2066.517       -1610.273
 96 11 12 18 44 59.9970000  0  7 25 14 15 21  1 29 31               -0.002020972
 -26430359.714 9 -20576719.00148  20640862.258    20640863.0854   20640868.4794
      2365.452        1843.209
  -1338201.235 9   -782279.99846  24144106.296    24144107.3014   24144114.5804
      3290.594        2564.099
 -18406849.929 9 -14321360.41448  20842411.400    20842411.9304   20842417.6664
      2644.163        2060.387
   2608452.572 9   2036004.55448  21352615.488    21352616.0144   21352621.8574
     -1414.290       -1102.044
   -646567.500 9   -328549.03848  20793357.240    20793357.9414   20793362.7614
     -1561.403       -1216.678
  -5083334.868 9  -3944957.33447  23322668.013    23322669.1134   23322675.5824
      3116.622        2428.537
   3414479.959 9   2670357.97346  23783934.424    23783934.8604   23783941.8394
     -2070.100       -1613.065
 96 11 12 18 45 29.9970000  0  7 25 14 15 21  1 29 31               -0.002030019
 -26501106.562 9 -20631846.38948  20627399.498    20627400.4174   20627405.7974
      2351.007        1831.954
  -1436931.266 9   -859212.42746  24125318.429    24125319.6164   24125326.8994
      3291.525        2564.825
 -18485936.025 9 -14382985.93648  20827361.755    20827362.3494   20827368.0944
      2628.221        2047.964
   2651024.409 9   2069177.38048  21360716.869    21360717.2304   21360723.0414
     -1423.730       -1109.400
   -599630.701 9   -291974.91248  20802289.004    20802289.6984   20802294.5424
     -1567.637       -1221.535
  -5176758.407 9  -4017754.82647  23304890.131    23304891.1534   23304897.6364
      3111.620        2424.639
   3476632.802 9   2718788.68946  23795761.883    23795762.1984   23795769.2474
     -2073.577       -1615.774
 96 11 12 18 45 59.9970000  0  8 25 14 30 15 21  1 29 31            -0.002039037
 -26571421.300 9 -20686637.06248  20614019.149    20614019.9504   20614025.3194
      2336.662        1820.776
  -1535691.658 9   -936168.55146  24106525.023    24106526.1744   24106533.5504
      3292.527        2565.605
  -2016947.21219  -1553718.13156  24589608.547    24589608.9905   24589616.0175
      2158.553        1681.989
 -18564544.240 9 -14444239.08748  20812403.141    20812403.7234   20812409.4394
      2612.343        2035.592
   2693873.004 9   2102565.87348  21368870.703    21368871.1094   21368876.9084
     -1432.705       -1116.394
   -552509.565 9   -255257.14948  20811255.848    20811256.5334   20811261.3774
     -1573.778       -1226.321
  -5270033.042 9  -4090436.27247  23287140.435    23287141.5884   23287148.0434
      3106.793        2420.878
   3538886.800 9   2767298.22646  23807608.557    23807608.8274   23807615.7944
     -2076.822       -1618.303
 96 11 12 18 46 29.9970000  0  8 25 14 30 15 21  1 29 31            -0.002048073
 -26641303.644 9 -20741090.80848  20600720.945    20600721.7944   20600727.1104
      2321.533        1808.987
  -1634479.546 9  -1013146.11846  24087726.491    24087727.5194   24087734.6924
      3292.869        2565.872
  -2081554.651 8  -1604061.50545  24577313.821    24577314.3834   24577321.6284
      2147.865        1673.661
 -18642675.092 9 -14505120.26548  20797535.363    20797535.9314   20797541.6274
      2595.746        2022.659
   2736987.575 9   2136161.61648  21377075.149    21377075.5844   21377081.3764
     -1442.264       -1123.842
   -505203.331 9   -218395.15248  20820257.869    20820258.6064   20820263.4704
     -1580.769       -1231.768
  -5363160.946 9  -4163003.41047  23269418.739    23269419.9224   23269426.3494
      3101.018        2416.378
   3601237.866 9   2815883.38746  23819473.228    23819473.8884   23819480.9024
     -2080.473       -1621.148
 96 11 12 18 46 59.9970000  0  8 25 14 30 15 21  1 29 31            -0.002057096
 -26710736.345 9 -20795194.18648  20587508.290    20587509.1764   20587514.4734
      2307.048        1797.700
  -1733292.451 9  -1090143.14046  24068922.803    24068923.8484   24068931.2314
      3294.491        2567.136
  -2145850.656 8  -1654162.30745  24565078.532    24565079.0734   24565086.2334
      2138.325        1666.227
 -18720315.999 9 -14565619.67148  20782760.825    20782761.3454   20782767.0344
      2580.122        2010.485
   2780385.121 9   2169977.85647  21385333.318    21385333.8774   21385339.7024
     -1451.154       -1130.769
   -457679.797 9   -181363.83648  20829301.364    20829302.0274   20829306.9294
     -1587.613       -1237.101
  -5456111.735 9  -4235432.52547  23251730.905    23251731.8604   23251738.3584
      3095.391        2411.993
   3663690.584 9   2864547.77346  23831357.431    23831358.2724   23831365.2964
     -2083.261       -1623.320
 96 11 12 18 47 29.9970000  0  8 25 14 30 15 21  1 29 31            -0.002066105
 -26779707.874 9 -20848938.19848  20574383.387    20574384.2984   20574389.5964
      2290.875        1785.097
  -1832139.794 9  -1167167.04346  24050112.657    24050113.7834   24050121.0704
      3295.432        2567.869
  -2209846.492 9  -1704029.13246  24552900.290    24552901.0194   24552908.2454
      2128.058        1658.227
 -18797471.209 9 -14625740.60248  20768078.728    20768079.1844   20768084.8564
      2563.531        1997.557
   2824061.908 9   2204011.68348  21393644.747    21393645.3134   21393651.1484
     -1460.621       -1138.146
   -409945.967 9   -144168.64848  20838384.802    20838385.4694   20838390.3774
     -1594.577       -1242.528
  -5548863.458 9  -4307706.53447  23234080.696    23234081.7644   23234088.1784
      3087.947        2406.192
   3726241.962 9   2913289.00546  23843260.844    23843261.4104   23843268.5354
     -2086.775       -1626.058
 96 11 12 18 47 59.9970000  0  8 25 14 30 15 21  1 29 31            -0.002075111
 -26848186.716 9 -20902298.29748  20561352.338    20561353.2064   20561358.4734
      2274.208        1772.110
  -1931021.528 9  -1244217.71446  24031296.280    24031297.1804   24031304.4144
      3296.561        2568.749
  -2273539.822 9  -1753660.25246  24540779.994    24540780.7754   24540787.8924
      2117.898        1650.310
 -18874132.703 9 -14685476.82348  20753490.470    20753490.9724   20753496.6434
      2547.001        1984.676
   2868018.215 9   2238263.31248  21402009.346    21402009.9414   21402015.8034
     -1469.989       -1145.446
   -362009.626 9   -106815.66348  20847506.699    20847507.4464   20847512.3634
     -1601.429       -1247.867
  -5641387.047 9  -4379802.77547  23216474.323    23216475.0504   23216481.4774
      3080.129        2400.101
   3788888.192 9   2962104.18446  23855182.245    23855182.6554   23855189.6904
     -2089.933       -1628.519
 96 11 12 18 48 29.9970000  0  8 25 14 30 15 21  1 29 31            -0.002084118
 -26916175.813 9 -20955276.78548  20548414.384    20548415.3394   20548420.5374
      2258.130        1759.582
  -2029954.631 9  -1321308.44746  24012469.854    24012470.8104   24012477.9604
      3298.878        2570.554
  -2336936.178 9  -1803059.98645  24528716.268    24528716.8524   24528723.6474
      2108.147        1642.712
 -18950304.067 9 -14744831.13248  20738995.495    20738996.0314   20739001.7164
      2530.776        1972.033
   2912249.428 9   2272729.16648  21410426.272    21410426.8744   21410432.7354
     -1479.025       -1152.487
   -313877.301 9    -69309.95948  20856666.011    20856666.7264   20856671.6374
     -1607.682       -1252.739
  -5733680.016 9  -4451719.33447  23198911.239    23198912.2374   23198918.6454
      3072.509        2394.163
   3851624.317 9   3010989.41546  23867120.392    23867121.0484   23867128.1114
     -2092.973       -1630.888
 96 11 12 18 48 59.9970000  0  8 25 14 30 15 21  1 29 31            -0.002093125
 -26983671.511 9 -21007870.79148  20535570.435    20535571.2844   20535576.4974
      2241.649        1746.739
  -2128954.055 9  -1398450.83346  23993630.917    23993631.7284   23993639.0274
      3300.959        2572.176
  -2400032.261 8  -1852225.68846  24516709.394    24516710.2234   24516717.0304
      2098.466        1635.168
 -19025977.139 9 -14803797.15348  20724595.524    20724595.9344   20724601.6254
      2514.137        1959.068
   2956759.513 9   2307412.30647  21418896.633    21418896.8654   21418902.7554
     -1488.145       -1159.593
   -265553.566 9    -31655.10448  20865861.613    20865862.4124   20865867.3174
     -1613.679       -1257.412
  -5825737.397 9  -4523452.31547  23181393.363    23181394.2624   23181400.6324
      3064.957        2388.278
   3914462.512 9   3059954.14146  23879078.249    23879078.7444   23879085.9364
     -2096.275       -1633.461
 96 11 12 18 49 29.9970000  0  8 25 14 30 15 21  1 29 31            -0.002102152
 -27050681.545 9 -21060086.37148  20522818.819    20522819.6564   20522824.8684
      2225.630        1734.257
  -2228017.590 9  -1475643.16846  23974779.855    23974780.5114   23974787.9674
      3303.125        2573.864
  -2462850.461 8  -1901174.91446  24504755.402    24504756.1404   24504763.1854
      2089.175        1627.928
 -19101158.021 9 -14862379.64848  20710289.008    20710289.4924   20710295.1854
      2497.737        1946.289
   3001523.349 9   2342293.15747  21427414.876    21427415.1294   21427421.0594
     -1496.249       -1165.908
   -217066.333 9      6127.14948  20875088.351    20875089.1894   20875094.1234
     -1619.103       -1261.639
  -5917587.166 9  -4595023.51347  23163914.876    23163915.8074   23163922.1544
      3058.338        2383.120
   3977386.935 9   3108986.07346  23891052.368    23891052.9884   23891060.1994
     -2098.981       -1635.570
 96 11 12 18 49 59.9970000  0  8 25 14 30 15 21  1 29 31            -0.002111192
 -27117211.300 9 -21111927.70548  20510158.589    20510159.4614   20510164.6754
      2210.377        1722.372
  -2327128.375 9  -1552872.36246  23955919.741    23955920.4254   23955927.8754
      3304.774        2575.149
  -2525370.033 8  -1949891.42846  24492858.616    24492858.9654   24492866.0814
      2079.313        1620.244
 -19175831.433 9 -14920566.71548  20696079.154    20696079.6074   20696085.2974
      2481.016        1933.259
   3046542.347 9   2377372.84947  21435981.532    21435981.9674   21435987.9444
     -1504.518       -1172.352
   -168389.097 9     44057.45248  20884351.378    20884352.1544   20884357.1144
     -1625.453       -1266.587
  -6009241.974 9  -4666442.81547  23146473.508    23146474.4914   23146480.7694
      3052.785        2378.794
   4040410.826 9   3158095.52746  23903045.491    23903046.0374   23903053.2864
     -2102.274       -1638.136
 96 11 12 18 50 29.9970000  0  8 25 14 30 15 21  1 29 31            -0.002120236
 -27183285.065 9 -21163413.71248  20497585.154    20497586.0314   20497591.2494
      2194.572        1710.056
  -2426281.942 9  -1630134.84046  23937051.168    23937052.1154   23937059.4924
      3305.391        2575.629
  -2587586.430 8  -1998371.66845  24481018.833    24481019.4064   24481026.7084
      2068.502        1611.820
 -19249996.449 9 -14978357.61848  20681966.086    20681966.4594   20681972.1474
      2463.420        1919.548
   3091817.597 9   2412652.24047  21444597.067    21444597.5964   21444603.5984
     -1513.854       -1179.626
   -119523.017 9     82134.92048  20893650.416    20893651.0824   20893656.0384
     -1632.090       -1271.758
  -6100738.541 9  -4737738.79947  23129062.238    23129063.2194   23129069.4884
      3047.085        2374.352
   4103536.994 9   3207284.65846  23915057.999    23915058.6274   23915065.8924
     -2106.030       -1641.062
 96 11 12 18 50 59.9970000  0  8 25 14 30 15 21  1 29 31            -0.002129281
 -27248901.505 9 -21214543.36948  20485098.635    20485099.6124   20485104.8284
      2179.243        1698.111
  -2525458.456 9  -1707415.22846  23918178.493    23918179.3984   23918186.7264
      3305.706        2575.875
  -2649501.643 8  -2046617.27845  24469236.177    24469237.0874   24469244.5854
      2058.637        1604.133
 -19323654.736 9 -15035753.68848  20667949.480    20667949.7594   20667955.4114
      2446.572        1906.420
   3137359.630 9   2448139.49047  21453263.485    21453263.9764   21453269.9964
     -1522.810       -1186.605
    -70478.838 9    120351.15248  20902983.154    20902983.8944   20902988.8594
     -1638.142       -1276.474
  -6192085.440 9  -4808918.16247  23111679.314    23111680.4934   23111686.7484
      3042.055        2370.432
   4166743.487 9   3256536.39346  23927085.566    23927086.4264   23927093.7924
     -2108.308       -1642.837
 96 11 12 18 51 29.9970000  0  8 25 14 30 15 21  1 29 31            -0.002138323
 -27314066.164 9 -21265320.98548  20472698.262    20472699.1544   20472704.3524
      2164.814        1686.868
  -2624648.467 9  -1784706.11346  23899303.103    23899304.1274   23899311.4644
      3306.795        2576.723
  -2711114.621 9  -2094627.44545  24457511.775    24457512.7444   24457519.7354
      2048.540        1596.265
 -19396812.508 9 -15092759.73548  20654027.922    20654028.2754   20654033.9564
      2430.283        1893.727
   3183162.803 9   2483830.24947  21461979.569    21461980.0654   21461986.0854
     -1531.138       -1193.095
    -21251.013 9    158710.49248  20912350.894    20912351.6554   20912356.6334
     -1643.981       -1281.024
  -6283280.743 9  -4879979.39247  23094325.341    23094326.5064   23094332.9024
      3037.157        2366.616
   4230013.032 9   3305837.25846  23939125.580    23939126.2854   23939133.5894
     -2110.151       -1644.274
 96 11 12 18 51 59.9970000  0  8 25 14 30 15 21  1 29 31            -0.002147347
 -27378788.433 9 -21315753.88948  20460382.060    20460382.8904   20460388.0594
      2149.288        1674.770
  -2723864.635 9  -1862017.40146  23880422.913    23880423.8694   23880431.1864
      3307.085        2576.949
  -2772407.266 9  -2142387.99846  24445848.700    24445849.3884   24445855.8394
      2037.078        1587.334
 -19469468.640 9 -15149374.90248  20640201.907    20640202.2784   20640207.9684
      2412.939        1880.212
   3229239.063 9   2519733.78647  21470747.691    21470748.1294   21470754.1474
     -1541.197       -1200.933
     28164.182 9    197215.83248  20921754.339    20921755.0714   20921760.0404
     -1650.768       -1286.313
  -6374315.170 9  -4950915.25747  23077002.086    23077003.2194   23077009.6094
      3031.188        2361.965
   4293357.980 9   3355196.86446  23951179.952    23951180.4794   23951187.7994
     -2113.293       -1646.722
 96 11 12 18 52 29.9970000  0  8 25 14 30 15 21  1 29 31            -0.002156341
 -27443025.626 9 -21365808.81148  20448157.984    20448158.9424   20448164.0954
      2134.160        1662.982
  -2823078.257 9  -1939326.66446  23861543.356    23861544.2954   23861551.3964
      3308.368        2577.949
  -2833356.643 8  -2189881.04245  24434250.475    24434250.9434   24434257.4664
      2027.248        1579.674
 -19541601.504 9 -15205582.33148  20626475.354    20626475.8744   20626481.5464
      2397.004        1867.795
   3275622.121 9   2555876.39747  21479574.150    21479574.5434   21479580.5484
     -1549.791       -1207.629
     77772.487 9    235871.64148  20931194.473    20931195.2364   20931200.1984
     -1655.403       -1289.924
  -6465152.136 9  -5021697.28147  23059716.490    23059717.5154   23059723.7884
      3025.624        2357.629
   4356783.935 9   3404619.61946  23963249.820    23963250.1034   23963257.3924
     -2114.113       -1647.361
 96 11 12 18 52 59.9970000  0  8 25 14 30 15 21  1 29 31            -0.002165335
 -27506783.062 9 -21415489.89348  20436025.201    20436026.2554   20436031.4214
      2117.533        1650.026
  -2922314.024 9  -2016653.21546  23842659.365    23842660.3194   23842667.4274
      3308.690        2578.200
  -2893985.701 8  -2237124.40246  24422712.961    24422713.1854   24422720.2764
      2015.912        1570.841
 -19613236.016 9 -15261401.42348  20612843.752    20612844.2664   20612849.9534
      2379.743        1854.345
   3322270.290 9   2592225.56947  21488451.164    21488451.4574   21488457.4334
     -1558.769       -1214.625
    127541.943 9    274653.02448  20940665.331    20940666.0664   20940671.0094
     -1661.347       -1294.556
  -6555797.915 9  -5092330.30047  23042466.995    23042468.1954   23042474.4714
      3018.591        2352.149
   4420259.122 9   3454080.70946  23975328.675    23975329.0474   23975336.3724
     -2116.437       -1649.172
 96 11 12 18 53 29.9970000  0  8 25 14 30 15 21  1 29 31            -0.002174343
 -27570057.571 9 -21464794.67148  20423984.562    20423985.4674   20423990.6134
      2100.776        1636.968
  -3021581.224 9  -2094004.22146  23823769.132    23823770.1964   23823777.4744
      3309.132        2578.544
  -2954280.726 9  -2284107.51046  24411239.515    24411239.4314   24411246.6624
      2003.750        1561.364
 -19684365.205 9 -15316826.75748  20599308.303    20599308.8124   20599314.5134
      2362.101        1840.598
   3369164.374 9   2628766.36847  21497374.899    21497375.1694   21497381.1314
     -1567.653       -1221.548
    177470.503 9    313558.38048  20950166.524    20950167.1524   20950172.1004
     -1667.176       -1299.098
  -6646250.719 9  -5162812.96547  23025254.142    23025255.5564   23025261.8444
      3011.583        2346.688
   4483791.671 9   3503586.49346  23987418.334    23987418.9814   23987426.2564
     -2119.139       -1651.277
 96 11 12 18 53 59.9970000  0  8 25 14 30 15 21  1 29 31            -0.002183351
 -27632824.260 9 -21513703.74948  20412040.468    20412041.3554   20412046.4584
      2083.862        1623.789
  -3120859.906 9  -2171364.23746  23804877.261    23804878.1844   23804885.3134
      3309.667        2578.961
  -3014219.203 9  -2330812.86246  24399833.629    24399833.8114   24399840.9244
      1992.492        1552.591
 -19754966.354 9 -15371840.64548  20585873.334    20585873.8464   20585879.5484
      2344.921        1827.211
   3416326.989 9   2665516.41347  21506349.706    21506349.9704   21506355.9464
     -1576.278       -1228.269
    227565.755 9    352593.62348  20959699.274    20959699.9624   20959704.9004
     -1672.136       -1302.963
  -6736498.558 9  -5233135.90647  23008080.765    23008081.9114   23008088.1894
      3005.231        2341.738
   4547400.773 9   3553151.92146  23999522.943    23999523.5594   23999530.7744
     -2121.073       -1652.784
 96 11 12 18 54 29.9970000  0  8 25 14 30 15 21  1 29 31            -0.002192389
 -27695089.885 9 -21562222.38948  20400191.735    20400192.5654   20400197.6584
      2067.103        1610.730
  -3220165.867 9  -2248745.47046  23785979.783    23785980.7664   23785987.9604
      3310.676        2579.747
  -3073835.617 9  -2377267.37645  24388489.026    24388489.2904   24388495.8354
      1981.685        1544.170
 -19825061.644 9 -15426460.34948  20572534.409    20572535.1314   20572540.8544
      2327.800        1813.870
   3463727.606 9   2702451.92247  21515369.763    21515370.0374   21515376.0084
     -1584.027       -1234.307
    277788.840 9    391728.48148  20969256.508    20969257.1014   20969262.0514
     -1676.584       -1306.429
  -6826563.502 9  -5303316.33647  22990941.928    22990943.1424   22990949.3514
      2998.799        2336.726
   4611048.291 9   3602747.35146  24011634.845    24011635.3744   24011642.5854
     -2122.536       -1653.924
 96 11 12 18 54 59.9970000  0  8 25 14 30 15 21  1 29 31            -0.002201444
 -27756850.139 9 -21610347.22748  20388439.218    20388439.9544   20388445.0394
      2050.237        1597.587
  -3319499.482 9  -2326148.27446  23767077.349    23767078.2324   23767085.3134
      3311.673        2580.524
  -3133118.033 8  -2423461.54045  24377207.711    24377208.3424   24377214.1864
      1970.508        1535.461
 -19894632.591 9 -15480671.47148  20559295.477    20559296.2164   20559301.9384
      2310.212        1800.165
   3511376.627 9   2739580.99247  21524437.025    21524437.3604   21524443.3254
     -1592.765       -1241.116
    328168.346 9    430985.22048  20978843.396    20978844.0224   20978848.9454
     -1682.103       -1310.730
  -6916426.689 9  -5373339.56247  22973841.508    22973842.7534   22973848.9044
      2992.116        2331.519
   4674756.302 9   3652389.83646  24023758.105    24023758.6974   24023765.8964
     -2124.698       -1655.609
 96 11 12 18 55 29.9970000  0  8 25 14 30 15 21  1 29 31            -0.002210500
 -27818104.414 9 -21658077.79948  20376782.846    20376783.6204   20376788.7114
      2033.143        1584.267
  -3418863.719 9  -2403574.90746  23748169.112    23748169.9294   23748176.9654
      3312.504        2581.172
  -3192064.552 8  -2469393.85745  24365989.812    24365990.6044   24365997.1364
      1959.191        1526.642
 -19963674.373 9 -15534470.25848  20546157.358    20546158.0024   20546163.7234
      2292.429        1786.308
   3559299.595 9   2776923.51747  21533556.476    21533556.8484   21533562.8204
     -1602.302       -1248.547
    378714.997 9    470372.20048  20988462.067    20988462.7554   20988467.6824
     -1687.900       -1315.247
  -7006093.934 9  -5443210.08447  22956778.282    22956779.5964   22956785.7564
      2985.537        2326.392
   4738525.320 9   3702079.96546  24035893.259    24035893.5714   24035900.8174
     -2126.995       -1657.399
 96 11 12 18 55 59.9970000  0  8 25 14 30 15 21  1 29 31            -0.002219552
 -27878846.569 9 -21705409.31348  20365223.973    20365224.7744   20365229.8484
      2016.329        1571.165
  -3518262.632 9  -2481028.55946  23729254.134    23729254.8734   23729261.9824
      3314.084        2582.403
  -3250683.906 9  -2515071.20746  24354834.886    24354835.5294   24354842.6184
      1948.744        1518.502
 -20032188.900 9 -15587858.19848  20533119.439    20533120.1474   20533125.8184
      2275.142        1772.838
   3607505.824 9   2814486.75847  21542729.938    21542730.2264   21542736.1764
     -1611.407       -1255.642
    429431.918 9    509891.86448  20998113.104    20998113.8614   20998118.8234
     -1693.317       -1319.468
  -7095568.819 9  -5512930.71847  22939752.133    22939753.0504   22939759.2274
      2979.456        2321.654
   4802360.905 9   3751821.83746  24048041.158    24048041.1484   24048048.5384
     -2128.781       -1658.790
 96 11 12 18 56 29.9970000  0  8 25 14 30 15 21  1 29 31            -0.002228604
 -27939087.137 9 -21752349.98548  20353760.568    20353761.3434   20353766.4254
      1999.616        1558.142
  -3617706.149 9  -2558516.99446  23710330.709    23710331.3784   23710338.4264
      3315.339        2583.381
  -3308985.017 9  -2560500.63046  24343740.984    24343741.4604   24343748.6514
      1937.855        1510.017
 -20100178.132 9 -15640836.81148  20520181.536    20520182.2324   20520187.8734
      2257.318        1758.949
   3655988.684 9   2852265.57247  21551955.939    21551956.2394   21551962.1944
     -1621.033       -1263.143
    480321.930 9    549546.39748  21007797.299    21007797.9184   21007802.9014
     -1699.538       -1324.315
  -7184860.875 9  -5582508.89347  22922760.128    22922761.2854   22922767.4904
      2973.283        2316.844
   4866256.863 9   3801610.86346  24060200.226    24060200.1814   24060207.5414
     -2131.082       -1660.583
 96 11 12 18 56 59.9970000  0  8 25 14 30 15 21  1 29 31            -0.002237644
 -27998827.015 9 -21798900.51048  20342392.318    20342393.2184   20342398.2974
      1982.515        1544.817
  -3717193.448 9  -2636039.52446  23691398.575    23691399.4914   23691406.6794
      3316.558        2584.331
  -3366956.364 9  -2605673.09346  24332709.909    24332710.0874   24332717.2934
      1926.392        1501.085
 -20167637.829 9 -15693402.79748  20507344.337    20507345.0684   20507350.7294
      2239.420        1745.003
   3704771.616 9   2890278.21747  21561239.166    21561239.3974   21561245.3764
     -1631.631       -1271.401
    531391.571 9    589340.90548  21017515.513    21017516.1354   21017521.1574
     -1705.406       -1328.888
  -7273984.180 9  -5651955.59047  22905800.713    22905801.6754   22905807.7744
      2967.699        2312.493
   4930216.264 9   3851449.27146  24072370.996    24072371.2744   24072378.6754
     -2133.452       -1662.430
 96 11 12 18 57 29.9970000  0  8 25 14 30 15 21  1 29 31            -0.002246667
 -28058054.552 9 -21845051.81548  20331121.703    20331122.5624   20331127.6374
      1966.133        1532.052
  -3816716.678 8  -2713590.10746  23672460.007    23672460.9164   23672467.9474
      3318.300        2585.688
  -3424583.606 9  -2650577.43746  24321744.003    24321744.1494   24321751.1454
      1915.438        1492.549
 -20234557.305 9 -15745547.83848  20494609.965    20494610.7214   20494616.3734
      2221.847        1731.309
   3753868.990 9   2928535.87347  21570582.167    21570582.3594   21570588.3614
     -1641.297       -1278.933
    582632.220 9    629268.66248  21027266.319    21027266.9254   21027271.9654
     -1710.595       -1332.931
  -7362936.417 9  -5721268.95747  22888873.524    22888874.6094   22888880.6904
      2962.327        2308.307
   4994247.289 9   3901343.48946  24084555.810    24084556.0164   24084563.4434
     -2135.193       -1663.787
 96 11 12 18 57 59.9970000  0  8 25 14 30 15 21  1 29 31            -0.002255682
 -28116791.030 9 -21890820.47548  20319944.530    20319945.3614   20319950.4594
      1949.916        1519.415
  -3916284.498 9  -2791175.40746  23653512.913    23653513.7424   23653520.7554
      3319.573        2586.680
  -3481877.504 9  -2695222.07845  24310841.049    24310841.5154   24310847.7094
      1904.328        1483.892
 -20300940.502 9 -15797274.99548  20481977.580    20481978.4214   20481984.0814
      2203.852        1717.287
   3803259.709 9   2967022.11247  21579980.708    21579981.1264   21579987.1464
     -1651.241       -1286.681
    634028.664 9    669317.82148  21037046.832    21037047.3384   21037052.4014
     -1715.672       -1336.887
  -7451715.078 9  -5790447.09947  22871979.462    22871980.6124   22871986.5664
      2956.349        2303.649
   5058331.700 9   3951279.32346  24096750.736    24096750.9394   24096758.3614
     -2136.838       -1665.069
 96 11 12 18 58 29.9970000  0  8 25 14 30 15 21  1 29 31            -0.002264683
 -28175050.488 9 -21936217.42648  20308858.159    20308858.9234   20308864.0294
      1934.068        1507.066
  -4015886.755 8  -2868787.53246  23634559.248    23634560.1704   23634567.0274
      3320.622        2587.498
  -3538840.945 8  -2739609.11345  24300000.891    24300001.7434   24300007.7344
      1893.196        1475.218
 -20366787.023 9 -15848583.95748  20469447.512    20469448.2404   20469453.8994
      2185.941        1703.331
   3852943.462 9   3005736.68347  21589435.189    21589435.6544   21589441.6864
     -1660.926       -1294.228
    685572.833 9    709482.08848  21046855.318    21046855.8664   21046860.9704
     -1720.524       -1340.668
  -7540309.048 9  -5859481.30947  22855120.676    22855121.6894   22855127.6564
      2949.812        2298.555
   5122449.932 8   4001241.51046  24108951.914    24108952.2514   24108959.7614
     -2137.755       -1665.783
 96 11 12 18 58 59.9970000  0  8 25 14 30 15 21  1 29 31            -0.002273680
 -28232841.870 9 -21981249.64648  20297860.708    20297861.5874   20297866.7054
      1917.865        1494.440
  -4115530.849 9  -2946432.21746  23615597.452    23615598.5544   23615605.5314
      3321.484        2588.169
  -3595470.957 8  -2783736.28346  24289224.641    24289225.1884   24289231.5964
      1881.375        1466.006
 -20432103.181 9 -15899479.65548  20457018.323    20457018.9834   20457024.6494
      2167.543        1688.995
   3902897.473 9   3044661.85147  21598940.949    21598941.6104   21598947.6564
     -1669.958       -1301.266
    737252.397 9    749751.86348  21056689.534    21056690.1794   21056695.3224
     -1725.707       -1344.707
  -7628704.438 9  -5928360.79347  22838299.565    22838300.5744   22838306.5474
      2942.186        2292.612
   5186583.767 8   4051215.87445  24121156.088    24121156.6564   24121164.2254
     -2138.850       -1666.636
 96 11 12 18 59 29.9970000  0  8 25 14 30 15 21  1 29 31            -0.002282661
 -28290145.294 9 -22025901.64448  20286956.227    20286957.0894   20286962.2024
      1902.712        1482.633
  -4215184.874 9  -3024084.68346  23596633.884    23596634.9394   23596641.8574
      3322.368        2588.858
  -3651729.081 9  -2827573.68046  24278519.319    24278519.7204   24278526.3674
      1869.626        1456.851
 -20496856.390 9 -15949936.69248  20444696.254    20444696.8484   20444702.5174
      2149.728        1675.113
   3953114.835 9   3083792.21047  21608497.083    21608497.6654   21608503.7634
     -1677.432       -1307.090
    789102.278 9    790154.34648  21066556.318    21066556.8984   21066562.0664
     -1730.553       -1348.483
  -7716852.770 9  -5997047.77247  22821525.534    22821526.4004   22821532.3784
      2934.860        2286.904
   5250755.168 8   4101219.48545  24133367.758    24133368.1614   24133375.6474
     -2138.785       -1666.586
 96 11 12 18 59 59.9970000  0  8 25 14 30 15 21  1 29 31            -0.002291642
 -28346973.495 9 -22070183.33048  20276142.185    20276143.0134   20276148.1484
      1886.034        1469.637
  -4314838.739 8  -3101737.06346  23577670.349    23577671.3834   23577678.2404
      3321.552        2588.222
  -3707612.339 9  -2871118.99246  24267885.386    24267885.6554   24267892.3374
      1856.177        1446.372
 -20561061.352 9 -15999966.51748  20432478.336    20432479.0534   20432484.6914
      2130.923        1660.459
   4003565.281 9   3123104.19747  21618097.528    21618098.0604   21618104.2094
     -1685.778       -1313.593
    841104.727 9    830675.71948  21076452.022    21076452.6584   21076457.8524
     -1736.015       -1352.739
  -7804773.948 9  -6065557.73147  22804794.373    22804795.5074   22804801.4574
      2927.037        2280.808
   5314939.56917   4151233.21755  24145581.149    24145582.7595          0.0005
     -2139.729       -1667.321
 96 11 12 19  0 29.9970000  0  8 25 14 30 15 21  1 29 31            -0.002300626
 -28403308.601 9 -22114080.79048  20265421.790    20265422.7594   20265427.8904
      1869.511        1456.762
  -4414482.616 9  -3179381.58546  23558708.779    23558709.8404   23558716.7264
      3321.692        2588.331
  -3763101.686 9  -2914357.37046  24257326.329    24257326.3854   24257333.1184
      1842.952        1436.066
 -20624716.027 9 -16049567.55348  20420365.252    20420365.9624   20420371.5984
      2112.650        1646.221
   4054249.168 9   3162598.08647  21627742.513    21627742.9194   21627749.0674
     -1693.272       -1319.433
    893260.357 9    871316.45948  21086376.950    21086377.5144   21086382.7684
     -1740.929       -1356.568
  -7892482.351 9  -6133901.91247  22788104.182    22788105.1544   22788111.0684
      2920.383        2275.623
   5379138.55217   4201258.37954  24157797.787    24157801.9755          0.0005
     -2140.255       -1667.731
 96 11 12 19  0 59.9970000  0  8 25 14 30 15 21  1 29 31            -0.002309627
 -28459148.926 9 -22157592.70748  20254795.799    20254796.6994   20254801.8054
      1853.142        1444.007
  -4514148.412 9  -3257043.18346  23539743.088    23539744.0394   23539751.1374
      3322.673        2589.096
  -3818191.728 9  -2957284.61546  24246842.876    24246842.9574   24246849.6144
      1829.980        1425.958
 -20687826.976 9 -16098744.91348  20408355.677    20408356.3454   20408361.9774
      2094.770        1632.288
   4105154.838 9   3202264.80047  21637429.603    21637429.9894   21637436.1334
     -1700.554       -1325.107
    945553.133 9    912064.05748  21096327.846    21096328.4674   21096333.7534
     -1745.189       -1359.888
  -7980017.191 9  -6202110.84547  22771446.774    22771447.7894   22771453.6944
      2915.341        2271.694
   5443349.40617   4251292.77454  24170016.986           0.0005          0.0005
     -2140.524       -1667.941
 96 11 12 19  1 29.9970000  0  7 25 14 30 15 21  1 29               -0.002318655
 -28514480.549 9 -22200708.23648  20244266.572    20244267.4284   20244272.5164
      1835.907        1430.577
  -4613825.132 9  -3334713.31546  23520774.676    23520776.0494   23520783.1534
      3322.773        2589.174
  -3872886.615 9  -2999903.95646  24236434.409    24236434.5784   24236441.2304
      1816.803        1415.691
 -20750391.418 9 -16147496.42048  20396450.046    20396450.7194   20396456.3794
      2076.456        1618.018
   4156306.485 9   3242123.18347  21647163.565    21647163.8574   21647169.9904
     -1709.399       -1331.999
    997978.544 9    952915.00848  21106304.136    21106304.7344   21106310.0044
     -1749.611       -1363.333
  -8067396.729 9  -6270198.77647  22754819.032    22754820.0184   22754825.8644
      2910.326        2267.786
 96 11 12 19  1 59.9970000  0  7 25 14 30 15 21  1 29               -0.002327702
 -28569294.486 9 -22243420.36348  20233835.771    20233836.6694   20233841.7494
      1817.948        1416.583
  -4713519.328 9  -3412397.05246  23501803.579    23501804.7374   23501812.0434
      3323.219        2589.521
  -3927199.984 9  -3042226.01645  24226098.833    24226098.7994   24226105.5554
      1803.822        1405.576
 -20812406.273 9 -16195819.67048  20384649.048    20384649.6974   20384655.3264
      2057.466        1603.220
   4207729.040 9   3282192.66147  21656949.012    21656949.2624   21656955.3774
     -1719.353       -1339.755
   1050535.165 9    993868.20648  21116305.345    21116305.9254   21116311.2394
     -1754.620       -1367.236
  -8154628.860 9  -6338171.84647  22738219.168    22738220.2484   22738226.1044
      2904.616        2263.337
 96 11 12 19  2 29.9970000  0  7 25 14 30 15 21  1 29               -0.002336771
 -28623597.773 9 -22285734.58548  20223502.203    20223503.0914   20223508.1534
      1801.749        1403.960
  -4813260.961 9  -3490117.77746  23482823.080    23482824.4134   23482831.7784
      3325.661        2591.424
  -3981152.518 9  -3084266.91646  24215831.643    24215831.9454   24215838.5884
      1792.430        1396.699
 -20873871.532 9 -16243714.67348  20372952.605    20372953.2514   20372958.8684
      2039.682        1589.363
   4259440.992 9   3322487.64747  21666789.413    21666789.7684   21666795.8984
     -1728.456       -1346.849
   1103228.339 9   1034927.80448  21126332.585    21126333.1254   21126338.4204
     -1758.737       -1370.444
  -8241702.290 9  -6406021.24747  22721650.008    22721650.7184   22721656.5454
      2899.579        2259.412
 96 11 12 19  2 59.9970000  0  7 25 14 30 15 21  1 29               -0.002345823
 -28677399.136 9 -22327657.69648  20213264.122    20213265.0214   20213270.0524
      1785.005        1390.913
  -4913049.759 9  -3567875.27446  23463834.106    23463835.2354   23463842.5204
      3326.652        2592.196
  -4034747.462 9  -3126029.19246  24205632.849    24205633.1754   24205639.7994
      1780.539        1387.433
 -20934784.190 9 -16291179.06848  20361361.291    20361361.9524   20361367.5604
      2021.115        1574.895
   4311442.855 9   3363008.53047  21676685.032    21676685.4644   21676691.5934
     -1738.297       -1354.517
   1156071.001 9   1076103.88148  21136388.185    21136388.8074   21136394.0484
     -1764.152       -1374.664
  -8328594.842 9  -6473729.71947  22705114.885    22705115.6144   22705121.3324
      2892.975        2254.266
 96 11 12 19  3 29.9970000  0  7 25 14 30 15 21  1 29               -0.002354849
 -28730689.280 9 -22369182.45748  20203123.299    20203124.2194   20203129.2034
      1767.585        1377.339
  -5012856.715 9  -3645646.86246  23444841.264    23444842.4584   23444849.8684
      3327.121        2592.562
  -4087981.962 9  -3167510.60946  24195503.078    24195503.3014   24195509.7234
      1768.206        1377.823
 -20995131.290 9 -16338202.77548  20349877.639    20349878.3044   20349883.8524
      2001.864        1559.894
   4363743.579 9   3403762.30947  21686637.500    21686637.9934   21686644.1634
     -1748.426       -1362.410
   1209087.012 9   1117415.04548  21146476.870    21146477.4484   21146482.6934
     -1770.369       -1379.508
  -8415265.369 9  -6541265.16447  22688622.044    22688622.7664   22688628.5424
      2885.004        2248.055
 96 11 12 19  3 59.9970000  0  7 25 14 30 15 21  1 29               -0.002363851
 -28783473.462 9 -22410312.96248  20193078.844    20193079.7254   20193084.6854
      1750.670        1364.158
  -5112693.439 9  -3723441.66246  23425842.955    23425844.1424   23425851.5744
      3327.939        2593.199
  -4140845.632 9  -3208703.01346  24185442.758    24185443.6054   24185450.1104
      1755.537        1367.951
 -21054910.440 9 -16384783.92248  20338502.109    20338502.6994   20338508.2264
      1982.903        1545.119
   4416331.201 9   3444739.64647  21696644.753    21696645.1124   21696651.2724
     -1757.973       -1369.849
   1262283.016 9   1158866.45548  21156599.657    21156600.3264   21156605.5954
     -1776.339       -1384.160
  -8501708.413 9  -6608623.36047  22672172.396    22672173.1724   22672179.0114
      2877.328        2242.074
